[[{"header":{"parameterUnit":"m.s-1","parameterCategory":1,"la1":30.6,"la2":29.2853,"lo1":-89.7004,"lo2":-87.6739,"dy":0.0162,"dx":0.0183,"nx":112,"ny":82,"refTime":"2023-07-21T00:00:00:Z","depth":0,"parameterNumber":2,"parameterNumberName":"U-component_of_WINDS"},"data":[0.0,0.0,0.0,0.0,0.0,0.0,0.0,0.0,0.0,0.0,0.0,0.0,0.0,0.0,0.0,0.0,0.0,0.0,0.0,0.0,0.0,0.0,0.0,0.0,0.0,0.0,0.0,0.0,0.0,0.0,0.0,0.0,0.0,0.0,0.0,0.0,0.0,0.0,0.0,0.0,0.0,0.0,0.0,0.0,0.0,0.0,0.0,0.0,0.0,0.0,0.0,0.0,0.0,0.0,0.0,0.0,0.0,0.0,0.0,0.0,0.0,0.0,0.0,0.0,0.0,0.0,0.0,0.0,0.0,0.0,0.0,0.0,0.0,0.0,0.0,0.0,0.0,0.0,0.0,0.0,0.0,0.0,0.0,0.0,0.0,0.0,0.0,0.0,0.0,0.0,0.0,-0.1792,-0.1925,-0.2279,-0.2776,-0.3132,-0.3486,-0.384,0.0,0.0,0.0,0.0,0.0,0.0,0.0,0.0,0.0,0.0,0.0,0.0,0.0,0.0,0.0,0.0,0.0,0.0,0.0,0.0,0.0,0.0,0.0,0.0,0.0,0.0,0.0,0.0,0.0,0.0,0.0,0.0,0.0,0.0,0.0,0.0,0.0,0.0,0.0,0.0,0.0,0.0,0.0,0.0,0.0,0.0,0.0,0.0,0.0,0.0,0.0,0.0,0.0,0.0,0.0,0.0,0.0,0.0,0.0,0.0,0.0,0.0,0.0,0.0,0.0,0.0,0.0,0.0,0.0,0.0,0.0,0.0,0.0,0.0,0.0,0.0,0.0,0.0,0.0,0.0,0.0,0.0,0.0,0.0,0.0,0.0,0.0,0.0,0.0,0.0,0.0,0.0,0.0,0.0,0.0,0.0,0.0,0.0,0.0,0.0,0.0,0.0,0.0,0.0,-0.1928,-0.1658,-0.1748,-0.2061,-0.2504,-0.286,-0.3214,-0.3622,0.0,0.0,0.0,0.0,0.0,0.0,0.0,0.0,0.0,0.0,0.0,0.0,0.0,0.0,0.0,0.0,0.0,0.0,0.0,0.0,0.0,0.0,0.0,0.0,0.0,0.0,0.0,0.0,0.0,0.0,0.0,0.0,0.0,0.0,0.0,0.0,0.0,0.0,0.0,0.0,0.0,0.0,0.0,0.0,0.0,0.0,0.0,0.0,0.0,0.0,0.0,0.0,0.0,0.0,0.0,0.0,0.0,0.0,0.0,0.0,0.0,0.0,0.0,0.0,0.0,0.0,0.0,0.0,0.0,0.0,0.0,0.0,0.0,0.0,0.0,0.0,0.0,0.0,0.0,0.0,0.0,0.0,0.0,0.0,0.0,0.0,0.0,0.0,0.0,0.0,0.0,0.0,0.0,0.0,0.0,0.0,0.0,0.0,0.0,0.0,0.0,0.0,0.0,-0.1746,-0.1478,-0.1433,-0.1478,-0.1703,-0.2105,-0.2504,-0.2904,-0.3262,-0.366,0.0,0.0,0.0,0.0,0.0,0.0,0.0,0.0,0.0,0.0,0.0,0.0,0.0,0.0,0.0,0.0,0.0,0.0,0.0,0.0,0.0,0.0,0.0,0.0,0.0,0.0,0.0,0.0,0.0,0.0,0.0,0.0,0.0,0.0,0.0,0.0,0.0,0.0,0.0,0.0,0.0,0.0,0.0,0.0,0.0,0.0,0.0,0.0,0.0,0.0,0.0,0.0,0.0,0.0,0.0,0.0,0.0,0.0,0.0,0.0,0.0,0.0,0.0,0.0,0.0,0.0,0.0,0.0,0.0,0.0,0.0,0.0,0.0,0.0,0.0,0.0,0.0,0.0,0.0,0.0,0.0,0.0,0.0,0.0,0.0,0.0,0.0,0.0,0.0,0.0,0.0,0.0,0.0,0.0,0.0,0.0,0.0,0.0,0.0,0.0,0.0,0.0,-0.1433,-0.1208,-0.1299,-0.1344,-0.1478,-0.1839,-0.2284,-0.2682,-0.299,-0.335,0.0,0.0,0.0,0.0,0.0,0.0,0.0,0.0,0.0,0.0,0.0,0.0,0.0,0.0,0.0,0.0,0.0,0.0,0.0,0.0,0.0,0.0,0.0,0.0,0.0,0.0,0.0,0.0,0.0,0.0,0.0,0.0,0.0,0.0,0.0,0.0,0.0,0.0,0.0,0.0,0.0,0.0,0.0,0.0,0.0,0.0,0.0,0.0,0.0,0.0,0.0,0.0,0.0,0.0,0.0,0.0,0.0,0.0,0.0,0.0,0.0,0.0,0.0,0.0,0.0,0.0,0.0,0.0,0.0,0.0,0.0,0.0,0.0,0.0,0.0,0.0,0.0,0.0,0.0,0.0,0.0,0.0,0.0,0.0,0.0,0.0,0.0,0.0,0.0,0.0,0.0,0.0,0.0,0.0,0.0,0.0,0.0,0.0,0.0,0.0,0.0,0.0,-0.1478,-0.1299,-0.1389,-0.1523,-0.1703,-0.1973,-0.242,-0.2773,-0.299,-0.3262,0.0,0.0,0.0,0.0,0.0,0.0,0.0,0.0,0.0,0.0,0.0,0.0,0.0,0.0,0.0,0.0,0.0,0.0,0.0,0.0,0.0,0.0,0.0,0.0,0.0,0.0,0.0,0.0,0.0,0.0,0.0,0.0,0.0,0.0,0.0,0.0,0.0,0.0,0.0,0.0,0.0,0.0,0.0,0.0,0.0,0.0,0.0,0.0,0.0,0.0,0.0,0.0,0.0,0.0,0.0,0.0,0.0,0.0,0.0,0.0,0.0,0.0,0.0,0.0,0.0,0.0,0.0,0.0,0.0,0.0,0.0,0.0,0.0,0.0,0.0,0.0,0.0,0.0,0.0,0.0,0.0,0.0,0.0,0.0,0.0,0.0,0.0,0.0,0.0,0.0,0.0,0.0,0.0,0.0,0.0,0.0,0.0,0.0,0.0,0.0,0.0,0.0,-0.1546,-0.134,0.0,-0.135,-0.1522,-0.1753,-0.2107,-0.2464,-0.2773,0.0,0.0,0.0,0.0,0.0,0.0,0.0,0.0,0.0,0.0,0.0,0.0,0.0,0.0,0.0,0.0,0.0,0.0,0.0,0.0,0.0,0.0,0.0,0.0,0.0,0.0,0.0,0.0,0.0,0.0,0.0,0.0,0.0,0.0,0.0,0.0,0.0,0.0,0.0,0.0,0.0,0.0,0.0,0.0,0.0,0.0,0.0,0.0,0.0,0.0,0.0,0.0,0.0,0.0,0.0,0.0,0.0,0.0,0.0,0.0,0.0,0.0,0.0,0.0,0.0,0.0,0.0,0.0,0.0,0.0,0.0,0.0,0.0,0.0,0.0,0.0,0.0,0.0,0.0,0.0,0.0,0.0,0.0,0.0,0.0,0.0,0.0,0.0,0.0,0.0,0.0,0.0,0.0,0.0,0.0,0.0,0.0,0.0,0.0,0.0,0.0,0.0,-0.1868,-0.1616,-0.1393,0.0,-0.1333,-0.15,-0.1665,-0.1971,-0.233,-0.2732,0.0,0.0,0.0,0.0,0.0,0.0,0.0,0.0,0.0,0.0,0.0,0.0,0.0,0.0,0.0,0.0,0.0,0.0,0.0,0.0,0.0,0.0,0.0,0.0,0.0,0.0,0.0,0.0,0.0,0.0,0.0,0.0,0.0,0.0,0.0,0.0,0.0,0.0,0.0,0.0,0.0,0.0,0.0,0.0,0.0,0.0,0.0,0.0,0.0,0.0,0.0,0.0,0.0,0.0,0.0,0.0,0.0,0.0,0.0,0.0,0.0,0.0,0.0,0.0,0.0,0.0,0.0,0.0,0.0,0.0,0.0,0.0,0.0,0.0,0.0,0.0,0.0,0.0,0.0,0.0,0.0,0.0,0.0,0.0,0.0,0.0,0.0,0.0,0.0,0.0,0.0,0.0,0.0,0.0,0.0,0.0,0.0,0.0,0.0,0.0,0.0,0.0,-0.1871,-0.1668,-0.1544,-0.134,-0.1526,-0.1736,-0.1801,-0.2103,-0.246,0.0,0.0,0.0,0.0,0.0,0.0,0.0,0.0,0.0,0.0,0.0,0.0,0.0,0.0,0.0,0.0,0.0,0.0,0.0,0.0,0.0,0.0,0.0,0.0,0.0,0.0,0.0,0.0,0.0,0.0,0.0,0.0,0.0,0.0,0.0,0.0,0.0,0.0,0.0,0.0,0.0,0.0,0.0,0.0,0.0,0.0,0.0,0.0,0.0,0.0,0.0,0.0,0.0,0.0,0.0,0.0,0.0,0.0,0.0,0.0,0.0,0.0,0.0,0.0,0.0,0.0,0.0,0.0,0.0,0.0,0.0,0.0,0.0,0.0,0.0,0.0,0.0,0.0,0.0,0.0,0.0,0.0,0.0,0.0,0.0,0.0,0.0,0.0,0.0,0.0,0.0,0.0,0.0,0.0,0.0,0.0,0.0,0.0,0.0,0.0,0.0,0.0,0.0,-0.2011,-0.185,-0.1666,-0.1451,-0.1563,-0.171,-0.1879,-0.2052,-0.2314,-0.2753,0.0,0.0,0.0,0.0,0.0,0.0,0.0,0.0,0.0,0.0,0.0,0.0,0.0,0.0,0.0,0.0,0.0,0.0,0.0,0.0,0.0,0.0,0.0,0.0,0.0,0.0,0.0,0.0,0.0,0.0,0.0,0.0,0.0,0.0,0.0,0.0,0.0,0.0,0.0,0.0,0.0,0.0,0.0,0.0,0.0,0.0,0.0,0.0,0.0,0.0,0.0,0.0,0.0,0.0,0.0,0.0,0.0,0.0,0.0,0.0,0.0,0.0,0.0,0.0,0.0,0.0,0.0,0.0,0.0,0.0,0.0,0.0,0.0,0.0,0.0,0.0,0.0,0.0,0.0,0.0,0.0,0.0,0.0,0.0,0.0,0.0,0.0,0.0,0.0,0.0,0.0,0.0,0.0,0.0,0.0,0.0,0.0,0.0,0.0,0.0,0.0,0.0,-0.2127,-0.2018,-0.1882,-0.1656,-0.1776,-0.1879,-0.2005,-0.2196,-0.2472,-0.2817,0.0,0.0,0.0,0.0,0.0,0.0,0.0,0.0,0.0,0.0,0.0,0.0,0.0,0.0,0.0,0.0,0.0,0.0,0.0,0.0,0.0,0.0,0.0,0.0,0.0,0.0,0.0,0.0,0.0,0.0,0.0,0.0,0.0,0.0,0.0,0.0,0.0,0.0,0.0,0.0,0.0,0.0,0.0,0.0,0.0,0.0,0.0,0.0,0.0,0.0,0.0,0.0,0.0,0.0,0.0,0.0,0.0,0.0,0.0,0.0,0.0,0.0,0.0,0.0,0.0,0.0,0.0,0.0,0.0,0.0,0.0,0.0,0.0,0.0,0.0,0.0,0.0,0.0,0.0,0.0,0.0,0.0,0.0,0.0,0.0,0.0,0.0,0.0,0.0,0.0,0.0,0.0,0.0,0.0,0.0,0.0,0.0,0.0,0.0,0.0,0.0,0.0,-0.2294,-0.224,-0.2158,-0.1983,-0.213,-0.2256,-0.2233,-0.2474,-0.2723,-0.2981,0.0,0.0,0.0,0.0,0.0,0.0,0.0,0.0,0.0,0.0,0.0,0.0,0.0,0.0,0.0,0.0,0.0,0.0,0.0,0.0,0.0,0.0,0.0,0.0,0.0,0.0,0.0,0.0,0.0,0.0,0.0,0.0,0.0,0.0,0.0,0.0,0.0,0.0,0.0,0.0,0.0,0.0,0.0,0.0,0.0,0.0,0.0,0.0,0.0,0.0,0.0,0.0,0.0,0.0,0.0,0.0,0.0,0.0,0.0,0.0,-1.1168,0.0,0.0,0.0,0.0,0.0,0.0,0.0,0.0,0.0,0.0,0.0,0.0,0.0,0.0,0.0,0.0,0.0,0.0,0.0,0.0,0.0,0.0,0.0,0.0,0.0,0.0,0.0,0.0,0.0,0.0,0.0,0.0,0.0,0.0,0.0,0.0,0.0,0.0,0.0,0.0,0.0,-0.2464,-0.241,-0.2402,-0.2384,-0.2433,-0.2546,-0.2685,-0.2769,-0.2907,-0.3143,-0.3334,0.0,0.0,0.0,0.0,0.0,0.0,0.0,0.0,0.0,0.0,0.0,0.0,0.0,0.0,0.0,0.0,0.0,0.0,0.0,0.0,0.0,0.0,0.0,0.0,0.0,0.0,0.0,0.0,0.0,0.0,0.0,0.0,0.0,0.0,0.0,0.0,0.0,0.0,0.0,0.0,0.0,0.0,0.0,0.0,0.0,0.0,0.0,0.0,0.0,0.0,0.0,0.0,0.0,0.0,0.0,0.0,0.0,0.0,0.0,0.0,-1.1413,0.0,0.0,0.0,0.0,0.0,0.0,0.0,0.0,0.0,0.0,0.0,0.0,0.0,0.0,0.0,0.0,0.0,0.0,0.0,0.0,0.0,0.0,0.0,0.0,0.0,0.0,0.0,0.0,0.0,0.0,0.0,0.0,0.0,0.0,0.0,0.0,0.0,0.0,0.0,0.0,-0.2798,-0.2798,-0.2798,-0.2798,-0.2811,-0.2889,-0.2945,-0.3057,-0.321,-0.3266,-0.3433,0.0,0.0,0.0,0.0,0.0,0.0,0.0,0.0,0.0,0.0,0.0,0.0,0.0,0.0,0.0,0.0,0.0,0.0,0.0,0.0,0.0,0.0,0.0,0.0,0.0,0.0,0.0,0.0,0.0,0.0,0.0,0.0,0.0,0.0,0.0,0.0,0.0,0.0,0.0,0.0,0.0,0.0,0.0,0.0,0.0,0.0,0.0,0.0,0.0,0.0,0.0,0.0,0.0,-0.8104,-0.8441,-0.8824,-0.9211,-0.9811,-1.0531,-1.0628,-1.1239,-1.2076,0.0,0.0,0.0,0.0,0.0,0.0,0.0,0.0,0.0,0.0,0.0,0.0,0.0,0.0,0.0,0.0,0.0,0.0,0.0,0.0,0.0,0.0,0.0,0.0,0.0,-0.3802,-0.3583,0.0,0.0,0.0,0.0,0.0,0.0,0.0,0.0,0.0,0.0,0.0,0.0,-0.3077,-0.3077,-0.313,-0.3132,-0.3188,-0.3188,-0.3188,-0.3357,-0.3413,-0.3413,-0.3527,-0.3635,0.0,0.0,0.0,0.0,0.0,0.0,0.0,0.0,0.0,0.0,0.0,0.0,0.0,0.0,0.0,0.0,0.0,0.0,0.0,0.0,0.0,0.0,0.0,0.0,0.0,0.0,0.0,0.0,0.0,0.0,0.0,0.0,-0.6225,-0.6034,0.0,0.0,0.0,0.0,0.0,0.0,0.0,0.0,0.0,0.0,0.0,0.0,0.0,0.0,-0.7469,-0.7623,-0.7817,-0.8109,-0.841,-0.8775,-0.9137,-0.9563,-1.0003,-1.0501,-1.0653,0.0,-1.1927,-1.2224,0.0,0.0,0.0,0.0,0.0,0.0,0.0,0.0,0.0,0.0,0.0,0.0,0.0,0.0,0.0,0.0,0.0,0.0,0.0,0.0,0.0,0.0,-0.4193,-0.4024,-0.3802,-0.3585,0.0,-0.3471,-0.3302,-0.3188,-0.3019,0.0,0.0,0.0,0.0,0.0,0.0,0.0,-0.2916,-0.3023,-0.3188,-0.3357,-0.3471,-0.3527,-0.3527,-0.3583,-0.3583,-0.3583,-0.3583,-0.3635,-0.3796,-0.3796,0.0,0.0,0.0,0.0,0.0,0.0,0.0,0.0,0.0,0.0,0.0,0.0,0.0,0.0,0.0,0.0,0.0,0.0,0.0,0.0,0.0,0.0,0.0,0.0,0.0,0.0,0.0,0.0,0.0,-0.6704,-0.5855,-0.5804,-0.5599,-0.5531,0.0,0.0,0.0,0.0,0.0,0.0,0.0,0.0,0.0,-0.7016,-0.7483,-0.783,-0.7949,-0.8164,-0.8333,-0.8508,-0.8776,-0.9167,-0.9618,-1.006,-1.0608,-1.1196,-1.1214,-1.1593,-1.2193,-1.2118,-1.2471,-1.3045,0.0,0.0,0.0,0.0,-1.2382,-1.1877,-1.1116,-1.0438,0.0,0.0,0.0,0.0,0.0,0.0,0.0,0.0,0.0,0.0,0.0,0.0,0.0,-0.4076,-0.3913,-0.3802,-0.3744,-0.358,-0.3413,0.0,-0.2965,-0.2856,-0.28,0.0,0.0,0.0,0.0,0.0,-0.3193,-0.3246,-0.3357,-0.3471,-0.3583,-0.3585,-0.3585,-0.3585,-0.3585,-0.3585,-0.3585,-0.3635,-0.3796,-0.3744,-0.3744,0.0,0.0,0.0,0.0,0.0,0.0,0.0,0.0,0.0,0.0,0.0,0.0,0.0,0.0,0.0,0.0,0.0,0.0,0.0,0.0,0.0,0.0,0.0,0.0,0.0,0.0,0.0,0.0,-0.6361,-0.5923,-0.5799,-0.5659,-0.5624,0.0,0.0,0.0,0.0,0.0,0.0,-0.6852,-0.7095,-0.7372,-0.7598,-0.8155,-0.8463,-0.8535,-0.877,-0.8849,-0.8777,-0.9132,-0.9506,-0.9853,-1.0358,-1.0978,-1.164,-1.1718,-1.2094,-1.2537,-1.2186,-1.2382,-1.2929,-1.3027,-1.3113,-1.3084,-1.2618,-1.2175,-1.1628,-1.0922,-1.0293,-0.9666,-0.9159,0.0,-0.8209,-0.783,0.0,0.0,0.0,0.0,-0.5508,-0.5234,-0.4794,-0.4353,-0.4135,-0.4024,-0.3965,-0.3855,-0.3747,-0.3583,0.0,-0.3023,-0.2856,-0.2745,0.0,0.0,0.0,0.0,-0.3302,-0.3302,-0.3302,-0.3413,-0.3583,-0.3585,-0.3585,-0.3585,-0.3585,-0.3585,-0.3585,-0.3585,-0.3635,-0.3796,-0.3691,-0.3691,-0.3796,0.0,0.0,0.0,0.0,0.0,0.0,0.0,0.0,0.0,0.0,0.0,0.0,0.0,0.0,0.0,0.0,0.0,0.0,0.0,0.0,0.0,0.0,0.0,0.0,0.0,0.0,0.0,0.0,0.0,-0.6083,-0.585,0.0,0.0,0.0,0.0,-0.7136,-0.7406,-0.7636,-0.7794,-0.8175,-0.8465,-0.8516,-0.8977,-0.9233,-0.9233,-0.9372,-0.931,-0.9108,-0.9425,-0.9654,-0.9744,-1.0308,-1.0922,-1.1543,-1.1983,-1.2538,-1.3032,-1.2609,-1.2666,-1.3007,-1.3075,-1.3027,-1.2881,-1.248,-1.1877,-1.1276,-1.0871,-1.0241,-0.9562,-0.9106,-0.8533,-0.7895,-0.7729,-0.7402,0.0,0.0,-0.6277,-0.5563,-0.5336,-0.4739,-0.4193,-0.4193,-0.4079,-0.4021,-0.3965,-0.3965,-0.3855,0.0,-0.313,-0.2907,-0.2905,0.0,-0.2907,-0.2916,-0.2916,-0.297,-0.3077,-0.313,-0.3244,-0.3583,-0.3585,-0.3585,-0.3585,-0.3585,-0.3585,-0.3585,-0.3585,-0.3635,-0.3796,-0.3796,-0.3796,-0.3796,-0.3796,0.0,0.0,0.0,0.0,0.0,0.0,0.0,0.0,0.0,0.0,0.0,0.0,0.0,0.0,0.0,0.0,0.0,0.0,0.0,0.0,0.0,0.0,0.0,0.0,0.0,0.0,0.0,0.0,-0.6473,-0.6568,0.0,0.0,-0.7163,-0.7447,-0.7712,-0.774,-0.7949,-0.8189,-0.8537,-0.8848,-0.9015,-0.9576,-0.9846,-0.9846,-0.9914,-0.9934,-0.9898,-1.0055,-1.0302,-1.0703,-1.1059,-1.1631,-1.2341,-1.2464,-1.288,-1.3411,-1.329,-1.3526,-1.3908,-1.4001,-1.4001,-1.3814,-1.337,-1.2846,-1.2237,-1.145,-1.0833,-1.0212,-0.9274,-0.8586,-0.8062,-0.7895,-0.7461,-0.7085,-0.6933,-0.6373,-0.5797,-0.5571,-0.5197,-0.4814,-0.4578,-0.4507,-0.4438,-0.4321,-0.4198,-0.4082,-0.3971,-0.3688,-0.3408,-0.3244,-0.3299,-0.3302,-0.3077,-0.3135,-0.3249,-0.3299,-0.3299,-0.3357,-0.3583,-0.3691,-0.3744,-0.3744,-0.3802,-0.3858,-0.3858,-0.3858,-0.3858,-0.391,-0.3852,-0.3796,-0.3796,-0.3688,-0.3638,0.0,0.0,0.0,0.0,0.0,0.0,0.0,0.0,0.0,0.0,0.0,0.0,0.0,0.0,0.0,0.0,0.0,0.0,0.0,0.0,0.0,0.0,0.0,0.0,0.0,0.0,-0.7046,-0.7084,-0.7313,-0.7588,-0.7777,-0.8051,-0.8321,-0.8624,-0.8652,-0.8834,-0.9232,-0.9553,-0.9807,-1.0053,-1.0423,-1.0599,-1.0599,-1.0569,-1.055,-1.0459,-1.0623,-1.084,-1.1107,-1.1561,-1.2039,-1.2666,-1.2726,-1.316,-1.3669,-1.396,-1.4294,-1.4725,-1.4633,-1.4566,-1.4417,-1.398,-1.3431,-1.2859,-1.1827,-1.1174,-1.0555,-0.9542,-0.8878,-0.8387,-0.8165,-0.7746,-0.7279,-0.7284,-0.6818,-0.6253,-0.5972,-0.5612,-0.5275,-0.4972,-0.4836,-0.4769,-0.4647,-0.4455,-0.4333,-0.4333,-0.4029,-0.3741,-0.3577,-0.3583,-0.3527,-0.3244,-0.3302,-0.3413,-0.3471,-0.3471,-0.3527,-0.3694,-0.3802,-0.3852,-0.3852,-0.3965,-0.4024,-0.4024,-0.4024,-0.4024,-0.4024,-0.391,-0.3852,-0.3796,-0.373,-0.3778,-0.382,0.0,0.0,0.0,0.0,0.0,0.0,0.0,0.0,0.0,0.0,0.0,0.0,0.0,0.0,0.0,0.0,0.0,0.0,0.0,0.0,0.0,0.0,0.0,-0.8359,-0.7813,-0.7597,-0.7933,-0.8121,-0.8343,-0.8635,-0.9213,-0.9672,-0.9921,-1.0105,-1.0467,-1.0956,-1.1235,-1.1431,-1.1594,-1.1522,-1.154,-1.1534,-1.1262,-1.0997,-1.0731,-1.1084,-1.1146,-1.0943,-1.1659,-1.2138,-1.2336,-1.2838,-1.331,-1.3847,-1.4437,-1.4961,-1.5342,-1.4829,-1.4649,-1.4596,-1.4189,-1.3622,-1.294,-1.1888,-1.117,-1.0554,-0.9962,-0.9315,-0.8805,-0.8663,-0.8227,-0.7798,-0.8015,-0.7565,-0.6927,-0.6547,-0.6069,-0.5654,-0.529,-0.5046,-0.4925,-0.4925,-0.4735,-0.4607,-0.4607,-0.4152,-0.3808,-0.3805,-0.3697,-0.3588,-0.3413,-0.3416,0.0,-0.3591,-0.3649,-0.3705,-0.3978,-0.4036,-0.4036,-0.4036,-0.4036,-0.4036,-0.4036,-0.4036,-0.4036,-0.4036,-0.4036,-0.3978,-0.3808,-0.3932,-0.4062,-0.4192,0.0,0.0,0.0,0.0,0.0,0.0,0.0,0.0,0.0,0.0,0.0,0.0,0.0,0.0,0.0,0.0,0.0,0.0,0.0,0.0,0.0,0.0,-0.9014,-0.8655,-0.8486,-0.8581,-0.9023,-0.9378,-0.9765,-0.9974,-1.0139,-1.0466,-1.0802,-1.0808,-1.091,-1.1238,-1.142,-1.1529,-1.1599,-1.1694,-1.1721,-1.1534,-1.1455,-1.1274,-1.1003,-1.1027,-1.1139,-1.1331,-1.1737,-1.2269,-1.2848,-1.3257,-1.3621,-1.3984,-1.4541,-1.5153,-1.577,-1.5743,-1.569,-1.5634,-1.5372,-1.4478,-1.3313,-1.2751,-1.1987,-1.1177,-1.0849,-1.0284,-0.9728,-0.9367,-0.8876,-0.8495,-0.841,-0.805,-0.7542,-0.723,-0.6795,-0.633,-0.5819,-0.5474,-0.5203,-0.4955,-0.4745,-0.4546,-0.4482,-0.4243,-0.4047,-0.3952,-0.3938,-0.3852,-0.3699,-0.3767,0.0,-0.4001,-0.4139,-0.4252,-0.437,-0.4433,-0.4492,-0.4492,-0.4614,-0.4674,-0.4674,-0.4674,-0.4674,-0.4674,-0.4555,-0.4433,-0.4311,-0.4348,-0.4433,0.0,0.0,0.0,0.0,0.0,0.0,0.0,0.0,0.0,0.0,0.0,0.0,0.0,0.0,0.0,0.0,0.0,0.0,0.0,0.0,0.0,0.0,-0.9758,-0.9679,-0.9572,-0.9348,-0.9468,-0.9898,-1.0373,-1.0738,-1.0918,-1.1059,-1.1259,-1.1597,-1.1715,-1.1811,-1.2081,-1.2176,-1.226,-1.226,-1.2122,-1.2011,-1.2025,-1.1721,-1.1603,-1.1589,-1.1384,-1.1401,-1.1637,-1.1886,-1.2301,0.0,-1.3207,-1.3547,-1.3986,-1.4571,-1.5268,0.0,0.0,0.0,0.0,0.0,-1.5069,-1.3839,-1.3497,-1.2722,-1.1832,-1.143,-1.082,-1.0221,-0.9774,-0.9309,-0.8847,-0.8829,-0.855,-0.811,-0.7765,-0.7307,-0.6762,-0.6242,-0.5852,-0.5456,-0.5127,-0.4928,-0.472,-0.4535,-0.4339,0.0,-0.4053,-0.4003,-0.3984,-0.3961,-0.4036,-0.4188,-0.4364,-0.4496,-0.4607,-0.4668,-0.4732,-0.4793,-0.4793,-0.4857,0.0,0.0,0.0,-0.4918,-0.4918,-0.4793,0.0,0.0,0.0,-0.47,-0.4835,0.0,0.0,0.0,-0.5122,-0.5485,0.0,0.0,0.0,0.0,0.0,0.0,0.0,0.0,0.0,0.0,0.0,0.0,0.0,0.0,0.0,0.0,-1.0274,-1.0544,-1.0779,-1.0515,-1.0353,-1.0709,-1.1153,-1.1496,-1.1664,-1.1879,-1.2168,-1.2433,-1.2662,-1.2904,-1.3151,0.0,0.0,0.0,0.0,-1.2539,-1.2737,-1.2172,-1.2073,-1.228,-1.1904,-1.1777,-1.1886,-1.2067,-1.2263,-1.256,-1.2901,-1.3351,-1.384,-1.4569,-1.5364,-1.6047,-1.6483,-1.7053,-1.7492,-1.6475,-1.546,-1.4533,-1.4019,0.0,0.0,-1.1968,-1.1256,-1.0571,-1.0187,-0.9656,-0.9259,-0.936,-0.907,-0.8633,-0.8268,-0.7729,-0.7114,-0.6607,-0.616,-0.5741,-0.5398,-0.5259,-0.5077,-0.4739,-0.4517,-0.4348,-0.4159,-0.4072,-0.4068,-0.4169,-0.4219,-0.4374,-0.4677,-0.4771,-0.4842,-0.4969,0.0,0.0,-0.4969,-0.4969,-0.4969,-0.4969,-0.4969,-0.4969,-0.4969,-0.4842,-0.4843,-0.497,-0.4974,-0.5036,-0.5156,-0.5292,-0.5428,-0.5428,-0.5223,-0.5422,0.0,0.0,0.0,0.0,0.0,0.0,0.0,0.0,0.0,0.0,0.0,0.0,0.0,0.0,0.0,-1.0894,-1.1128,-1.1392,-1.16,-1.1938,-1.2056,-1.1702,-1.1924,-1.2182,-1.2445,-1.2759,-1.3,-1.326,-1.3332,-1.3381,-1.3435,-1.3441,0.0,-1.3133,-1.3187,-1.3095,-1.2737,-1.2713,-1.2711,-1.2489,0.0,0.0,-1.2365,-1.2257,-1.2476,-1.2862,-1.323,-1.3573,-1.386,-1.4536,-1.5557,-1.6675,-1.6957,-1.7089,-1.7046,-1.6353,-1.5824,-1.5294,-1.4418,-1.3918,-1.3613,-1.3129,-1.2572,-1.2029,-1.1489,-1.0935,0.0,-1.0214,-0.9867,-0.9502,-0.906,-0.831,-0.7556,-0.6962,-0.6403,-0.5908,-0.5552,-0.5409,-0.5364,-0.508,-0.4986,-0.4875,-0.4544,-0.4271,-0.4085,-0.4198,-0.4374,-0.4621,-0.4842,-0.5074,-0.5277,-0.5277,-0.5277,-0.5277,-0.5277,-0.5277,-0.5277,-0.5277,-0.5277,-0.5277,-0.5277,-0.5277,-0.5291,-0.5318,-0.5318,-0.5332,-0.5359,-0.5362,-0.5428,-0.5428,-0.5359,-0.5557,0.0,0.0,0.0,0.0,0.0,0.0,0.0,0.0,0.0,0.0,0.0,-1.1951,0.0,0.0,-1.2005,-1.1996,-1.2353,-1.2737,-1.2909,-1.3347,-1.3455,-1.2698,-1.2884,-1.3157,-1.3267,-1.3502,-1.3727,-1.3689,-1.3908,-1.4074,-1.4074,-1.4074,-1.395,-1.3678,-1.3617,-1.3521,-1.3194,-1.3137,-1.316,-1.3098,-1.2739,-1.2602,-1.2606,-1.2454,-1.2526,-1.2746,-1.3046,-1.3461,-1.3869,-1.4915,-1.5825,-1.6578,-1.6835,-1.6956,-1.7012,-1.6606,-1.6132,-1.5673,-1.5041,-1.4593,-1.4221,-1.3721,-1.3119,-1.2383,-1.184,-1.1361,-1.0811,-1.0257,-0.9921,-0.9502,-0.9001,-0.8297,-0.7544,-0.6985,-0.6572,-0.6061,-0.5698,-0.5622,-0.558,-0.5293,-0.5139,-0.5002,-0.4594,-0.4284,-0.4121,-0.4257,-0.431,-0.4458,-0.4721,-0.4985,-0.5163,-0.5223,-0.5359,-0.5428,-0.5428,-0.5428,-0.5428,-0.5428,-0.5428,-0.5428,-0.5428,-0.5428,-0.5428,-0.5428,-0.5428,-0.5428,-0.5428,-0.5428,-0.5428,-0.5428,-0.5428,-0.5557,0.0,0.0,0.0,0.0,0.0,0.0,0.0,0.0,-1.2966,-1.2622,-1.2615,-1.2699,-1.2603,-1.2791,-1.3028,-1.3104,-1.3593,-1.3982,-1.4076,-1.4491,-1.4533,-1.3946,-1.3922,-1.4091,-1.4113,-1.432,-1.443,-1.4311,-1.4692,-1.5,-1.5,-1.4907,-1.4752,-1.4321,-1.4091,-1.3902,-1.3737,-1.3509,-1.3563,-1.3728,-1.3272,-1.3002,-1.2919,-1.2725,-1.2616,-1.2688,-1.2847,-1.3258,-1.3905,-1.5046,-1.5771,-1.6132,-1.6403,-1.662,-1.693,-1.6731,-1.6356,-1.5928,-1.5467,-1.502,-1.4612,-1.4164,-1.3406,-1.2571,-1.2089,-1.1534,-1.0905,-1.0343,-0.9925,-0.9504,-0.8929,-0.8136,-0.7454,-0.7084,-0.6592,-0.6218,-0.5917,-0.5917,-0.5803,-0.5514,-0.5321,-0.5093,-0.4649,-0.4222,-0.4011,-0.4105,-0.4082,-0.4121,-0.4414,-0.4561,-0.4761,-0.4957,-0.516,-0.5292,-0.5359,-0.5362,-0.5428,-0.5428,-0.5428,-0.5428,-0.5428,-0.5428,-0.5428,-0.5428,-0.5459,-0.5473,-0.5473,-0.5433,-0.5433,-0.5473,-0.5473,-0.5452,-1.4719,-1.4259,-1.3771,-1.3297,-1.3338,-1.3423,0.0,0.0,-1.3688,-1.3427,-1.3668,-1.3925,-1.3705,-1.3878,-1.4071,-1.4017,-1.4141,-1.4366,-1.4821,-1.4791,-1.4973,-1.5362,-1.5137,-1.4913,-1.495,-1.516,-1.5358,-1.5523,-1.5846,-1.6048,-1.6048,-1.5772,-1.5338,-1.4611,-1.4558,-1.4278,-1.3737,-1.388,-1.4035,-1.4035,-1.3652,-1.3492,-1.3534,-1.328,-1.2993,-1.2761,-1.2871,-1.3258,-1.3833,-1.4489,-1.507,-1.5647,-1.5788,-1.6114,-1.6374,-1.6161,-1.6142,-1.6127,-1.5221,-1.4913,-1.5002,-1.4473,-1.3925,-1.331,-1.2868,-1.2204,-1.1464,-1.0873,-1.0433,-0.9991,-0.9396,-0.8486,-0.7651,-0.7298,-0.6692,-0.6311,-0.6234,-0.6234,-0.619,-0.5959,-0.5764,-0.5491,-0.4942,-0.4408,-0.3907,-0.3657,-0.3549,-0.3675,-0.3889,-0.4028,-0.4228,-0.4625,-0.4691,-0.4824,-0.509,-0.5292,-0.5428,-0.5428,-0.5428,-0.5428,-0.5428,-0.5428,-0.5428,-0.5428,-0.5494,-0.5562,-0.5566,-0.5691,-0.5688,-0.5562,-0.5562,-0.5491,-1.4675,-1.4295,0.0,0.0,-1.4274,-1.4639,-1.4329,-1.4906,-1.5436,-1.524,-1.5323,-1.5317,-1.4977,-1.504,-1.5073,0.0,-1.5073,-1.5312,-1.5595,-1.5729,-1.5739,-1.5784,-1.5906,-1.5796,-1.5388,-1.5748,-1.6183,-1.6387,-1.6836,-1.703,-1.703,-1.6857,-1.6202,-1.5239,-1.5122,-1.4663,-1.3919,-1.3997,-1.4088,-1.4088,-1.3961,-1.3808,-1.3641,-1.3514,-1.33,-1.3006,-1.3181,-1.3327,-1.3532,-1.4133,-1.4533,-1.4848,-1.515,-1.5505,-1.5833,-1.5887,-1.6033,-1.6111,-1.5687,-1.5455,-1.54,-1.5186,-1.462,-1.3903,-1.3432,-1.2742,-1.2054,-1.1276,-1.0807,-1.0258,-0.9389,-0.8511,-0.7789,-0.7232,-0.6763,-0.6383,-0.6383,-0.6318,-0.624,-0.6176,-0.5786,-0.5336,-0.4839,-0.4038,-0.3323,-0.2903,-0.2851,-0.2955,-0.3162,-0.3324,-0.3625,-0.4161,-0.4356,-0.4556,-0.4894,-0.509,-0.5292,-0.5362,-0.5428,-0.5428,-0.5428,-0.5428,-0.5403,-0.5494,-0.5555,-0.563,-0.5715,-0.5772,-0.5772,-0.5711,-0.5711,-0.5677,-1.4726,0.0,0.0,-1.4743,-1.5357,-1.5927,-1.5601,-1.6342,-1.702,-1.6699,-1.6532,-1.6386,-1.5824,-1.5712,-1.5542,-1.5233,-1.5514,-1.5885,-1.6043,-1.6266,-1.6217,-1.5855,-1.607,-1.6058,-1.5533,-1.6166,-1.6762,-1.7198,-1.7697,-1.8057,-1.8149,-1.7885,-1.7346,-1.6163,-1.57,-1.5136,-1.4294,-1.4206,-1.4088,-1.4088,-1.4088,-1.3975,-1.3761,-1.3681,-1.3527,-1.332,-1.3385,-1.3379,-1.3404,-1.387,-1.4134,-1.4356,-1.4822,-1.5243,-1.5521,-1.5855,-1.6036,-1.6119,-1.6041,-1.598,-1.5798,-1.561,-1.4995,-1.4216,-1.3574,-1.2949,-1.2326,-1.1525,-1.0961,-1.039,-0.9246,-0.8509,-0.7847,-0.7188,-0.6777,-0.6536,-0.6536,-0.6454,-0.6369,-0.6329,-0.5764,-0.5146,-0.4657,-0.3682,-0.2824,-0.2383,-0.2257,-0.2283,-0.2481,-0.2696,-0.3057,-0.3599,-0.4004,-0.4341,-0.4681,-0.5051,-0.5277,-0.5484,-0.5484,-0.5484,-0.5484,-0.5484,-0.5535,-0.5647,-0.5691,-0.5762,-0.5864,-0.5908,-0.5905,-0.5864,-0.5864,-0.584,0.0,0.0,-1.594,-1.5851,-1.6483,-1.7099,-1.6955,-1.7486,-1.7898,-1.7215,-1.7031,-1.6714,-1.5899,-1.534,-1.5043,-1.4884,-1.5397,-1.5867,-1.5995,-1.6205,-1.6133,-1.558,-1.5405,-1.5292,0.0,-1.6352,-1.732,-1.8182,-1.8669,-1.9011,-1.9171,-1.9188,-1.8561,-1.7289,-1.6521,-1.568,-1.4843,-1.4392,-1.4088,-1.4088,-1.4088,-1.4082,-1.4062,-1.3774,-1.3641,-1.3532,-1.3333,-1.3351,-1.3488,-1.3724,-1.3937,-1.4291,-1.4988,-1.5368,-1.556,-1.607,-1.6271,-1.6246,-1.6133,-1.6155,-1.6226,-1.562,-1.4839,-1.3974,-1.3331,-1.2705,-1.208,-1.1445,-1.0961,-1.039,-0.9246,-0.8509,-0.7847,-0.7188,-0.6857,-0.6695,-0.6695,-0.6692,-0.6562,-0.626,-0.5663,-0.5058,-0.4474,-0.3521,-0.2662,-0.227,-0.1842,-0.1648,-0.1974,-0.2275,-0.2586,-0.2725,-0.3424,-0.405,-0.4466,-0.5142,-0.5578,-0.5789,-0.5786,-0.5786,-0.5786,-0.5786,-0.5789,-0.5793,-0.5939,-0.602,-0.6023,-0.6173,-0.6169,-0.6023,-0.6023,-0.5942,0.0,0.0,-1.7121,-1.739,-1.8285,-1.8888,-1.8606,-1.8882,-1.9119,-1.8453,-1.7811,-1.7009,-1.622,-1.5506,-1.5007,-1.4842,-1.529,-1.5746,-1.6067,-1.6226,-1.5982,-1.5413,-1.5509,0.0,0.0,0.0,0.0,-1.8605,-1.9318,-1.98,-2.0175,-1.9828,-1.9208,-1.8018,-1.7274,-1.6337,-1.521,-1.484,-1.444,-1.4088,-1.4088,-1.4088,-1.4082,-1.3981,-1.3941,-1.3935,-1.3834,-1.3674,-1.3568,-1.3817,-1.387,-1.3987,-1.4624,-1.4988,-1.521,-1.5787,-1.6215,-1.6475,-1.6561,-1.6489,-1.615,-1.5916,-1.5257,-1.4344,-1.3685,-1.3195,-1.2612,-1.1954,-1.1359,-1.0583,-0.9473,-0.8623,-0.7939,-0.7249,-0.6919,-0.6851,-0.6851,-0.6605,-0.6274,-0.5891,-0.5306,-0.4613,-0.3782,-0.2969,-0.2238,-0.1653,-0.1539,-0.1501,-0.161,-0.1808,-0.2086,-0.2374,-0.2949,-0.352,-0.4092,-0.4629,-0.5087,-0.5591,-0.5591,-0.5663,-0.58,-0.58,-0.5847,-0.5949,-0.6003,-0.6078,-0.6183,-0.6237,-0.6234,-0.6183,-0.6023,-0.5921,-1.6757,-1.7552,-1.8313,-1.8844,-1.9417,-1.9861,-1.9586,-1.9512,-1.9304,-1.8737,-1.7564,-1.6459,-1.5649,-1.4895,-1.4258,-1.4139,-1.4896,-1.5592,-1.5955,-1.6264,-1.6252,-1.542,-1.5606,0.0,0.0,0.0,0.0,-1.8759,-1.9557,-2.0096,-2.0529,-2.0292,-1.972,-1.8749,-1.799,-1.6914,-1.5722,-1.514,-1.462,-1.4088,-1.4088,-1.4088,-1.4088,-1.4088,-1.4088,-1.4088,-1.4088,-1.3891,-1.3629,-1.3801,-1.3784,-1.368,-1.4337,-1.4627,-1.4862,-1.5528,-1.6039,-1.6389,-1.673,-1.6683,-1.6348,-1.6085,-1.5325,-1.4482,-1.3815,-1.3222,-1.2711,-1.2032,-1.1419,-1.0549,-0.941,-0.8632,-0.8021,-0.7316,-0.7071,-0.692,-0.692,-0.6503,-0.6081,-0.5521,-0.4838,-0.405,-0.3299,-0.2532,-0.1861,-0.1356,-0.1403,-0.145,-0.1352,-0.1487,-0.1701,-0.2071,-0.2511,-0.3025,-0.376,-0.4237,-0.4704,-0.5152,-0.5374,-0.5522,-0.5593,-0.5741,-0.5858,-0.5954,-0.6033,-0.6159,-0.618,-0.618,-0.6103,-0.5948,-0.5786,-0.5631,-1.7858,-1.8663,-1.9446,-2.0102,-2.0062,-1.998,-1.9943,-1.9301,-1.8501,-1.7886,-1.6484,-1.5152,0.0,0.0,-1.2908,-1.2914,-1.4268,-1.541,-1.5779,-1.6473,-1.6654,0.0,0.0,0.0,0.0,0.0,0.0,-1.8724,0.0,-1.9957,-2.0339,-2.0564,-2.0283,-1.9279,-1.8494,-1.75,-1.6507,-1.5422,-1.4634,-1.4135,-1.4115,-1.4108,-1.4108,-1.4108,-1.4102,-1.4088,-1.4088,-1.3913,-1.3652,-1.3652,-1.3497,-1.3359,-1.4038,-1.431,-1.4342,-1.5292,-1.5831,-1.6124,-1.6581,-1.6686,-1.6566,-1.5899,-1.5068,-1.423,-1.3561,-1.2881,-1.2277,-1.1757,-1.1154,-1.0289,-0.9165,-0.856,-0.804,-0.734,-0.7074,-0.7074,-0.6815,-0.6364,-0.5877,-0.5239,-0.4169,-0.3277,-0.2955,-0.2148,-0.1547,-0.1303,-0.1277,-0.1335,-0.1335,-0.1232,-0.1366,-0.1746,-0.2199,-0.2726,-0.333,-0.394,-0.4462,-0.4623,-0.501,-0.5243,-0.5243,-0.5628,-0.5864,-0.5864,-0.6103,-0.6103,-0.5864,-0.5864,-0.5628,-0.5243,-0.5243,-0.501,-1.9025,-1.9771,-2.0439,-2.0771,-2.0805,-2.0649,-2.0063,-1.9301,-1.8339,-1.6967,-1.5839,-1.4684,0.0,0.0,0.0,-1.3163,-1.432,0.0,-1.6114,-1.6607,0.0,0.0,0.0,-1.6568,-1.6812,-1.7766,0.0,0.0,-1.9931,-2.0667,-2.0791,-2.0736,-2.0382,-1.9745,-1.8816,-1.7819,-1.6766,-1.5341,-1.4677,-1.4736,-1.4516,-1.4409,-1.4409,-1.4409,-1.4295,-1.4088,-1.3913,-1.3652,-1.3476,-1.313,-1.2917,-1.2868,-1.3184,-1.36,-1.3968,-1.4706,-1.5159,-1.5409,-1.5486,-1.5756,-1.5899,-1.5567,-1.4734,-1.3815,-1.3307,-1.2705,-1.1929,-1.1327,-1.0636,-0.9892,-0.9072,-0.8485,-0.7981,-0.7547,-0.7293,-0.7012,-0.6638,-0.6101,-0.5297,-0.4274,-0.3103,-0.2168,-0.2155,-0.167,-0.1384,-0.1303,-0.1277,-0.1335,-0.1335,-0.1251,-0.1402,-0.1635,-0.1867,-0.2252,-0.2719,-0.3122,-0.3602,-0.3997,-0.4226,-0.4538,-0.4854,-0.4932,-0.5165,-0.5476,-0.5395,-0.5395,-0.5473,-0.5165,-0.4932,-0.4854,-0.4538,-0.4304,-2.0313,-2.0721,-2.1098,-2.1139,-2.0842,-2.0383,-1.9577,-1.8495,-1.7303,-1.6046,-1.4869,0.0,0.0,0.0,0.0,0.0,0.0,0.0,-1.6312,-1.6914,-1.7187,0.0,-1.7033,0.0,-1.7293,-1.8177,-1.8861,0.0,-1.9821,-2.0342,-2.0357,-2.0192,-1.9828,-1.9471,-1.8527,-1.7535,-1.6408,-1.5431,-1.4923,-1.4963,-1.4796,-1.4716,-1.471,-1.4583,-1.4342,-1.4097,0.0,-1.3313,-1.2875,-1.2448,-1.2186,-1.21,-1.2186,-1.2528,-1.3045,-1.3633,-1.3977,-1.4237,-1.4321,-1.4398,-1.4468,-1.4727,-1.4139,-1.3307,-1.2881,-1.2277,-1.1607,-1.102,-1.0353,-0.978,-0.9076,-0.8574,-0.8047,-0.7667,-0.7308,-0.6835,-0.6172,-0.5462,-0.4475,-0.3147,-0.2252,-0.1763,-0.1675,-0.1446,-0.1322,-0.1322,-0.1285,-0.1335,-0.1335,-0.1335,-0.1415,-0.1572,-0.1728,-0.1884,-0.2199,-0.251,-0.2821,-0.3057,-0.337,-0.368,-0.3995,-0.4229,-0.4465,-0.4774,-0.4771,-0.4771,-0.4771,-0.4465,-0.4229,-0.3992,-0.368,-0.337,-2.1583,-2.158,-2.1528,-2.1204,-2.0466,-1.9622,-1.8751,-1.7312,-1.5909,-1.5038,0.0,-1.2932,-1.2595,0.0,-1.2192,-1.2908,0.0,-1.534,-1.6155,-1.6985,-1.7515,-1.7349,-1.7432,-1.7553,-1.7644,-1.8367,-1.8946,-1.9072,-1.9265,-1.942,-1.9479,-1.9196,-1.8912,-1.8542,-1.7885,-1.7008,-1.5841,-1.551,-1.5291,-1.5077,-1.5037,-1.4997,-1.4957,-1.4696,-1.4355,-1.4095,0.0,0.0,-1.2192,-1.1757,-1.1327,-1.1154,-1.1154,-1.1413,-1.1929,-1.2357,-1.2705,-1.2875,-1.313,-1.2875,-1.2699,-1.3633,-1.3379,-1.2796,-1.2404,-1.1807,-1.1076,-1.0696,-1.022,-0.9726,-0.9177,-0.8656,-0.8186,-0.7638,-0.708,-0.6513,-0.5648,-0.4685,-0.3517,-0.2145,-0.1828,-0.1712,-0.1441,-0.1393,-0.1352,-0.1264,-0.1299,-0.1262,-0.1336,-0.1335,-0.1336,-0.1572,-0.1572,-0.165,-0.1808,-0.2042,-0.2118,-0.2118,-0.2511,-0.2746,-0.2976,-0.337,-0.3682,-0.3912,-0.407,-0.407,-0.3912,-0.3682,-0.337,-0.2976,-0.2746,-0.2511,-2.2175,-2.2015,-2.1813,-2.1277,-2.0255,-1.9109,-1.7963,-1.6459,0.0,0.0,0.0,-1.2615,-1.2202,-1.2301,0.0,-1.2948,0.0,0.0,0.0,0.0,-1.6809,0.0,0.0,0.0,0.0,0.0,0.0,0.0,0.0,-1.8288,-1.892,-1.8719,-1.8156,-1.7326,-1.6951,-1.6466,-1.5853,-1.5518,-1.5491,-1.5678,-1.5438,-1.5197,-1.4963,-1.4724,-1.4171,-1.3461,-1.2814,0.0,-1.1413,-1.0809,-1.0381,-1.0212,-1.0381,-1.0722,-1.1241,-1.1671,-1.2015,-1.2186,-1.2015,-1.1843,-1.1666,-1.2613,-1.2443,-1.1882,-1.1745,-1.1274,-1.0701,-1.037,-0.9877,-0.9368,-0.8794,-0.8446,-0.809,-0.7435,-0.6674,-0.5884,-0.5085,-0.3746,-0.2619,-0.2287,-0.1867,-0.1565,-0.1472,-0.1423,-0.1375,-0.1267,-0.1318,-0.1286,-0.1339,-0.1335,-0.1335,-0.1335,-0.1335,-0.1336,-0.1415,-0.1571,-0.1728,-0.1728,-0.1964,-0.212,-0.2352,-0.243,-0.2666,-0.2981,-0.2902,-0.2902,-0.3059,-0.2666,-0.243,-0.2352,-0.212,-0.1964,-2.233,-2.2129,-2.1859,-2.1047,-1.9888,-1.8623,-1.7202,0.0,0.0,0.0,0.0,-1.2675,-1.252,0.0,0.0,0.0,0.0,0.0,0.0,0.0,0.0,0.0,0.0,0.0,0.0,0.0,0.0,0.0,0.0,0.0,-1.7986,-1.78,-1.7333,-1.6588,-1.6494,-1.6211,-1.5832,-1.5538,-1.5464,-1.5605,-1.5311,-1.5097,-1.4957,-1.4619,-1.395,-1.3163,-1.2502,0.0,-1.0722,-1.0207,-0.9777,-0.9607,-0.9607,-0.9864,-1.0294,-1.0636,-1.0809,-1.0982,-1.0982,-1.0722,-1.0482,-1.104,-1.1164,-1.1103,-1.0944,-1.061,-1.0283,-1.0019,-0.9695,-0.9267,-0.8863,-0.8318,-0.7743,-0.6921,-0.5837,-0.4736,-0.4133,-0.3279,-0.2543,-0.2424,-0.2079,-0.1851,-0.1759,-0.1609,-0.1559,-0.1371,-0.1345,-0.1315,-0.1285,-0.1281,-0.1275,-0.1338,-0.1335,-0.1335,-0.1335,-0.1415,-0.1415,-0.1415,-0.1572,-0.1659,-0.1919,-0.192,-0.1999,-0.2318,-0.2237,-0.2225,-0.2357,-0.2042,-0.1896,-0.192,-0.1681,-0.1531,-2.2215,-2.2063,-2.1674,-2.0679,-1.9412,-1.8036,-1.6422,-1.4864,0.0,0.0,-1.2715,-1.281,-1.3086,0.0,0.0,0.0,0.0,0.0,0.0,0.0,0.0,0.0,0.0,0.0,0.0,0.0,0.0,0.0,0.0,0.0,-1.7052,-1.6878,-1.6602,-1.613,-1.6062,-1.5934,-1.5738,-1.5444,-1.5304,-1.5304,-1.507,-1.493,-1.4856,-1.4272,-1.3686,-1.2913,-1.2095,0.0,0.0,-0.9602,-0.9345,-0.9174,-0.8999,-0.9087,-0.9515,-0.9689,-0.9777,-0.9873,-1.009,-0.9842,-0.9522,-0.9728,-1.0035,-1.0376,-1.0194,-1.0145,-1.0023,-0.9836,-0.9505,-0.915,-0.8693,-0.8028,-0.7129,-0.6134,-0.4834,-0.3732,-0.3331,-0.2993,-0.2763,-0.2566,-0.24,-0.2153,-0.2051,-0.1897,-0.1757,-0.1479,-0.1371,-0.1346,-0.1316,-0.1312,-0.1303,-0.1279,-0.1265,-0.1335,-0.1335,-0.1263,-0.1267,-0.1267,-0.1273,-0.1368,-0.1557,-0.1559,-0.1639,-0.1801,-0.1801,-0.1786,-0.1756,-0.1597,-0.1531,-0.1559,-0.1394,-0.1325,-2.2138,-2.1835,-2.1323,-2.0182,-1.8788,-1.7183,-1.5579,0.0,0.0,-1.2807,-1.2715,-1.2848,-1.3438,-1.3455,0.0,0.0,0.0,0.0,0.0,0.0,0.0,0.0,0.0,0.0,0.0,0.0,0.0,0.0,0.0,0.0,-1.6319,-1.6319,-1.6123,-1.5832,-1.5571,-1.5438,-1.5438,-1.515,-1.5003,-1.5003,-1.4977,-1.4823,-1.4556,-1.3824,-1.3144,-1.2392,-1.1251,0.0,0.0,-0.917,-0.8823,-0.8656,-0.8823,-0.8911,-0.8999,-0.9262,-0.9345,-0.9371,-0.9553,-0.9431,-0.9276,-0.9376,-0.9509,-0.9622,-0.9973,-0.9893,-0.9744,-0.9938,-0.96,-0.9015,-0.8233,-0.7434,-0.6431,-0.4634,-0.3934,-0.3534,-0.323,-0.3024,-0.2819,-0.2819,-0.2573,-0.233,-0.2291,-0.2055,-0.1817,-0.1748,-0.1561,-0.1376,-0.1347,-0.126,-0.1259,-0.134,-0.129,-0.1335,-0.1335,-0.1283,-0.1299,-0.1299,-0.1324,-0.1341,-0.1343,-0.1343,-0.1343,-0.1343,-0.1343,-0.1342,-0.1339,-0.1339,-0.1341,-0.1343,-0.1343,-0.1261,-2.0818,-2.08,-2.0651,-1.9751,-1.8513,-1.7073,-1.5469,0.0,0.0,-1.2853,-1.3111,-1.3433,-1.3573,-1.3669,-1.3773,0.0,0.0,0.0,0.0,0.0,0.0,0.0,0.0,0.0,0.0,0.0,0.0,0.0,0.0,0.0,-1.5927,-1.5927,-1.5846,-1.5571,-1.5458,-1.5311,-1.5137,-1.4843,-1.4696,-1.4696,-1.4522,-1.4376,-1.4255,-1.3649,-1.2979,-1.21,-1.1241,0.0,0.0,-0.9087,-0.874,-0.8568,-0.8652,-0.8806,-0.8897,-0.8983,-0.9058,-0.9167,-0.9242,-0.9171,-0.92,-0.9378,-0.93,-0.9267,-0.9602,-0.953,-0.9437,-0.9509,-0.9034,-0.8336,-0.764,-0.6437,-0.5037,-0.4036,-0.3533,-0.3332,-0.323,-0.313,-0.3029,-0.3029,-0.2882,-0.274,-0.2623,-0.2458,-0.2302,-0.2083,-0.1787,-0.1671,-0.1635,-0.1459,-0.1367,-0.1265,-0.1326,-0.1311,-0.1311,-0.1323,-0.133,-0.133,-0.1341,-0.1356,-0.1372,-0.1373,-0.1373,-0.1373,-0.1373,-0.1365,-0.1263,-0.1263,-0.1356,-0.1373,-0.1373,-0.1383,-1.9583,-1.9855,-1.9859,-1.8971,-1.7853,-1.6569,0.0,0.0,0.0,-1.2965,-1.3396,-1.3796,-1.3798,-1.3874,-1.389,0.0,0.0,0.0,0.0,0.0,0.0,0.0,0.0,0.0,0.0,0.0,0.0,0.0,0.0,0.0,0.0,-1.5618,-1.5518,-1.5398,-1.5231,-1.5037,-1.4836,-1.4543,-1.4396,-1.4389,-1.4182,-1.4088,-1.4088,-1.3568,-1.2875,-1.21,0.0,0.0,0.0,-0.8999,-0.874,-0.8568,-0.8568,-0.867,-0.882,-0.8729,-0.8846,-0.9007,-0.8969,-0.8985,-0.9017,-0.9184,-0.9046,-0.8851,-0.8949,-0.8935,-0.8935,-0.8836,-0.8137,-0.7135,-0.6637,-0.5338,-0.4036,-0.3635,-0.3332,-0.323,-0.323,-0.323,-0.323,-0.323,-0.3195,-0.3062,-0.2946,-0.2782,-0.2633,-0.2336,-0.2018,-0.1802,-0.1863,-0.1585,-0.1396,-0.1376,-0.1288,-0.1281,-0.1265,-0.1356,-0.136,-0.136,-0.1369,-0.1382,-0.1402,-0.1403,-0.1403,-0.1403,-0.1403,-0.1394,-0.1288,-0.1288,-0.1384,-0.1403,-0.1403,-0.1414,-1.8764,-1.8929,-1.875,-1.7788,-1.6606,-1.5386,0.0,0.0,0.0,-1.3286,-1.3477,-1.3762,-1.4186,-1.401,-1.383,-1.383,0.0,0.0,0.0,0.0,0.0,0.0,0.0,0.0,0.0,0.0,0.0,0.0,0.0,0.0,0.0,-1.513,-1.5104,-1.5391,-1.4836,-1.4529,-1.4522,-1.4235,-1.4088,-1.4088,-1.4088,-1.4088,-1.4088,-1.3398,-1.2881,0.0,0.0,0.0,0.0,-0.9082,-0.874,-0.8568,-0.8568,-0.867,-0.8729,-0.8458,-0.8567,-0.8734,-0.8626,-0.859,-0.8616,-0.8769,-0.8627,-0.8333,-0.8134,-0.8233,-0.8333,-0.8038,-0.6836,-0.5534,-0.4935,-0.4236,-0.3534,-0.323,-0.323,-0.323,-0.323,-0.323,-0.323,-0.323,-0.323,-0.321,-0.315,-0.2942,-0.2727,-0.2674,-0.2248,-0.1943,-0.1943,-0.1636,-0.1435,-0.1434,-0.1434,-0.1411,-0.1269,-0.1373,-0.139,-0.139,-0.1418,-0.1435,-0.1435,-0.1435,-0.1435,-0.1435,-0.1435,-0.1435,-0.1434,-0.1434,-0.1435,-0.1435,-0.1435,-0.1435,-1.7166,-1.743,-1.7497,-1.6536,-1.5771,-1.4964,-1.3754,0.0,0.0,-1.3351,-1.3723,-1.4105,-1.4112,-1.395,-1.3709,-1.3476,-1.3111,0.0,0.0,0.0,0.0,0.0,0.0,0.0,0.0,0.0,0.0,0.0,0.0,0.0,0.0,-1.4823,-1.4703,-1.4796,-1.4616,-1.4429,-1.4229,-1.4135,-1.4088,-1.4088,-1.4088,-1.4088,-1.4088,-1.3652,0.0,0.0,0.0,0.0,0.0,-0.9082,-0.874,-0.8576,-0.8694,-0.8754,-0.8737,-0.8765,-0.863,-0.8485,-0.8441,-0.8361,-0.8174,-0.8014,-0.7832,-0.7537,-0.7036,-0.7235,-0.7434,-0.6637,-0.5734,-0.4935,-0.4433,-0.3934,-0.3534,-0.323,-0.323,-0.323,-0.323,-0.323,-0.323,-0.323,-0.323,-0.3224,-0.3206,-0.3067,-0.3034,-0.3016,-0.2487,-0.2163,-0.2134,-0.1748,-0.1458,-0.1438,-0.1436,-0.1428,-0.1409,-0.1416,-0.1421,-0.1421,-0.143,-0.1436,-0.1436,-0.1436,-0.1436,-0.1436,-0.1436,-0.1436,-0.1436,-0.1436,-0.1436,-0.1436,-0.1076,-0.0987,0.0,-1.593,-1.603,-1.5237,-1.4708,0.0,0.0,0.0,0.0,0.0,-1.3648,-1.3969,-1.3983,-1.3778,-1.3536,-1.3302,-1.2997,0.0,0.0,0.0,0.0,0.0,0.0,0.0,0.0,0.0,0.0,0.0,0.0,0.0,0.0,-1.4516,-1.4355,-1.4355,-1.4355,-1.4269,-1.4088,-1.4088,-1.4088,-1.4088,-1.4088,-1.4088,-1.4088,-1.3822,0.0,0.0,0.0,0.0,0.0,-0.9257,-0.8915,-0.8576,-0.8682,-0.8691,-0.8722,-0.8646,-0.8344,-0.7935,-0.7733,-0.7434,-0.7036,-0.6933,-0.6634,-0.6237,-0.5737,-0.5937,-0.6137,-0.5336,-0.4736,-0.4236,-0.3934,-0.3633,-0.3433,-0.323,-0.323,-0.323,-0.323,-0.323,-0.323,-0.323,-0.323,-0.323,-0.323,-0.3199,-0.3174,-0.3174,-0.2635,-0.2304,-0.2275,-0.1868,-0.1473,-0.1455,-0.1442,-0.1436,-0.1436,-0.1436,-0.1436,-0.1436,-0.1436,-0.1436,-0.1436,-0.1436,-0.1436,-0.1436,-0.1436,-0.1436,-0.1436,-0.1436,-0.1351,-0.1089,-0.0998,-0.0911,0.0,0.0,0.0,0.0,0.0,0.0,0.0,0.0,0.0,0.0,0.0,0.0,0.0,-1.3597,-1.3241,-1.3241,-1.2891,0.0,0.0,0.0,0.0,0.0,0.0,0.0,0.0,0.0,0.0,0.0,0.0,0.0,0.0,-1.4235,-1.4088,-1.4088,-1.4088,-1.4088,-1.4088,-1.4088,-1.4088,-1.4088,-1.4088,-1.4088,-1.4088,-1.3822,0.0,0.0,0.0,0.0,0.0,-0.9432,-0.8999,-0.8568,-0.8597,-0.8619,-0.8617,-0.8085,-0.7604,-0.7138,-0.6537,-0.6034,-0.5634,-0.5536,-0.5236,-0.4736,-0.4437,-0.4537,-0.4636,-0.4438,-0.3937,-0.3534,-0.3534,-0.3433,-0.323,-0.323,-0.323,-0.323,-0.323,-0.323,-0.323,-0.323,-0.323,-0.323,-0.323,-0.323,-0.323,-0.323,-0.2783,-0.2455,-0.2452,-0.1901,-0.1578,-0.1574,-0.1455,-0.1438,-0.1436,-0.1436,-0.1436,-0.1436,-0.1436,-0.1436,-0.1438,-0.1438,-0.144,-0.1442,-0.1442,-0.1442,-0.1442,-0.1442,-0.1183,-0.0742,-0.1205,-0.1218,-1.2849,0.0,-1.37,-1.3111,-1.2936,0.0,0.0,0.0,0.0,0.0,0.0,0.0,0.0,0.0,0.0,0.0,0.0,0.0,0.0,0.0,0.0,0.0,0.0,0.0,0.0,0.0,0.0,0.0,0.0,0.0,0.0,-1.4122,-1.4088,-1.4088,-1.4088,-1.4088,-1.4088,-1.4088,-1.4088,-1.4088,-1.4088,-1.4088,-1.4088,-1.3822,0.0,0.0,0.0,0.0,-0.9951,-0.9519,-0.8999,-0.8597,-0.8865,-0.8741,-0.8367,-0.833,-0.7681,-0.6842,-0.6537,-0.6034,-0.5536,-0.5338,-0.4939,-0.4437,-0.4438,-0.4137,-0.3836,-0.3836,-0.3534,-0.3331,-0.3331,-0.323,-0.323,-0.323,-0.323,-0.323,-0.323,-0.323,-0.323,-0.323,-0.323,-0.323,-0.323,-0.323,-0.323,-0.323,-0.2916,-0.2692,-0.2752,-0.2433,-0.2105,-0.1857,-0.1751,-0.1643,-0.1438,-0.1436,-0.1436,-0.1436,-0.1436,-0.1446,-0.1469,-0.147,-0.1481,-0.1504,-0.1505,-0.1505,-0.1505,-0.141,-0.1319,-0.1231,-0.1421,-0.1329,-1.2372,-1.2549,-1.2785,-1.2503,-1.2397,-1.2439,0.0,0.0,0.0,0.0,0.0,0.0,0.0,0.0,0.0,0.0,0.0,0.0,0.0,0.0,0.0,0.0,0.0,0.0,0.0,0.0,0.0,0.0,0.0,0.0,0.0,-1.4088,-1.4088,-1.4088,-1.4088,-1.4088,-1.4088,-1.4088,-1.4088,-1.4088,-1.4088,-1.4088,-1.4088,-1.3822,-1.3307,0.0,0.0,0.0,-0.9777,-0.9345,-0.8915,-0.8597,-0.8865,-0.8648,-0.8276,-0.8136,-0.7384,-0.6342,-0.5939,-0.5436,-0.4834,-0.4736,-0.4437,-0.4236,-0.4236,-0.4036,-0.3734,-0.3635,-0.3433,-0.323,-0.323,-0.323,-0.323,-0.323,-0.323,-0.323,-0.323,-0.323,-0.323,-0.323,-0.323,-0.323,-0.323,-0.323,-0.323,-0.323,-0.2927,-0.2815,-0.2787,-0.2563,-0.2335,-0.2191,-0.2076,-0.1963,-0.1663,-0.1662,-0.1563,-0.1457,-0.1456,-0.147,-0.15,-0.1502,-0.1509,-0.1525,-0.1526,-0.1335,-0.1144,-0.0858,-0.0862,-0.1063,-0.116,-0.1166,-1.2274,-1.2126,-1.2045,-1.2149,-1.2168,-1.2269,0.0,0.0,0.0,0.0,0.0,0.0,0.0,0.0,0.0,0.0,0.0,0.0,0.0,0.0,0.0,0.0,0.0,0.0,0.0,0.0,0.0,0.0,0.0,0.0,0.0,-1.4088,-1.4088,-1.4088,-1.4088,-1.4088,-1.4088,-1.4088,-1.4088,-1.4088,-1.4088,-1.4088,-1.4088,-1.3737,-1.3137,0.0,0.0,0.0,-0.9602,-0.9082,-0.8823,-0.8673,-0.8783,-0.8674,-0.8265,-0.7973,-0.7042,-0.5942,-0.5441,-0.4738,-0.4234,-0.4234,-0.4234,-0.4234,-0.4234,-0.4133,-0.4033,-0.3836,-0.3534,-0.323,-0.323,-0.323,-0.323,-0.323,-0.323,-0.323,-0.323,-0.323,-0.323,-0.323,-0.323,-0.323,-0.323,-0.323,-0.323,-0.323,-0.3027,-0.2826,-0.2826,-0.2687,-0.246,-0.2452,-0.2418,-0.2297,-0.2004,-0.2004,-0.1896,-0.159,-0.149,-0.1501,-0.1532,-0.1538,-0.154,-0.154,-0.154,-0.1251,-0.0577,-0.0096,-0.0097,-0.0394,-0.0592,-0.0895,-1.1877,-1.1778,-1.1858,-1.2241,-1.233,-1.2429,0.0,0.0,0.0,0.0,0.0,0.0,0.0,0.0,0.0,0.0,0.0,0.0,0.0,0.0,0.0,0.0,0.0,0.0,0.0,0.0,0.0,0.0,0.0,0.0,0.0,-1.4088,-1.4088,-1.4088,-1.4088,-1.4088,-1.4088,-1.4088,-1.4088,-1.4088,-1.4088,-1.4088,-1.4088,-1.3483,-1.2881,0.0,0.0,-1.0294,-0.9602,-0.9082,-0.8911,-0.8857,-0.9017,-0.8877,-0.8464,-0.8094,-0.7319,-0.6237,-0.5441,-0.514,-0.5039,-0.5236,-0.5336,-0.5336,-0.5039,-0.4836,-0.4636,-0.4338,-0.3937,-0.3534,-0.323,-0.323,-0.323,-0.323,-0.323,-0.323,-0.323,-0.323,-0.323,-0.323,-0.323,-0.323,-0.323,-0.323,-0.323,-0.323,-0.313,-0.313,-0.313,-0.3122,-0.2997,-0.2751,-0.274,-0.262,-0.2294,-0.2194,-0.2111,-0.1946,-0.1629,-0.1533,-0.1563,-0.159,-0.1603,-0.1603,-0.1603,-0.1102,-0.01,-0.0,0.0401,0.1207,0.0302,-0.0201,-1.1769,-1.1728,-1.182,-1.2369,-1.2414,-1.2423,0.0,0.0,0.0,0.0,0.0,0.0,0.0,0.0,0.0,0.0,0.0,0.0,0.0,0.0,0.0,0.0,0.0,0.0,0.0,0.0,0.0,0.0,0.0,0.0,0.0,0.0,-1.3774,-1.3621,-1.3614,-1.3614,-1.3614,-1.3768,-1.3928,-1.4088,-1.4088,-1.3997,-1.3913,-1.3313,-1.2711,-1.1929,0.0,-1.012,-0.9602,-0.9082,-0.8999,-0.9112,-0.9306,-0.9099,-0.8753,-0.7926,-0.6939,-0.6139,-0.5636,-0.5438,-0.5438,-0.5536,-0.5636,-0.5536,-0.5438,-0.5238,-0.4937,-0.4736,-0.4236,-0.3734,-0.3534,-0.3433,-0.3332,-0.323,-0.323,-0.323,-0.323,-0.323,-0.323,-0.323,-0.323,-0.323,-0.323,-0.323,-0.323,-0.323,-0.323,-0.323,-0.323,-0.323,-0.3119,-0.2992,-0.2989,-0.288,-0.256,-0.2558,-0.236,-0.2063,-0.1672,-0.1581,-0.1596,-0.1609,-0.1617,-0.1617,-0.1212,-0.0606,0.0303,0.0909,0.1314,0.1617,0.111,0.0908,-1.1628,-1.1578,-1.1754,-1.2364,0.0,0.0,0.0,0.0,0.0,0.0,0.0,0.0,0.0,0.0,0.0,0.0,0.0,0.0,0.0,0.0,0.0,0.0,0.0,0.0,0.0,0.0,0.0,0.0,0.0,0.0,0.0,0.0,-1.344,-1.322,-1.3213,-1.3213,-1.3213,-1.3427,-1.3687,-1.3981,-1.4055,-1.3913,-1.3652,-1.3137,-1.2448,-1.1499,-1.0636,-0.9951,-0.9515,-0.917,-0.92,-0.9438,-0.9543,-0.9301,-0.8771,-0.7651,-0.6739,-0.6039,-0.5737,-0.5737,-0.5737,-0.5737,-0.5837,-0.5737,-0.5737,-0.5539,-0.534,-0.5035,-0.4634,-0.4236,-0.3835,-0.3635,-0.3534,-0.3332,-0.323,-0.323,-0.323,-0.323,-0.323,-0.323,-0.323,-0.323,-0.323,-0.323,-0.323,-0.323,-0.323,-0.323,-0.323,-0.323,-0.323,-0.323,-0.323,-0.313,-0.2927,-0.2826,-0.2609,-0.2177,-0.1904,-0.1718,-0.1718,-0.1617,-0.1516,-0.1415,-0.0606,0.0101,0.0707,0.1818,0.2122,0.1818,0.1816,0.1917,-1.1226,-1.1217,-1.1447,-1.2091,0.0,0.0,0.0,0.0,0.0,0.0,0.0,0.0,0.0,0.0,0.0,0.0,0.0,0.0,0.0,0.0,0.0,0.0,0.0,0.0,0.0,0.0,0.0,0.0,0.0,0.0,0.0,0.0,0.0,-1.3213,-1.3213,-1.3213,-1.3213,-1.3233,-1.3387,-1.3681,-1.3955,-1.3828,-1.3398,-1.2711,-1.1929,-1.0982,-1.0294,-0.9781,-0.9345,-0.9257,-0.9544,-0.9822,-0.9833,-0.937,-0.8693,-0.7627,-0.6836,-0.6337,-0.6039,-0.5942,-0.6042,-0.6237,-0.6337,-0.6337,-0.6039,-0.5942,-0.5842,-0.5636,-0.5338,-0.4939,-0.4133,-0.3835,-0.3636,-0.3536,-0.3332,-0.323,-0.323,-0.323,-0.323,-0.323,-0.323,-0.323,-0.323,-0.323,-0.323,-0.323,-0.323,-0.323,-0.323,-0.323,-0.323,-0.323,-0.323,-0.323,-0.313,-0.2927,-0.2825,-0.272,-0.2221,-0.2022,-0.2022,-0.1718,-0.1415,-0.0909,0.0202,0.0808,0.1111,0.212,0.2624,0.2624,0.2623,0.2826,-1.1226,-1.1124,-1.1302,-1.1927,0.0,0.0,0.0,0.0,0.0,0.0,0.0,0.0,0.0,0.0,0.0,0.0,0.0,0.0,0.0,0.0,0.0,0.0,0.0,0.0,0.0,0.0,0.0,0.0,0.0,0.0,0.0,0.0,0.0,-1.2494,-1.2342,-1.2266,-1.2266,-1.2454,-1.2603,-1.2713,-1.3336,-1.3484,-1.3222,-1.2448,-1.1671,-1.0722,-1.0207,-0.9777,-0.9529,-0.9655,-0.9844,-1.0125,-0.989,-0.9232,-0.8485,-0.7697,-0.7036,-0.6337,-0.6237,-0.6239,-0.6237,-0.6337,-0.6437,-0.6337,-0.6237,-0.6139,-0.5942,-0.5839,-0.5639,-0.5336,-0.4634,-0.4336,-0.4038,-0.3635,-0.3534,-0.3433,-0.323,-0.323,-0.323,-0.323,-0.323,-0.323,-0.323,-0.323,-0.323,-0.323,-0.323,-0.323,-0.323,-0.323,-0.323,-0.323,-0.323,-0.323,-0.323,-0.313,-0.3027,-0.2826,-0.2323,-0.2022,-0.2123,-0.1516,-0.0707,0.0202,0.0707,0.1515,0.2424,0.2624,0.2725,0.2725,0.2927,0.3027,-1.1175,-1.1107,-1.1289,0.0,0.0,0.0,0.0,0.0,0.0,0.0,0.0,0.0,0.0,0.0,0.0,0.0,0.0,0.0,0.0,0.0,0.0,0.0,0.0,0.0,0.0,0.0,0.0,0.0,0.0,0.0,0.0,0.0,0.0,0.0,-1.1706,-1.1558,-1.1484,-1.169,-1.1833,-1.1927,-1.2295,-1.2492,-1.2584,-1.198,-1.1154,-1.0294,-1.0033,-0.9689,-0.9533,-0.992,-1.0171,-1.0412,-0.9988,-0.9332,-0.8661,-0.7888,-0.7132,-0.6539,-0.6437,-0.6437,-0.6437,-0.6437,-0.6437,-0.6437,-0.6437,-0.6237,-0.6139,-0.6139,-0.5939,-0.5636,-0.5238,-0.4836,-0.4438,-0.3937,-0.3736,-0.3534,-0.3332,-0.323,-0.323,-0.323,-0.323,-0.323,-0.323,-0.323,-0.323,-0.323,-0.323,-0.323,-0.323,-0.323,-0.323,-0.323,-0.313,-0.3029,-0.3029,-0.3029,-0.2927,-0.2826,-0.2121,-0.1718,-0.1921,-0.101,-0.0101,0.0909,0.1414,0.2121,0.3029,0.2927,0.2927,0.2927,0.323,0.323,-1.1023,-1.1083,0.0,0.0,0.0,0.0,0.0,0.0,0.0,0.0,0.0,0.0,0.0,0.0,0.0,0.0,0.0,0.0,0.0,0.0,0.0,0.0,0.0,0.0,0.0,0.0,0.0,0.0,0.0,0.0,0.0,0.0,0.0,0.0,-1.1484,-1.126,-1.1111,-1.0887,-1.0942,-1.1278,-1.0812,-1.0913,-1.1566,-1.1129,-1.0463,-0.9602,-0.9602,-0.9519,-0.9362,-1.0009,-1.0523,-1.0819,-1.024,-0.9719,-0.9114,-0.8028,-0.7235,-0.6742,-0.6537,-0.6437,-0.6437,-0.6437,-0.6437,-0.6437,-0.6437,-0.6437,-0.6437,-0.6437,-0.6239,-0.6042,-0.6042,-0.5438,-0.4736,-0.4437,-0.4038,-0.3636,-0.3636,-0.3433,-0.323,-0.323,-0.323,-0.323,-0.323,-0.323,-0.323,-0.323,-0.323,-0.323,-0.323,-0.323,-0.323,-0.323,-0.2927,-0.2826,-0.2826,-0.2725,-0.2724,-0.2724,-0.1716,-0.1111,-0.1212,-0.0404,0.0404,0.1212,0.2221,0.2725,0.2826,0.3029,0.323,0.323,0.3433,0.3636,-1.0769,-1.0769,0.0,0.0,0.0,0.0,0.0,0.0,0.0,0.0,0.0,0.0,0.0,0.0,0.0,0.0,0.0,0.0,0.0,0.0,0.0,0.0,0.0,0.0,0.0,0.0,0.0,0.0,0.0,0.0,0.0,0.0,0.0,0.0,-1.0738,-1.0438,-1.0293,-1.0067,-1.003,-1.0106,-0.9886,-1.0195,-1.0974,-1.0475,-0.9989,-0.9406,-0.9543,-0.9519,-0.9371,-1.0157,-1.0645,-1.0819,-1.024,-0.9719,-0.9114,-0.8028,-0.7235,-0.6742,-0.6537,-0.6437,-0.6437,-0.6437,-0.6437,-0.6437,-0.6437,-0.6437,-0.6437,-0.6437,-0.6337,-0.6239,-0.6042,-0.5839,-0.5438,-0.4836,-0.4437,-0.4036,-0.3635,-0.3534,-0.3433,-0.323,-0.323,-0.313,-0.2927,-0.2927,-0.2826,-0.2623,-0.2623,-0.2623,-0.2623,-0.2623,-0.2724,-0.2826,-0.2826,-0.2623,-0.2522,-0.1917,-0.1412,-0.1212,-0.0808,-0.0707,-0.0909,-0.0,0.101,0.1921,0.2122,0.2323,0.2522,0.2623,0.2623,0.2623,0.2725,0.2826,-1.0514,0.0,0.0,0.0,0.0,0.0,0.0,0.0,0.0,0.0,0.0,0.0,0.0,0.0,0.0,0.0,0.0,0.0,0.0,0.0,0.0,0.0,0.0,0.0,0.0,0.0,0.0,0.0,0.0,0.0,0.0,0.0,0.0,0.0,-1.0218,-0.9841,-0.9539,-0.9236,-0.9089,-0.9089,-0.8995,-0.9194,-0.9642,-0.9635,-0.939,-0.9065,-0.9347,-0.9565,-0.9748,-1.0262,-1.0631,-1.0815,-1.0153,-0.9555,-0.9114,-0.8028,-0.7235,-0.6742,-0.6537,-0.6437,-0.6437,-0.6437,-0.6437,-0.6437,-0.6437,-0.6437,-0.6437,-0.6437,-0.6337,-0.6239,-0.6042,-0.5842,-0.5541,-0.5037,-0.4638,-0.4237,-0.3734,-0.3432,-0.323,-0.2927,-0.2927,-0.2927,-0.2826,-0.2724,-0.2623,-0.2422,-0.2422,-0.2422,-0.2422,-0.2422,-0.232,-0.2118,-0.1917,-0.1716,-0.1615,-0.1009,-0.0505,-0.0101,0.0202,0.0303,0.0202,0.0808,0.1415,0.2123,0.2022,0.2122,0.2422,0.2422,0.2422,0.2422,0.2422,0.2522,0.0,0.0,0.0,0.0,0.0,0.0,0.0,0.0,0.0,0.0,0.0,0.0,0.0,0.0,0.0,0.0,0.0,0.0,0.0,0.0,0.0,0.0,0.0,0.0,0.0,0.0,0.0,0.0,0.0,0.0,0.0,0.0,0.0,-1.0443,-0.9846,-0.9311,-0.8927,-0.8551,-0.8327,0.0,-0.8178,-0.8025,-0.8124,-0.8664,-0.8843,-0.8632,-0.9087,-0.9712,-1.0249,-1.0267,-1.0499,-1.0744,-1.001,-0.9542,-0.9095,-0.8024,-0.7335,-0.6842,-0.6537,-0.6437,-0.6437,-0.6437,-0.6437,-0.6437,-0.6437,-0.6437,-0.6437,-0.6437,-0.6239,-0.6042,-0.5942,-0.5541,-0.514,-0.514,-0.474,-0.4236,-0.3731,-0.3228,-0.2725,-0.2422,-0.2522,-0.2522,-0.2522,-0.2321,-0.222,-0.222,-0.222,-0.222,-0.222,-0.222,-0.1917,-0.1109,-0.0606,-0.0404,-0.0202,-0.0,0.0303,0.0606,0.1212,0.1617,0.1617,0.1617,0.1718,0.1921,0.1921,0.2121,0.2321,0.2321,0.2321,0.2321,0.2321,0.2321,0.0,0.0,0.0,0.0,0.0,0.0,0.0,0.0,0.0,0.0,0.0,0.0,0.0,0.0,0.0,0.0,0.0,0.0,0.0,0.0,0.0,0.0,0.0,0.0,0.0,0.0,0.0,0.0,0.0,0.0,0.0,0.0,0.0,-0.9846,-0.9236,-0.8703,-0.8327,-0.803,-0.7953,0.0,-0.7718,-0.7718,-0.7889,-0.8149,-0.8509,-0.8887,-0.9174,-0.9634,-1.0119,-1.0206,-1.0324,-1.0438,-1.0103,-0.9669,-0.9135,-0.8287,-0.7537,-0.7039,-0.6537,-0.6437,-0.6437,-0.6437,-0.6437,-0.6437,-0.6437,-0.6437,-0.6437,-0.6437,-0.6239,-0.5942,-0.5737,-0.5336,-0.4734,-0.4334,-0.4133,-0.4034,-0.3836,-0.3432,-0.2927,-0.2522,-0.1916,-0.1311,-0.101,-0.0909,-0.0808,-0.0505,-0.0505,-0.0505,-0.0505,-0.0505,-0.0404,-0.0303,0.0101,0.0505,0.1111,0.1212,0.1313,0.1314,0.1516,0.1617,0.1617,0.1617,0.1617,0.1718,0.1718,0.1718,0.1818,0.1818,0.1818,0.1818,0.1818,0.192,0.0,0.0,0.0,0.0,0.0,0.0,0.0,0.0,0.0,0.0,0.0,0.0,0.0,0.0,0.0,0.0,0.0,0.0,0.0,0.0,0.0,0.0,0.0,0.0,0.0,0.0,0.0,0.0,0.0,0.0,0.0,-1.1111,-1.0438,-0.962,-0.8932,-0.8327,-0.7953,-0.7718,-0.7642,-0.7642,-0.7561,-0.7642,-0.7812,-0.8242,-0.869,-0.915,-0.9347,-0.9689,-1.0047,-1.0074,-1.0178,-1.0305,-1.0157,-0.9759,-0.918,-0.8474,-0.7736,-0.7138,-0.6537,-0.6437,-0.6437,-0.6437,-0.6437,-0.6437,-0.6437,-0.6437,-0.6337,-0.6239,-0.5942,-0.5541,-0.5138,-0.4836,-0.4435,-0.3732,-0.3734,-0.3835,-0.3331,-0.2524,-0.1817,-0.1312,-0.0908,-0.0505,-0.0101,0.0303,0.0606,0.0707,0.0808,0.0808,0.0808,0.0808,0.0808,0.0808,0.0909,0.1212,0.1617,0.1617,0.1617,0.1617,0.1617,0.1617,0.1617,0.1617,0.1617,0.1617,0.1617,0.1617,0.1617,0.1617,0.1617,0.1617,0.1632,0.1741,0.0,0.0,0.0,0.0,0.0,0.0,0.0,0.0,0.0,0.0,0.0,0.0,0.0,0.0,0.0,0.0,0.0,0.0,0.0,0.0,0.0,0.0,0.0,0.0,0.0,0.0,0.0,0.0,0.0,0.0,-1.1706,-1.1111,-1.0438,-0.962,-0.8784,-0.8178,-0.7804,-0.7565,-0.7484,-0.7484,-0.7561,-0.7718,-0.7889,-0.8471,-0.8904,-0.9274,-0.9506,-0.9777,-1.0038,-1.0038,-1.0143,-1.0239,-1.0168,-0.9805,-0.9232,-0.8626,-0.7912,-0.7235,-0.6637,-0.6437,-0.6437,-0.6437,-0.6437,-0.6437,-0.6437,-0.6437,-0.6337,-0.6042,-0.5641,-0.5041,-0.464,-0.4338,-0.3934,-0.313,-0.3131,-0.3334,-0.2928,-0.1716,-0.0505,0.0101,0.0303,0.0404,0.0606,0.1212,0.1617,0.1617,0.1617,0.1617,0.1617,0.1622,0.1624,0.1624,0.1629,0.1632,0.1632,0.1632,0.1632,0.1632,0.1632,0.1632,0.1632,0.1632,0.1632,0.1632,0.1622,0.162,0.1624,0.1624,0.1627,0.1633,0.1658,0.1669,0.0,0.0,0.0,0.0,0.0,0.0,0.0,0.0,0.0,0.0,0.0,0.0,0.0,0.0,0.0,0.0,0.0,0.0,0.0,0.0,0.0,0.0,0.0,0.0,0.0,0.0,0.0,0.0,0.0,0.0,-1.1706,-1.1111,-1.0438,-0.962,-0.8784,-0.8178,-0.7804,-0.7565,-0.7484,-0.7484,-0.7872,-0.8025,-0.8111,-0.8723,-0.902,-0.9064,-0.9438,-0.9777,-1.0038,-1.0038,-1.0057,-1.0017,-0.9961,-0.9705,-0.9337,-0.8752,-0.8119,-0.7431,-0.6942,-0.6639,-0.6437,-0.6437,-0.6437,-0.6437,-0.6437,-0.6437,-0.6337,-0.6042,-0.5641,-0.5142,-0.4843,-0.4036,-0.313,-0.202,-0.1819,-0.2123,-0.2933,-0.2224,-0.0909,0.101,0.1415,0.1415,0.1415,0.1516,0.1617,0.1617,0.1617,0.1617,0.1617,0.164,0.1656,0.1656,0.1678,0.1692,0.1692,0.1692,0.1692,0.1692,0.1692,0.1692,0.1692,0.1692,0.1692,0.1692,0.1643,0.163,0.1656,0.1656,0.1669,0.1692,0.1697,0.1699,0.0,0.0,0.0,0.0,0.0,0.0,0.0,0.0,0.0,0.0,0.0,0.0,0.0,0.0,0.0,0.0,0.0,0.0,0.0,0.0,0.0,0.0,0.0,0.0,0.0,0.0,0.0,0.0,0.0,-1.2077,-1.1855,-1.1186,-1.0519,-0.9771,-0.8861,-0.8178,-0.7804,-0.7565,-0.7484,-0.7484,-0.7872,-0.8102,-0.8111,-0.8696,-0.8993,-0.902,-0.9428,-0.9695,-0.979,-0.9904,-1.0038,-0.9975,-1.0098,-0.9853,-0.9299,-0.8909,-0.8293,-0.7531,-0.6942,-0.6639,-0.6437,-0.6437,-0.6437,-0.6437,-0.6437,-0.6437,-0.6337,-0.5937,-0.5236,-0.4634,-0.434,-0.3232,-0.2222,-0.1718,-0.1617,-0.1718,-0.2224,-0.1415,-0.0202,0.1313,0.1617,0.1617,0.1617,0.1617,0.1617,0.1617,0.1617,0.1623,0.164,0.1654,0.1668,0.1684,0.1697,0.1704,0.1704,0.1704,0.1704,0.1704,0.1704,0.1704,0.1704,0.1704,0.1704,0.1704,0.1679,0.1672,0.1686,0.1686,0.1692,0.1705,0.1722,0.173,0.0,0.0,0.0,0.0,0.0,0.0,0.0,0.0,0.0,0.0,0.0,0.0,0.0,0.0,0.0,0.0,0.0,0.0,0.0,0.0,0.0,0.0,0.0,0.0,0.0,0.0,0.0,0.0,0.0,-1.215,-1.1929,-1.126,-1.0588,-1.0067,-0.9165,-0.8408,-0.7953,-0.7638,-0.7484,-0.7484,-0.7872,-0.8102,-0.8111,-0.864,-0.8944,-0.8963,-0.9384,-0.9513,-0.9573,-0.9809,-0.9904,-1.0052,-1.013,-0.9863,-0.9414,-0.9033,-0.843,-0.7585,-0.703,-0.6639,-0.6437,-0.6437,-0.6437,-0.6437,-0.6437,-0.6437,-0.6334,-0.5734,-0.5033,-0.4331,-0.3736,-0.2626,-0.1516,-0.1212,-0.1212,-0.1212,-0.1212,-0.0505,0.0404,0.1212,0.1516,0.1617,0.1617,0.1617,0.162,0.1627,0.1628,0.1639,0.1669,0.168,0.1692,0.1714,0.1722,0.1727,0.1727,0.1727,0.1727,0.1727,0.1727,0.1727,0.1727,0.1727,0.1727,0.1727,0.1727,0.1723,0.1716,0.1716,0.172,0.1728,0.175,0.1761,0.0,0.0,0.0,0.0,0.0,0.0,0.0,0.0,0.0,0.0,0.0,0.0,0.0,0.0,0.0,0.0,0.0,0.0,0.0,0.0,0.0,0.0,0.0,0.0,0.0,0.0,0.0,0.0,0.0,-1.1929,-1.1706,-1.1335,-1.0887,-1.0519,-0.9695,-0.8937,-0.8403,-0.7791,-0.7484,-0.7484,-0.7872,-0.8102,-0.8106,-0.8565,-0.8718,-0.8741,-0.9157,-0.946,-0.9564,-0.9573,-0.9776,-1.0038,-1.0052,-0.9832,-0.941,-0.9136,-0.8456,-0.7748,-0.7291,-0.6836,-0.6437,-0.6437,-0.6437,-0.6437,-0.6437,-0.6437,-0.6334,-0.5734,-0.5033,-0.423,-0.343,-0.2424,-0.1314,-0.0303,-0.0101,-0.0101,-0.0101,0.0404,0.0808,0.0808,0.1212,0.1617,0.1617,0.1617,0.1626,0.1656,0.166,0.167,0.1698,0.1727,0.1746,0.1747,0.1773,0.179,0.179,0.179,0.179,0.179,0.179,0.179,0.179,0.179,0.179,0.179,0.179,0.1776,0.1747,0.1747,0.1762,0.1791,0.1792,0.1793,0.0,0.0,0.0,0.0,0.0,0.0,0.0,0.0,0.0,0.0,0.0,0.0,0.0,0.0,0.0,0.0,0.0,0.0,0.0,0.0,0.0,0.0,0.0,0.0,0.0,0.0,0.0,0.0,0.0,0.0,-1.1335,-1.0962,-1.0513,-1.0143,-0.9463,-0.8784,-0.803,-0.7642,-0.7561,-0.7723,-0.7949,-0.8178,-0.8327,-0.8551,-0.8703,-0.8708,-0.8859,-0.9119,-0.945,-0.9503,-0.9767,-1.0038,-1.0038,-0.9907,-0.9668,-0.9212,-0.854,-0.7925,-0.7387,-0.6836,-0.6437,-0.6437,-0.6437,-0.6437,-0.6437,-0.6437,-0.6334,-0.5734,-0.4933,-0.4033,-0.3331,-0.2121,-0.0909,-0.0202,-0.0,-0.0,-0.0,0.0707,0.1314,0.1314,0.1531,0.1646,0.1646,0.1646,0.1656,0.1685,0.1674,0.168,0.1727,0.1743,0.1757,0.1776,0.1789,0.1795,0.1795,0.1795,0.1795,0.1795,0.1795,0.1795,0.1795,0.1795,0.1795,0.1795,0.1795,0.179,0.1778,0.1778,0.1784,0.1795,0.1795,0.1795,0.0,0.0,0.0,0.0,0.0,0.0,0.0,0.0,0.0,0.0,0.0,0.0,0.0,0.0,0.0,0.0,0.0,0.0,0.0,0.0,0.0,0.0,0.0,0.0,0.0,0.0,0.0,0.0,0.0,0.0,-1.1037,-1.0738,-1.0368,-0.9922,-0.9231,-0.8551,-0.7876,-0.7642,-0.7565,-0.7804,-0.803,-0.8178,-0.8403,-0.8627,-0.8703,-0.8708,-0.8779,-0.9006,-0.9332,-0.9478,-0.97,-1.0038,-1.0038,-0.9948,-0.9745,-0.9209,-0.864,-0.8041,-0.7514,-0.6904,-0.6539,-0.6437,-0.6437,-0.6437,-0.6437,-0.6437,-0.6334,-0.5734,-0.4834,-0.3833,-0.3331,-0.1918,-0.0404,-0.0101,-0.0,-0.0,-0.0,0.0707,0.1415,0.1516,0.1641,0.1662,0.1662,0.167,0.1686,0.1715,0.1703,0.171,0.1759,0.1765,0.1773,0.1793,0.1795,0.1795,0.1795,0.1795,0.1795,0.1795,0.1795,0.1795,0.1795,0.1795,0.1795,0.1795,0.1795,0.1795,0.1795,0.1795,0.1795,0.1795,0.1795,0.1795,0.0,0.0,0.0,0.0,0.0,0.0,0.0,0.0,0.0,0.0,0.0,0.0,0.0,0.0,0.0,0.0,0.0,0.0,0.0,0.0,0.0,0.0,0.0,0.0,0.0,0.0,0.0,0.0,0.0,-1.1037,-1.0812,-1.0812,-1.0513,-0.9922,-0.9084,-0.8475,-0.8102,-0.7714,-0.7642,-0.7804,-0.803,-0.8178,-0.8403,-0.8627,-0.8703,-0.8713,-0.893,-0.9138,-0.9322,-0.9332,-0.9578,-1.0038,-1.0038,-0.9864,-0.9538,-0.9195,-0.8742,-0.8171,-0.7571,-0.7128,-0.6742,-0.6437,-0.6437,-0.6437,-0.6437,-0.6437,-0.6334,-0.5734,-0.4834,-0.3833,-0.3331,-0.1514,-0.0,-0.0,-0.0,-0.0,-0.0,0.0404,0.091,0.1517,0.1643,0.1664,0.1665,0.1688,0.1716,0.1746,0.175,0.1761,0.1791,0.1795,0.1795,0.1795,0.1795,0.1795,0.1795,0.1795,0.1795,0.1795,0.1795,0.1795,0.1795,0.1795,0.1795,0.1795,0.1795,0.1795,0.1795,0.1795,0.1795,0.1795,0.1795,0.1795,-1.0137,0.0,0.0,0.0,0.0,0.0,0.0,0.0,0.0,0.0,0.0,0.0,0.0,0.0,0.0,0.0,0.0,0.0,0.0,0.0,0.0,0.0,0.0,0.0,0.0,0.0,0.0,0.0,-1.1111,-1.0812,-1.0588,-1.0293,-0.9992,-0.9695,-0.9008,-0.8475,-0.8102,-0.7876,-0.7723,-0.7804,-0.803,-0.8178,-0.8403,-0.8627,-0.8703,-0.8713,-0.893,-0.9138,-0.9337,-0.9493,-0.9715,-1.0038,-1.0038,-0.9951,-0.98,-0.9285,-0.8834,-0.8355,-0.7664,-0.7128,-0.6742,-0.6437,-0.6437,-0.6437,-0.6437,-0.6437,-0.6237,-0.5539,-0.4636,-0.363,-0.1917,-0.0202,0.101,0.0202,-0.0,-0.0,-0.0,0.0408,0.0928,0.1546,0.1673,0.1699,0.1722,0.1732,0.1748,0.1778,0.1763,0.1761,0.1791,0.1795,0.1795,0.1795,0.1795,0.157,0.1234,0.1121,0.1121,0.1121,0.1121,0.1121,0.1121,0.1121,0.1121,0.1121,0.1121,0.1121,0.1121,0.157,0.1795,0.1795,0.1795,0.1795,0.0,0.0,0.0,0.0,0.0,0.0,0.0,-0.9676,0.0,0.0,0.0,0.0,0.0,0.0,0.0,0.0,0.0,0.0,0.0,0.0,0.0,0.0,0.0,0.0,0.0,0.0,0.0,-1.1558,-1.126,-1.1037,-1.0887,-1.0513,-1.0143,-0.9992,-0.9311,-0.8784,-0.8327,-0.7953,-0.788,-0.7953,-0.803,-0.8178,-0.8403,-0.8627,-0.8751,-0.885,-0.9058,-0.9266,-0.9474,-0.9686,-0.9842,-1.0038,-1.0038,-1.0038,-0.9965,-0.938,-0.8997,-0.8532,-0.7767,-0.724,-0.6874,-0.652,-0.6437,-0.6437,-0.6437,-0.6437,-0.6237,-0.5539,-0.4535,-0.3229,-0.1313,0.0101,0.0909,0.0707,0.0303,-0.0,-0.0,0.0205,0.0727,0.1454,0.1695,0.1729,0.1746,0.176,0.1663,0.1456,0.1446,0.1331,0.1456,0.1458,0.1458,0.1458,0.1683,0.1683,0.1346,0.0785,0.0561,0.0561,0.0561,0.0561,0.0561,0.0561,0.0673,0.0897,0.0897,0.0897,0.0897,0.1234,0.1458,0.1458,0.1458,0.157,0.0,0.0,0.0,0.0,0.0,0.0,-0.9548,-0.9484,-0.9548,0.0,0.0,0.0,0.0,0.0,0.0,0.0,0.0,0.0,0.0,0.0,0.0,0.0,0.0,0.0,0.0,-1.215,-1.1929,-1.1781,-1.1558,-1.1409,-1.1409,-1.1037,-1.0738,-1.0519,-0.9771,-0.9165,-0.8703,-0.8178,-0.7953,-0.8102,-0.8102,-0.8255,-0.8403,-0.8627,-0.8822,-0.9034,-0.9237,-0.9445,-0.9663,-0.9866,-1.0038,-1.0038,-1.0038,-1.0038,-0.9951,-0.9432,-0.9114,-0.8663,-0.7823,-0.7314,-0.697,-0.6498,-0.6437,-0.6437,-0.6437,-0.6437,-0.6237,-0.5634,-0.4332,-0.2827,-0.1212,-0.0404,0.0202,0.1212,0.0808,0.0101,-0.0,-0.0,0.0312,0.125,0.1498,0.1641,0.1644,0.1666,0.157,0.1121,0.0897,0.0785,0.0785,0.0785,0.0785,0.0785,0.1234,0.157,0.157,0.0673,-0.0,-0.0,-0.0,-0.0,-0.0,-0.0,0.0224,0.0785,0.0785,0.0785,0.0785,0.0785,0.0785,0.0785,0.0785,0.1121,0.0,0.0,0.0,0.0,0.0,0.0,-0.9548,-0.9484,-0.9548,0.0,0.0,0.0,0.0,0.0,0.0,0.0,0.0,0.0,0.0,0.0,0.0,0.0,0.0,0.0,0.0,-1.215,-1.2003,-1.1929,-1.1781,-1.1632,-1.1632,-1.1409,-1.1111,-1.0738,-1.0293,-0.9685,-0.8927,-0.8703,-0.8403,-0.8102,-0.8255,-0.8327,-0.8403,-0.8627,-0.8822,-0.9034,-0.9237,-0.9445,-0.9663,-0.9866,-1.0038,-1.0038,-1.0038,-1.0038,-0.9951,-0.9432,-0.9114,-0.8663,-0.7823,-0.7314,-0.697,-0.6498,-0.6437,-0.6437,-0.6437,-0.6437,-0.6137,-0.4931,-0.3729,-0.2523,-0.1111,-0.0404,0.0101,0.0303,0.0808,0.101,0.0202,-0.0,0.0106,0.0318,0.0647,0.0988,0.1002,0.1455,0.1795,0.1683,0.0785,0.0224,0.0224,0.0224,0.0224,0.0224,0.0336,0.0336,0.0336,0.0112,-0.0,-0.0,-0.0,-0.0,-0.0,-0.0,-0.0,0.0224,0.0224,0.0224,0.0224,0.0224,0.0224,0.0224,0.0224,0.0449,0.0,0.0,0.0,-0.9926,0.0,0.0,0.0,-0.9484,-0.9548,0.0,0.0,0.0,0.0,0.0,0.0,0.0,0.0,0.0,0.0,0.0,0.0,0.0,0.0,0.0,0.0,-1.2077,-1.2003,-1.2003,-1.214,-1.2218,-1.2218,-1.2209,-1.1916,-1.1392,-1.0854,-1.0188,-0.9311,-0.8932,-0.8551,-0.8255,-0.8327,-0.8403,-0.8408,-0.874,-0.8978,-0.9185,-0.9393,-0.9601,-0.9804,-0.9908,-1.0038,-1.0038,-1.0038,-1.0038,-0.9951,-0.9602,-0.9138,-0.8633,-0.7887,-0.7361,-0.6879,-0.6479,-0.6437,-0.6437,-0.6437,-0.6234,-0.5834,-0.4832,-0.383,-0.2725,-0.1817,-0.0808,-0.0,-0.0,0.0404,0.0606,0.0101,-0.0,-0.0,-0.0,0.0218,0.0444,0.0448,0.0673,0.0897,0.0897,0.0336,-0.0,-0.0,-0.0,-0.0,-0.0,-0.0,-0.0,-0.0,-0.0,-0.0,-0.0,-0.0,-0.0,-0.0,-0.0,-0.0,-0.0,-0.0,-0.0,-0.0,-0.0,-0.0,-0.0,-0.0,0.0112,0.0,0.0,0.0,0.0,0.0,-0.9676,0.0,0.0,0.0,-0.9484,0.0,0.0,0.0,0.0,0.0,0.0,0.0,0.0,0.0,0.0,0.0,0.0,0.0,0.0,0.0,-1.2003,-1.2003,-1.2003,-1.245,-1.2761,-1.2822,-1.283,-1.2641,-1.206,-1.1462,-1.0644,-0.9764,-0.9103,-0.8703,-0.8479,-0.8479,-0.8498,-0.8544,-0.8866,-0.9157,-0.9393,-0.9568,-0.9762,-1.0038,-1.0038,-1.0038,-1.0038,-1.0038,-1.0038,-0.9951,-0.9689,-0.9161,-0.8601,-0.8133,-0.7496,-0.6789,-0.6459,-0.6337,-0.6237,-0.6237,-0.5937,-0.5436,-0.4834,-0.4034,-0.3029,-0.2522,-0.1211,0.0101,0.0303,0.0202,0.0202,0.0203,0.0104,-0.0,-0.0,-0.0,-0.0,-0.0,-0.0,-0.0,-0.0,-0.0,-0.0,-0.0,-0.0,-0.0,-0.0,-0.0,-0.0,-0.0,-0.0,-0.0,-0.0,-0.0,-0.0,-0.0,-0.0,-0.0,-0.0,-0.0,-0.0,-0.0,-0.0,-0.0,-0.0,-0.0,-0.0,0.0,0.0,0.0,0.0,-0.9548,0.0,0.0,0.0,-0.9484,-0.9484,0.0,0.0,0.0,0.0,0.0,0.0,0.0,0.0,0.0,0.0,0.0,0.0,0.0,0.0,0.0,0.0,-1.2003,-1.2003,-1.2183,-1.2472,-1.2808,-1.2779,-1.2751,-1.2514,-1.1877,-1.1111,-1.0229,-0.9571,-0.9013,-0.8703,-0.8703,-0.8726,-0.8913,-0.9015,-0.9237,-0.9527,-0.955,-0.9762,-1.0038,-1.0038,-1.0038,-1.0038,-1.0038,-1.0038,-0.9951,-0.9689,-0.9253,-0.8785,-0.8313,-0.7677,-0.6972,-0.6555,-0.6037,-0.5737,-0.5737,-0.5438,-0.514,-0.4638,-0.3835,-0.3029,-0.2522,-0.1211,0.0202,0.1212,0.101,0.071,0.0826,0.0421,-0.0,-0.0,-0.0,-0.0,-0.0,-0.0,-0.0,-0.0,-0.0,-0.0,-0.0,-0.0,-0.0,-0.0,-0.0,-0.0,-0.0,-0.0,-0.0,-0.0,-0.0,-0.0,-0.0,-0.0,-0.0,-0.0,-0.0,-0.0,-0.0,-0.0,-0.0,-0.0,-0.0,-0.0,0.0,0.0,0.0,0.0,0.0,0.0,-0.9934,0.0,-0.9934,0.0,0.0,0.0,0.0,0.0,0.0,0.0,0.0,0.0,0.0,0.0,0.0,0.0,0.0,0.0,0.0,0.0,0.0,0.0,0.0,-1.2612,-1.2815,-1.308,-1.3088,-1.2571,-1.2283,-1.1588,-1.0482,-0.9825,-0.93,-0.9063,-0.8904,-0.895,-0.92,-0.9327,-0.9478,-0.9569,-0.9771,-0.9871,-1.0038,-1.0038,-1.0038,-1.0038,-1.0038,-1.0038,-0.9951,-0.9864,-0.9432,-0.8861,-0.8481,-0.7702,-0.6786,-0.616,-0.5737,-0.5636,-0.5636,-0.5438,-0.5039,-0.4539,-0.3835,-0.3029,-0.2522,-0.1211,0.0303,0.1314,0.1415,0.1317,0.1327,0.1151,0.0963,0.0539,0.022,-0.0,-0.0,-0.0,-0.0,-0.0,-0.0,-0.0,-0.0,-0.0,-0.0,-0.0,-0.0,-0.0,-0.0,-0.0,-0.0,-0.0,-0.0,-0.0,-0.0,-0.0,-0.0,-0.0,-0.0,-0.0,-0.0,-0.0,0.0336,0.1009,0.0336,0.0336,-1.0976,0.0,0.0,0.0,0.0,0.0,0.0,0.0,0.0,0.0,0.0,0.0,0.0,0.0,0.0,0.0,0.0,0.0,0.0,0.0,0.0,0.0,0.0,0.0,0.0,0.0,0.0,-1.1929,-1.2348,-1.2583,-1.2669,-1.3247,-1.3305,-1.2853,-1.255,-1.1899,-1.0816,-1.0004,-0.9481,-0.9246,-0.9,-0.9028,-0.9165,-0.9317,-0.9503,-0.9653,-0.9798,-0.9951,-1.0038,-1.0038,-1.0038,-1.0038,-1.0038,-1.0038,-1.0038,-1.0038,-0.9602,-0.9024,-0.8669,-0.7677,-0.6455,-0.5676,-0.5336,-0.5236,-0.5135,-0.5037,-0.4738,-0.4338,-0.3734,-0.3029,-0.2522,-0.1312,-0.0,0.101,0.1415,0.162,0.1627,0.1664,0.1591,0.1173,0.0765,0.0334,0.0111,-0.0,-0.0,-0.0,-0.0,-0.0,-0.0,-0.0,-0.0,-0.0,-0.0,-0.0,-0.0,-0.0,-0.0,-0.0,-0.0,-0.0,-0.0,-0.0,-0.0,-0.0,-0.0,0.0112,0.0449,0.0449,0.0897,0.157,0.0785,0.0897,0.0,0.0,0.0,-1.0949,0.0,0.0,0.0,0.0,-1.0327,0.0,0.0,0.0,0.0,0.0,0.0,0.0,0.0,0.0,0.0,0.0,0.0,0.0,0.0,0.0,0.0,0.0,0.0,-1.1706,-1.1942,-1.2146,-1.2453,-1.2981,-1.3267,-1.3294,-1.2731,-1.207,-1.1394,-1.0162,-0.9404,-0.9005,-0.8755,-0.8687,-0.8945,-0.895,-0.9145,-0.9593,-0.9602,-0.9777,-1.0038,-1.0038,-1.0038,-1.0038,-1.0038,-1.0038,-1.0038,-1.0038,-0.9777,-0.9542,-0.8939,-0.765,-0.6084,-0.5105,-0.4636,-0.4437,-0.4133,-0.4033,-0.3934,-0.3736,-0.3433,-0.3029,-0.2422,-0.1615,-0.0808,0.0303,0.1111,0.1625,0.1654,0.1662,0.1568,0.1702,0.1733,0.1425,0.0219,-0.0,-0.0,-0.0,-0.0,-0.0,-0.0,-0.0,-0.0,-0.0,-0.0,-0.0,-0.0,-0.0,-0.0,-0.0,-0.0,-0.0,-0.0,-0.0,-0.0,-0.0,-0.0,0.0561,0.1795,0.1795,0.1458,0.0897,0.1458,0.1458,0.0,0.0,-1.2226,-1.1716,0.0,0.0,0.0,0.0,0.0,0.0,0.0,0.0,0.0,0.0,0.0,0.0,0.0,0.0,0.0,0.0,0.0,0.0,0.0,0.0,0.0,0.0,0.0,-1.1706,-1.1781,-1.1825,0.0,-1.2622,-1.3015,-1.3033,-1.2895,-1.2493,-1.164,-1.0619,-0.9819,-0.9402,-0.8978,-0.8923,-0.9156,-0.9156,-0.9283,-0.9432,-0.9432,-0.9519,-0.9777,-0.9777,-0.9864,-1.0038,-1.0038,-1.0038,-1.0038,-1.0038,-0.9864,-0.9385,-0.8063,-0.6881,-0.5794,-0.4808,-0.4336,-0.4135,-0.4033,-0.4033,-0.3932,-0.3635,-0.3433,-0.313,-0.2927,-0.2019,-0.101,-0.0505,0.0404,0.1214,0.1528,0.1648,0.1665,0.1675,0.1717,0.1532,0.0766,0.0222,-0.0,-0.0,-0.0,-0.0,-0.0,-0.0,-0.0,-0.0,-0.0,-0.0,-0.0,-0.0,-0.0,-0.0,-0.0,-0.0,-0.0,-0.0,-0.0,-0.0,0.0785,0.1346,0.1795,0.1795,0.1683,0.1458,0.1683,0.1683,-1.3099,-1.2963,0.0,-1.2452,-1.2077,0.0,-1.1558,0.0,0.0,0.0,0.0,0.0,0.0,0.0,0.0,0.0,0.0,0.0,0.0,-1.2184,0.0,0.0,0.0,0.0,0.0,0.0,-1.1598,-1.1471,-1.1484,-1.1484,0.0,0.0,-1.2857,-1.2969,-1.2928,-1.2529,-1.1843,-1.0809,-1.0033,-0.9519,-0.8999,-0.8911,-0.9087,-0.9087,-0.9087,-0.9174,-0.9174,-0.9257,-0.9519,-0.9519,-0.9607,-0.9864,-0.9864,-0.9951,-1.0038,-1.0038,-0.9735,-0.9144,-0.7837,-0.6672,-0.5596,-0.471,-0.4137,-0.3835,-0.3732,-0.3732,-0.3632,-0.3534,-0.3332,-0.313,-0.313,-0.2523,-0.1717,-0.1111,-0.0303,0.0404,0.1111,0.153,0.165,0.166,0.1701,0.1628,0.1201,0.0554,-0.0,-0.0,-0.0,-0.0,-0.0,-0.0,-0.0,-0.0,-0.0,-0.0,-0.0,-0.0,-0.0,-0.0,-0.0,-0.0,-0.0,0.0449,0.0673,0.0673,0.1234,0.157,0.1795,0.1795,0.1795,0.1795,0.1795,0.1795]},{"header":{"parameterUnit":"m.s-1","parameterCategory":1,"la1":30.6,"la2":29.2853,"lo1":-89.7004,"lo2":-87.6739,"dy":0.0162,"dx":0.0183,"nx":112,"ny":82,"refTime":"2023-07-21T00:00:00:Z","depth":0,"parameterNumber":3,"parameterNumberName":"V-component_of_WINDS"},"data":[0.0,0.0,0.0,0.0,0.0,0.0,0.0,0.0,0.0,0.0,0.0,0.0,0.0,0.0,0.0,0.0,0.0,0.0,0.0,0.0,0.0,0.0,0.0,0.0,0.0,0.0,0.0,0.0,0.0,0.0,0.0,0.0,0.0,0.0,0.0,0.0,0.0,0.0,0.0,0.0,0.0,0.0,0.0,0.0,0.0,0.0,0.0,0.0,0.0,0.0,0.0,0.0,0.0,0.0,0.0,0.0,0.0,0.0,0.0,0.0,0.0,0.0,0.0,0.0,0.0,0.0,0.0,0.0,0.0,0.0,0.0,0.0,0.0,0.0,0.0,0.0,0.0,0.0,0.0,0.0,0.0,0.0,0.0,0.0,0.0,0.0,0.0,0.0,0.0,0.0,0.0,-2.0488,-2.0456,-2.04,-2.0398,-2.0346,-2.0289,-2.0225,0.0,0.0,0.0,0.0,0.0,0.0,0.0,0.0,0.0,0.0,0.0,0.0,0.0,0.0,0.0,0.0,0.0,0.0,0.0,0.0,0.0,0.0,0.0,0.0,0.0,0.0,0.0,0.0,0.0,0.0,0.0,0.0,0.0,0.0,0.0,0.0,0.0,0.0,0.0,0.0,0.0,0.0,0.0,0.0,0.0,0.0,0.0,0.0,0.0,0.0,0.0,0.0,0.0,0.0,0.0,0.0,0.0,0.0,0.0,0.0,0.0,0.0,0.0,0.0,0.0,0.0,0.0,0.0,0.0,0.0,0.0,0.0,0.0,0.0,0.0,0.0,0.0,0.0,0.0,0.0,0.0,0.0,0.0,0.0,0.0,0.0,0.0,0.0,0.0,0.0,0.0,0.0,0.0,0.0,0.0,0.0,0.0,0.0,0.0,0.0,0.0,0.0,0.0,0.0,-2.0495,-2.0499,-2.0492,-2.0463,-2.0394,-2.0347,-2.0294,-2.0285,0.0,0.0,0.0,0.0,0.0,0.0,0.0,0.0,0.0,0.0,0.0,0.0,0.0,0.0,0.0,0.0,0.0,0.0,0.0,0.0,0.0,0.0,0.0,0.0,0.0,0.0,0.0,0.0,0.0,0.0,0.0,0.0,0.0,0.0,0.0,0.0,0.0,0.0,0.0,0.0,0.0,0.0,0.0,0.0,0.0,0.0,0.0,0.0,0.0,0.0,0.0,0.0,0.0,0.0,0.0,0.0,0.0,0.0,0.0,0.0,0.0,0.0,0.0,0.0,0.0,0.0,0.0,0.0,0.0,0.0,0.0,0.0,0.0,0.0,0.0,0.0,0.0,0.0,0.0,0.0,0.0,0.0,0.0,0.0,0.0,0.0,0.0,0.0,0.0,0.0,0.0,0.0,0.0,0.0,0.0,0.0,0.0,0.0,0.0,0.0,0.0,0.0,0.0,-2.0472,-2.0494,-2.0497,-2.0494,-2.0496,-2.0458,-2.0394,-2.0341,-2.0306,-2.0238,0.0,0.0,0.0,0.0,0.0,0.0,0.0,0.0,0.0,0.0,0.0,0.0,0.0,0.0,0.0,0.0,0.0,0.0,0.0,0.0,0.0,0.0,0.0,0.0,0.0,0.0,0.0,0.0,0.0,0.0,0.0,0.0,0.0,0.0,0.0,0.0,0.0,0.0,0.0,0.0,0.0,0.0,0.0,0.0,0.0,0.0,0.0,0.0,0.0,0.0,0.0,0.0,0.0,0.0,0.0,0.0,0.0,0.0,0.0,0.0,0.0,0.0,0.0,0.0,0.0,0.0,0.0,0.0,0.0,0.0,0.0,0.0,0.0,0.0,0.0,0.0,0.0,0.0,0.0,0.0,0.0,0.0,0.0,0.0,0.0,0.0,0.0,0.0,0.0,0.0,0.0,0.0,0.0,0.0,0.0,0.0,0.0,0.0,0.0,0.0,0.0,0.0,-2.0497,-2.0492,-2.0506,-2.0503,-2.0494,-2.0504,-2.0439,-2.0371,-2.0308,-2.0292,0.0,0.0,0.0,0.0,0.0,0.0,0.0,0.0,0.0,0.0,0.0,0.0,0.0,0.0,0.0,0.0,0.0,0.0,0.0,0.0,0.0,0.0,0.0,0.0,0.0,0.0,0.0,0.0,0.0,0.0,0.0,0.0,0.0,0.0,0.0,0.0,0.0,0.0,0.0,0.0,0.0,0.0,0.0,0.0,0.0,0.0,0.0,0.0,0.0,0.0,0.0,0.0,0.0,0.0,0.0,0.0,0.0,0.0,0.0,0.0,0.0,0.0,0.0,0.0,0.0,0.0,0.0,0.0,0.0,0.0,0.0,0.0,0.0,0.0,0.0,0.0,0.0,0.0,0.0,0.0,0.0,0.0,0.0,0.0,0.0,0.0,0.0,0.0,0.0,0.0,0.0,0.0,0.0,0.0,0.0,0.0,0.0,0.0,0.0,0.0,0.0,0.0,-2.0494,-2.0506,-2.05,-2.049,-2.0496,-2.0491,-2.0443,-2.0379,-2.0308,-2.0306,0.0,0.0,0.0,0.0,0.0,0.0,0.0,0.0,0.0,0.0,0.0,0.0,0.0,0.0,0.0,0.0,0.0,0.0,0.0,0.0,0.0,0.0,0.0,0.0,0.0,0.0,0.0,0.0,0.0,0.0,0.0,0.0,0.0,0.0,0.0,0.0,0.0,0.0,0.0,0.0,0.0,0.0,0.0,0.0,0.0,0.0,0.0,0.0,0.0,0.0,0.0,0.0,0.0,0.0,0.0,0.0,0.0,0.0,0.0,0.0,0.0,0.0,0.0,0.0,0.0,0.0,0.0,0.0,0.0,0.0,0.0,0.0,0.0,0.0,0.0,0.0,0.0,0.0,0.0,0.0,0.0,0.0,0.0,0.0,0.0,0.0,0.0,0.0,0.0,0.0,0.0,0.0,0.0,0.0,0.0,0.0,0.0,0.0,0.0,0.0,0.0,0.0,-2.2114,-2.1912,0.0,-2.1305,-2.1097,-2.055,-2.0478,-2.0438,-2.0379,0.0,0.0,0.0,0.0,0.0,0.0,0.0,0.0,0.0,0.0,0.0,0.0,0.0,0.0,0.0,0.0,0.0,0.0,0.0,0.0,0.0,0.0,0.0,0.0,0.0,0.0,0.0,0.0,0.0,0.0,0.0,0.0,0.0,0.0,0.0,0.0,0.0,0.0,0.0,0.0,0.0,0.0,0.0,0.0,0.0,0.0,0.0,0.0,0.0,0.0,0.0,0.0,0.0,0.0,0.0,0.0,0.0,0.0,0.0,0.0,0.0,0.0,0.0,0.0,0.0,0.0,0.0,0.0,0.0,0.0,0.0,0.0,0.0,0.0,0.0,0.0,0.0,0.0,0.0,0.0,0.0,0.0,0.0,0.0,0.0,0.0,0.0,0.0,0.0,0.0,0.0,0.0,0.0,0.0,0.0,0.0,0.0,0.0,0.0,0.0,0.0,0.0,-2.3089,-2.3108,-2.277,0.0,-2.1795,-2.1451,-2.0577,-2.0472,-2.0454,-2.0404,0.0,0.0,0.0,0.0,0.0,0.0,0.0,0.0,0.0,0.0,0.0,0.0,0.0,0.0,0.0,0.0,0.0,0.0,0.0,0.0,0.0,0.0,0.0,0.0,0.0,0.0,0.0,0.0,0.0,0.0,0.0,0.0,0.0,0.0,0.0,0.0,0.0,0.0,0.0,0.0,0.0,0.0,0.0,0.0,0.0,0.0,0.0,0.0,0.0,0.0,0.0,0.0,0.0,0.0,0.0,0.0,0.0,0.0,0.0,0.0,0.0,0.0,0.0,0.0,0.0,0.0,0.0,0.0,0.0,0.0,0.0,0.0,0.0,0.0,0.0,0.0,0.0,0.0,0.0,0.0,0.0,0.0,0.0,0.0,0.0,0.0,0.0,0.0,0.0,0.0,0.0,0.0,0.0,0.0,0.0,0.0,0.0,0.0,0.0,0.0,0.0,0.0,-2.3128,-2.3123,-2.2799,-2.1912,-2.1822,-2.1453,-2.0585,-2.0439,-2.0399,0.0,0.0,0.0,0.0,0.0,0.0,0.0,0.0,0.0,0.0,0.0,0.0,0.0,0.0,0.0,0.0,0.0,0.0,0.0,0.0,0.0,0.0,0.0,0.0,0.0,0.0,0.0,0.0,0.0,0.0,0.0,0.0,0.0,0.0,0.0,0.0,0.0,0.0,0.0,0.0,0.0,0.0,0.0,0.0,0.0,0.0,0.0,0.0,0.0,0.0,0.0,0.0,0.0,0.0,0.0,0.0,0.0,0.0,0.0,0.0,0.0,0.0,0.0,0.0,0.0,0.0,0.0,0.0,0.0,0.0,0.0,0.0,0.0,0.0,0.0,0.0,0.0,0.0,0.0,0.0,0.0,0.0,0.0,0.0,0.0,0.0,0.0,0.0,0.0,0.0,0.0,0.0,0.0,0.0,0.0,0.0,0.0,0.0,0.0,0.0,0.0,0.0,0.0,-2.486,-2.4892,-2.4592,-2.3725,-2.3072,-2.2356,-2.148,-2.0837,-2.0711,-2.1268,0.0,0.0,0.0,0.0,0.0,0.0,0.0,0.0,0.0,0.0,0.0,0.0,0.0,0.0,0.0,0.0,0.0,0.0,0.0,0.0,0.0,0.0,0.0,0.0,0.0,0.0,0.0,0.0,0.0,0.0,0.0,0.0,0.0,0.0,0.0,0.0,0.0,0.0,0.0,0.0,0.0,0.0,0.0,0.0,0.0,0.0,0.0,0.0,0.0,0.0,0.0,0.0,0.0,0.0,0.0,0.0,0.0,0.0,0.0,0.0,0.0,0.0,0.0,0.0,0.0,0.0,0.0,0.0,0.0,0.0,0.0,0.0,0.0,0.0,0.0,0.0,0.0,0.0,0.0,0.0,0.0,0.0,0.0,0.0,0.0,0.0,0.0,0.0,0.0,0.0,0.0,0.0,0.0,0.0,0.0,0.0,0.0,0.0,0.0,0.0,0.0,0.0,-2.5595,-2.5643,-2.5321,-2.4456,-2.3899,-2.3225,-2.2352,-2.1804,-2.1696,-2.2146,0.0,0.0,0.0,0.0,0.0,0.0,0.0,0.0,0.0,0.0,0.0,0.0,0.0,0.0,0.0,0.0,0.0,0.0,0.0,0.0,0.0,0.0,0.0,0.0,0.0,0.0,0.0,0.0,0.0,0.0,0.0,0.0,0.0,0.0,0.0,0.0,0.0,0.0,0.0,0.0,0.0,0.0,0.0,0.0,0.0,0.0,0.0,0.0,0.0,0.0,0.0,0.0,0.0,0.0,0.0,0.0,0.0,0.0,0.0,0.0,0.0,0.0,0.0,0.0,0.0,0.0,0.0,0.0,0.0,0.0,0.0,0.0,0.0,0.0,0.0,0.0,0.0,0.0,0.0,0.0,0.0,0.0,0.0,0.0,0.0,0.0,0.0,0.0,0.0,0.0,0.0,0.0,0.0,0.0,0.0,0.0,0.0,0.0,0.0,0.0,0.0,0.0,-2.5581,-2.5605,-2.5299,-2.451,-2.4341,-2.3976,-2.3193,-2.3051,-2.3003,-2.303,0.0,0.0,0.0,0.0,0.0,0.0,0.0,0.0,0.0,0.0,0.0,0.0,0.0,0.0,0.0,0.0,0.0,0.0,0.0,0.0,0.0,0.0,0.0,0.0,0.0,0.0,0.0,0.0,0.0,0.0,0.0,0.0,0.0,0.0,0.0,0.0,0.0,0.0,0.0,0.0,0.0,0.0,0.0,0.0,0.0,0.0,0.0,0.0,0.0,0.0,0.0,0.0,0.0,0.0,0.0,0.0,0.0,0.0,0.0,0.0,-2.0894,0.0,0.0,0.0,0.0,0.0,0.0,0.0,0.0,0.0,0.0,0.0,0.0,0.0,0.0,0.0,0.0,0.0,0.0,0.0,0.0,0.0,0.0,0.0,0.0,0.0,0.0,0.0,0.0,0.0,0.0,0.0,0.0,0.0,0.0,0.0,0.0,0.0,0.0,0.0,0.0,0.0,-2.5585,-2.5609,-2.5532,-2.5337,-2.4705,-2.4222,-2.403,-2.3391,-2.3256,-2.3876,-2.4106,0.0,0.0,0.0,0.0,0.0,0.0,0.0,0.0,0.0,0.0,0.0,0.0,0.0,0.0,0.0,0.0,0.0,0.0,0.0,0.0,0.0,0.0,0.0,0.0,0.0,0.0,0.0,0.0,0.0,0.0,0.0,0.0,0.0,0.0,0.0,0.0,0.0,0.0,0.0,0.0,0.0,0.0,0.0,0.0,0.0,0.0,0.0,0.0,0.0,0.0,0.0,0.0,0.0,0.0,0.0,0.0,0.0,0.0,0.0,0.0,-2.1693,0.0,0.0,0.0,0.0,0.0,0.0,0.0,0.0,0.0,0.0,0.0,0.0,0.0,0.0,0.0,0.0,0.0,0.0,0.0,0.0,0.0,0.0,0.0,0.0,0.0,0.0,0.0,0.0,0.0,0.0,0.0,0.0,0.0,0.0,0.0,0.0,0.0,0.0,0.0,0.0,-2.555,-2.555,-2.555,-2.555,-2.5156,-2.4872,-2.4885,-2.4458,-2.4379,-2.4805,-2.4822,0.0,0.0,0.0,0.0,0.0,0.0,0.0,0.0,0.0,0.0,0.0,0.0,0.0,0.0,0.0,0.0,0.0,0.0,0.0,0.0,0.0,0.0,0.0,0.0,0.0,0.0,0.0,0.0,0.0,0.0,0.0,0.0,0.0,0.0,0.0,0.0,0.0,0.0,0.0,0.0,0.0,0.0,0.0,0.0,0.0,0.0,0.0,0.0,0.0,0.0,0.0,0.0,0.0,-2.2116,-2.199,-2.1839,-2.17,-2.1907,-2.2329,-2.2283,-2.2419,-2.2712,0.0,0.0,0.0,0.0,0.0,0.0,0.0,0.0,0.0,0.0,0.0,0.0,0.0,0.0,0.0,0.0,0.0,0.0,0.0,0.0,0.0,0.0,0.0,0.0,0.0,-2.544,-2.5492,0.0,0.0,0.0,0.0,0.0,0.0,0.0,0.0,0.0,0.0,0.0,0.0,-2.5518,-2.5518,-2.5492,-2.5511,-2.5505,-2.5505,-2.5505,-2.5503,-2.5495,-2.5495,-2.5499,-2.5464,0.0,0.0,0.0,0.0,0.0,0.0,0.0,0.0,0.0,0.0,0.0,0.0,0.0,0.0,0.0,0.0,0.0,0.0,0.0,0.0,0.0,0.0,0.0,0.0,0.0,0.0,0.0,0.0,0.0,0.0,0.0,0.0,-2.0522,-2.2324,0.0,0.0,0.0,0.0,0.0,0.0,0.0,0.0,0.0,0.0,0.0,0.0,0.0,0.0,-2.4431,-2.4362,-2.4239,-2.4061,-2.3916,-2.3785,-2.3648,-2.3521,-2.3422,-2.331,-2.3241,0.0,-2.279,-2.2632,0.0,0.0,0.0,0.0,0.0,0.0,0.0,0.0,0.0,0.0,0.0,0.0,0.0,0.0,0.0,0.0,0.0,0.0,0.0,0.0,0.0,0.0,-2.5398,-2.5406,-2.544,-2.5511,0.0,-2.5507,-2.551,-2.5505,-2.5506,0.0,0.0,0.0,0.0,0.0,0.0,0.0,-2.5596,-2.5544,-2.5505,-2.5503,-2.5507,-2.5499,-2.5499,-2.5492,-2.5492,-2.5492,-2.5492,-2.5464,-2.5401,-2.5401,0.0,0.0,0.0,0.0,0.0,0.0,0.0,0.0,0.0,0.0,0.0,0.0,0.0,0.0,0.0,0.0,0.0,0.0,0.0,0.0,0.0,0.0,0.0,0.0,0.0,0.0,0.0,0.0,0.0,-2.0329,-2.0935,-2.2243,-2.288,-2.3719,0.0,0.0,0.0,0.0,0.0,0.0,0.0,0.0,0.0,-2.6186,-2.6097,-2.6015,-2.5999,-2.5892,-2.5838,-2.5801,-2.567,-2.5533,-2.5387,-2.5216,-2.499,-2.4711,-2.4187,-2.3769,-2.3423,-2.2911,-2.2497,-2.2147,0.0,0.0,0.0,0.0,-2.2569,-2.2816,-2.3175,-2.3445,0.0,0.0,0.0,0.0,0.0,0.0,0.0,0.0,0.0,0.0,0.0,0.0,0.0,-2.5378,-2.5423,-2.544,-2.5429,-2.5472,-2.5495,0.0,-2.5531,-2.5564,-2.557,0.0,0.0,0.0,0.0,0.0,-2.5543,-2.5517,-2.5503,-2.5507,-2.5492,-2.5511,-2.5511,-2.5511,-2.5511,-2.5511,-2.5511,-2.5464,-2.5401,-2.5429,-2.5429,0.0,0.0,0.0,0.0,0.0,0.0,0.0,0.0,0.0,0.0,0.0,0.0,0.0,0.0,0.0,0.0,0.0,0.0,0.0,0.0,0.0,0.0,0.0,0.0,0.0,0.0,0.0,0.0,-2.0807,-2.1727,-2.2628,-2.3347,-2.4119,0.0,0.0,0.0,0.0,0.0,0.0,-2.6734,-2.6711,-2.704,-2.7869,-2.7752,-2.768,-2.7699,-2.7605,-2.7436,-2.7213,-2.7096,-2.6843,-2.653,-2.6295,-2.6021,-2.5689,-2.4986,-2.4524,-2.4212,-2.3162,-2.2569,-2.2282,-2.2225,-2.2152,-2.2101,-2.2415,-2.2659,-2.2944,-2.3289,-2.3531,-2.3774,-2.4016,0.0,-2.4357,-2.4461,0.0,0.0,0.0,0.0,-2.5106,-2.5164,-2.5252,-2.5332,-2.5388,-2.5406,-2.5395,-2.5412,-2.5448,-2.5492,0.0,-2.5544,-2.5564,-2.5576,0.0,0.0,0.0,0.0,-2.551,-2.551,-2.551,-2.5495,-2.5492,-2.5511,-2.5511,-2.5511,-2.5511,-2.5511,-2.5511,-2.5511,-2.5464,-2.5401,-2.5456,-2.5456,-2.5401,0.0,0.0,0.0,0.0,0.0,0.0,0.0,0.0,0.0,0.0,0.0,0.0,0.0,0.0,0.0,0.0,0.0,0.0,0.0,0.0,0.0,0.0,0.0,0.0,0.0,0.0,0.0,0.0,0.0,-2.3523,-2.3683,0.0,0.0,0.0,0.0,-2.5951,-2.6707,-2.7535,-2.8342,-2.8276,-2.8577,-2.9458,-2.9361,-2.9282,-2.9282,-2.9279,-2.8868,-2.803,-2.7966,-2.7453,-2.6591,-2.6336,-2.6045,-2.5775,-2.5552,-2.5285,-2.4901,-2.3223,-2.2388,-2.2192,-2.2197,-2.2225,-2.231,-2.2515,-2.2816,-2.3119,-2.3313,-2.3553,-2.3816,-2.4036,-2.4266,-2.4481,-2.4513,-2.4594,0.0,0.0,-2.4945,-2.5094,-2.5103,-2.5262,-2.5398,-2.5398,-2.5397,-2.5387,-2.5395,-2.5395,-2.5412,0.0,-2.5492,-2.5518,-2.5499,0.0,-2.5518,-2.5596,-2.5596,-2.557,-2.5518,-2.5492,-2.5498,-2.5492,-2.5511,-2.5511,-2.5511,-2.5511,-2.5511,-2.5511,-2.5511,-2.5464,-2.5401,-2.5401,-2.5401,-2.5401,-2.5401,0.0,0.0,0.0,0.0,0.0,0.0,0.0,0.0,0.0,0.0,0.0,0.0,0.0,0.0,0.0,0.0,0.0,0.0,0.0,0.0,0.0,0.0,0.0,0.0,0.0,0.0,0.0,0.0,-2.437,-2.5395,0.0,0.0,-2.6733,-2.7081,-2.7575,-2.7911,-2.8664,-3.0036,-3.0021,-3.0358,-3.1184,-3.1078,-3.0993,-3.0993,-3.0971,-3.0801,-3.0463,-2.9835,-2.9296,-2.8819,-2.8076,-2.7569,-2.7237,-2.6578,-2.6118,-2.5761,-2.4476,-2.3786,-2.3611,-2.3533,-2.3533,-2.3688,-2.3874,-2.416,-2.4409,-2.4141,-2.4189,-2.4352,-2.416,-2.4247,-2.4447,-2.4481,-2.4596,-2.4707,-2.4791,-2.5324,-2.5882,-2.5932,-2.6427,-2.6956,-2.6997,-2.6574,-2.6169,-2.6169,-2.5774,-2.5416,-2.5434,-2.5437,-2.5456,-2.5498,-2.549,-2.551,-2.5518,-2.5531,-2.5536,-2.549,-2.549,-2.5503,-2.5492,-2.5456,-2.5429,-2.5429,-2.544,-2.5432,-2.5432,-2.5432,-2.5432,-2.5404,-2.5393,-2.5401,-2.5401,-2.5437,-2.5484,0.0,0.0,0.0,0.0,0.0,0.0,0.0,0.0,0.0,0.0,0.0,0.0,0.0,0.0,0.0,0.0,0.0,0.0,0.0,0.0,0.0,0.0,0.0,0.0,0.0,0.0,-2.5408,-2.5985,-2.7056,-2.7832,-2.8043,-2.8311,-2.8782,-2.9589,-2.9927,-3.0809,-3.2463,-3.2512,-3.2844,-3.3668,-3.331,-3.3111,-3.3111,-3.2771,-3.247,-3.2191,-3.152,-3.0825,-3.0106,-2.9348,-2.8711,-2.8119,-2.7447,-2.6981,-2.6683,-2.5846,-2.5394,-2.5124,-2.4475,-2.4242,-2.4353,-2.4584,-2.4866,-2.5101,-2.4935,-2.4806,-2.4716,-2.4538,-2.4392,-2.4358,-2.4763,-2.4754,-2.4773,-2.5402,-2.5895,-2.6298,-2.6663,-2.728,-2.7785,-2.7841,-2.7428,-2.7044,-2.7045,-2.6622,-2.6246,-2.6246,-2.5801,-2.541,-2.5453,-2.5492,-2.5499,-2.5498,-2.551,-2.5495,-2.5507,-2.5507,-2.5499,-2.5476,-2.544,-2.5393,-2.5393,-2.5395,-2.5406,-2.5406,-2.5406,-2.5406,-2.5406,-2.5404,-2.5393,-2.5401,-2.5727,-2.6056,-2.6346,0.0,0.0,0.0,0.0,0.0,0.0,0.0,0.0,0.0,0.0,0.0,0.0,0.0,0.0,0.0,0.0,0.0,0.0,0.0,0.0,0.0,0.0,0.0,-2.5727,-2.5959,-2.6714,-2.8365,-2.8555,-2.8857,-2.9626,-3.0372,-3.115,-3.1952,-3.2795,-3.3971,-3.5557,-3.5634,-3.5982,-3.677,-3.5994,-3.5516,-3.5497,-3.4661,-3.3844,-3.3027,-3.2889,-3.1918,-3.027,-2.9981,-2.9304,-2.8371,-2.817,-2.7906,-2.7622,-2.7296,-2.699,-2.6573,-2.4926,-2.426,-2.4292,-2.4577,-2.4829,-2.5125,-2.564,-2.5386,-2.4864,-2.5129,-2.475,-2.4356,-2.5337,-2.5133,-2.4922,-2.6632,-2.6601,-2.631,-2.7272,-2.7662,-2.779,-2.7862,-2.7907,-2.7928,-2.7928,-2.7922,-2.7903,-2.7903,-2.6592,-2.5479,-2.5459,-2.5495,-2.553,-2.5495,-2.5515,0.0,-2.555,-2.5561,-2.5553,-2.5473,-2.5483,-2.5483,-2.5483,-2.5483,-2.5483,-2.5483,-2.5483,-2.5483,-2.5483,-2.5483,-2.5473,-2.5479,-2.6309,-2.7179,-2.8048,0.0,0.0,0.0,0.0,0.0,0.0,0.0,0.0,0.0,0.0,0.0,0.0,0.0,0.0,0.0,0.0,0.0,0.0,0.0,0.0,0.0,0.0,-2.7136,-2.6637,-2.7755,-2.8971,-2.998,-3.1158,-3.1939,-3.212,-3.2907,-3.3705,-3.4521,-3.4806,-3.5408,-3.6472,-3.6497,-3.6565,-3.6789,-3.6533,-3.6073,-3.5497,-3.5256,-3.4699,-3.3863,-3.3197,-3.2582,-3.1998,-3.1185,-3.0559,-3.0086,-2.9951,-2.9379,-2.8513,-2.8233,-2.7909,-2.7453,-2.62,-2.573,-2.5764,-2.5967,-2.5985,-2.5988,-2.6289,-2.6003,-2.5553,-2.5715,-2.5778,-2.5847,-2.627,-2.6337,-2.634,-2.6879,-2.7396,-2.7905,-2.8209,-2.8859,-2.9464,-2.959,-2.9178,-2.8772,-2.8835,-2.8356,-2.7913,-2.7904,-2.7566,-2.7082,-2.6445,-2.6348,-2.6163,-2.5514,-2.5978,0.0,-2.6378,-2.689,-2.7229,-2.721,-2.7219,-2.721,-2.721,-2.7209,-2.7199,-2.7199,-2.7199,-2.7199,-2.7199,-2.7219,-2.7219,-2.7219,-2.7451,-2.7991,0.0,0.0,0.0,0.0,0.0,0.0,0.0,0.0,0.0,0.0,0.0,0.0,0.0,0.0,0.0,0.0,0.0,0.0,0.0,0.0,0.0,0.0,-2.8141,-2.9569,-2.946,-3.0105,-3.0968,-3.2123,-3.3407,-3.4316,-3.4628,-3.5075,-3.5708,-3.6503,-3.6875,-3.7459,-3.8316,-3.8327,-3.83,-3.83,-3.7586,-3.6965,-3.6467,-3.5806,-3.5187,-3.4636,-3.3778,-3.3112,-3.2636,-3.2005,-3.1428,0.0,-3.074,-3.0249,-2.9488,-2.9225,-2.8867,0.0,0.0,0.0,0.0,0.0,-2.6908,-2.6727,-2.6923,-2.6672,-2.6267,-2.6444,-2.6447,-2.6453,-2.7037,-2.7036,-2.7026,-2.7791,-2.8185,-2.8518,-2.8978,-2.958,-3.0189,-3.068,-3.0459,-3.0175,-3.0232,-2.985,-2.9389,-2.9043,-2.9033,0.0,-2.795,-2.7187,-2.6657,-2.6502,-2.661,-2.6823,-2.7171,-2.7605,-2.7903,-2.7893,-2.7902,-2.7892,-2.7892,-2.7901,0.0,0.0,0.0,-2.789,-2.789,-2.7892,0.0,0.0,0.0,-2.8858,-2.9687,0.0,0.0,0.0,-2.9421,-2.9594,0.0,0.0,0.0,0.0,0.0,0.0,0.0,0.0,0.0,0.0,0.0,0.0,0.0,0.0,0.0,0.0,-3.0483,-3.2451,-3.3175,-3.285,-3.3086,-3.4489,-3.5373,-3.6186,-3.6994,-3.711,-3.7448,-3.8265,-3.8971,-3.9714,-4.0476,0.0,0.0,0.0,0.0,-3.8025,-3.7794,-3.6377,-3.5565,-3.5412,-3.457,-3.3725,-3.2878,-3.2708,-3.2155,-3.1284,-3.1145,-3.089,-3.0546,-3.0205,-2.9831,-2.9402,-2.8123,-2.7964,-2.8405,-2.7969,-2.7606,-2.7333,-2.7513,0.0,0.0,-2.736,-2.7175,-2.7009,-2.7989,-2.7846,-2.7672,-2.9241,-2.921,-2.8914,-2.9812,-3.0158,-3.051,-3.1422,-3.1692,-3.1751,-3.1831,-3.1854,-3.1607,-3.079,-3.0685,-3.0453,-2.9592,-2.8085,-2.7217,-2.7893,-2.7412,-2.7229,-2.7951,-2.8133,-2.8181,-2.8179,0.0,0.0,-2.8179,-2.8179,-2.8179,-2.8179,-2.8179,-2.8179,-2.8179,-2.8181,-2.8557,-2.9308,-2.9327,-2.9693,-3.0406,-3.0402,-3.0398,-3.0398,-3.0394,-3.0359,0.0,0.0,0.0,0.0,0.0,0.0,0.0,0.0,0.0,0.0,0.0,0.0,0.0,0.0,0.0,-3.0765,-3.3019,-3.4804,-3.4921,-3.594,-3.656,-3.6285,-3.6972,-3.7772,-3.859,-3.9268,-4.0011,-4.081,-4.1033,-4.1181,-4.1349,-4.1367,0.0,-4.042,-3.9991,-3.9137,-3.7794,-3.7452,-3.6916,-3.6269,0.0,0.0,-3.4678,-3.3907,-3.3369,-3.3075,-3.2951,-3.2367,-3.15,-3.1172,-3.0697,-3.0082,-2.8932,-2.8582,-2.8652,-2.8041,-2.7827,-2.7877,-2.7549,-2.7914,-2.8541,-2.8809,-2.944,-3.015,-3.0527,-3.0667,0.0,-3.1203,-3.1294,-3.1325,-3.1598,-3.1844,-3.2091,-3.2405,-3.256,-3.2673,-3.2736,-3.276,-3.249,-3.1626,-3.1482,-3.1223,-3.0404,-2.9458,-2.8616,-2.8086,-2.8415,-2.8772,-2.8934,-2.9528,-2.9929,-2.9929,-2.9929,-2.9929,-2.9929,-2.9929,-2.9929,-2.9929,-2.9929,-2.9929,-2.9929,-2.9929,-3.0006,-3.016,-3.016,-3.0237,-3.039,-3.041,-3.0398,-3.0398,-3.039,-3.0355,0.0,0.0,0.0,0.0,0.0,0.0,0.0,0.0,0.0,0.0,0.0,-2.7985,0.0,0.0,-3.3437,-3.3876,-3.613,-3.7794,-3.7757,-3.8762,-3.9076,-3.7951,-3.8507,-3.9322,-4.0232,-4.0648,-4.1026,-4.1512,-4.1871,-4.2063,-4.2063,-4.2063,-4.1693,-4.0878,-4.0404,-3.9549,-3.8319,-3.7884,-3.7421,-3.6988,-3.6224,-3.5588,-3.511,-3.4687,-3.4183,-3.3643,-3.3549,-3.311,-3.2475,-3.1986,-3.1568,-3.1179,-3.0529,-2.9969,-2.9465,-2.9202,-2.8954,-2.8716,-2.8589,-2.8952,-2.9484,-2.9763,-3.0353,-3.1039,-3.125,-3.1427,-3.1621,-3.1805,-3.1952,-3.2079,-3.2183,-3.2372,-3.2676,-3.3219,-3.3422,-3.3519,-3.3602,-3.3595,-3.3345,-3.2501,-3.1992,-3.1579,-3.1207,-3.0482,-2.9794,-2.9361,-2.9274,-2.939,-2.9804,-3.0197,-3.0444,-3.0394,-3.039,-3.0398,-3.0398,-3.0398,-3.0398,-3.0398,-3.0398,-3.0398,-3.0398,-3.0398,-3.0398,-3.0398,-3.0398,-3.0398,-3.0398,-3.0398,-3.0398,-3.0398,-3.0398,-3.0355,0.0,0.0,0.0,0.0,0.0,0.0,0.0,0.0,-2.7183,-2.7538,-2.9187,-3.0848,-3.1792,-3.421,-3.6287,-3.7006,-3.8925,-4.032,-4.0308,-4.0638,-4.0478,-3.9381,-3.9866,-4.0634,-4.1576,-4.1588,-4.1612,-4.1859,-4.2369,-4.2654,-4.2654,-4.2687,-4.2244,-4.1298,-4.0634,-3.981,-3.8792,-3.8147,-3.7776,-3.7716,-3.6967,-3.6213,-3.5495,-3.5441,-3.4899,-3.3936,-3.3688,-3.3444,-3.316,-3.2636,-3.2335,-3.2179,-3.202,-3.1422,-3.0543,-3.0497,-3.0123,-2.9644,-2.9711,-2.9962,-3.0293,-3.0548,-3.1016,-3.1511,-3.1699,-3.1905,-3.2125,-3.2311,-3.2462,-3.2608,-3.275,-3.2936,-3.3277,-3.4056,-3.4314,-3.4384,-3.4437,-3.4437,-3.4218,-3.3395,-3.2675,-3.2158,-3.2067,-3.1535,-3.0991,-3.0664,-2.9997,-2.9794,-3.0443,-3.052,-3.049,-3.0439,-3.0425,-3.0402,-3.039,-3.041,-3.0398,-3.0398,-3.0398,-3.0398,-3.0398,-3.0398,-3.0398,-3.0398,-3.0571,-3.0648,-3.0648,-3.0814,-3.0814,-3.0648,-3.0648,-3.0533,-2.1119,-2.2063,-2.3033,-2.3265,-2.4694,-2.6063,0.0,0.0,-2.9024,-2.9982,-3.22,-3.425,-3.5241,-3.7619,-3.9461,-3.9583,-4.0492,-4.1138,-4.0997,-4.0364,-4.0046,-4.0547,-4.0756,-4.1254,-4.2216,-4.2224,-4.2485,-4.3235,-4.3243,-4.321,-4.321,-4.3332,-4.272,-4.1259,-4.1112,-4.032,-3.8792,-3.8658,-3.856,-3.856,-3.7764,-3.7323,-3.7184,-3.6486,-3.5697,-3.4825,-3.3972,-3.3444,-3.319,-3.293,-3.269,-3.2439,-3.2371,-3.2144,-3.1793,-3.1045,-3.0681,-3.049,-3.0035,-3.0407,-3.1102,-3.1395,-3.2217,-3.3151,-3.3304,-3.3532,-3.3771,-3.3966,-3.4124,-3.4277,-3.4465,-3.468,-3.4874,-3.5089,-3.5249,-3.5339,-3.5353,-3.5353,-3.5103,-3.4231,-3.3987,-3.3716,-3.307,-3.2929,-3.2402,-3.0898,-3.0556,-3.0482,-3.0574,-3.0595,-3.0568,-3.0491,-3.0481,-3.046,-3.0417,-3.0402,-3.0398,-3.0398,-3.0398,-3.0398,-3.0398,-3.0398,-3.0398,-3.0398,-3.116,-3.1545,-3.1564,-3.2275,-3.2256,-3.1545,-3.1545,-3.1141,-2.1859,-2.2988,0.0,0.0,-2.6564,-2.8271,-2.8429,-3.0062,-3.1825,-3.2869,-3.4825,-3.6528,-3.7069,-3.9436,-4.1134,0.0,-4.1695,-4.2356,-4.1711,-4.1243,-4.0737,-4.007,-4.0379,-4.0883,-4.1434,-4.1841,-4.2157,-4.2413,-4.2741,-4.2958,-4.2958,-4.3069,-4.2484,-4.1031,-4.0991,-4.0286,-3.8768,-3.8719,-3.8707,-3.8707,-3.8358,-3.7936,-3.7477,-3.7129,-3.6541,-3.5734,-3.5253,-3.4717,-3.4134,-3.3911,-3.3422,-3.277,-3.2674,-3.2507,-3.2283,-3.1864,-3.1638,-3.162,-3.1985,-3.2401,-3.2838,-3.3517,-3.4235,-3.4848,-3.4991,-3.5248,-3.551,-3.5764,-3.5909,-3.607,-3.6305,-3.6501,-3.6642,-3.6776,-3.6488,-3.6199,-3.6199,-3.5834,-3.5391,-3.5026,-3.4578,-3.4176,-3.3895,-3.3488,-3.2997,-3.237,-3.1786,-3.1404,-3.1404,-3.0974,-3.0626,-3.0577,-3.0511,-3.0482,-3.0469,-3.0417,-3.0402,-3.041,-3.0398,-3.0398,-3.0398,-3.0398,-3.0641,-3.116,-3.1506,-3.1929,-3.241,-3.2737,-3.2737,-3.2391,-3.2391,-3.2199,-2.2784,0.0,0.0,-2.6597,-2.8731,-3.0595,-3.0784,-3.2423,-3.4137,-3.501,-3.6488,-3.7685,-3.7967,-3.9888,-4.1293,-4.0741,-4.2054,-4.277,-4.1792,-4.1559,-4.0907,-3.9242,-3.9281,-3.9497,-3.9686,-4.078,-4.1488,-4.152,-4.1947,-4.2282,-4.2498,-4.2652,-4.2136,-4.1033,-4.0899,-4.0215,-3.9006,-3.8768,-3.8707,-3.8707,-3.8707,-3.8395,-3.7808,-3.7588,-3.7165,-3.6597,-3.6282,-3.5784,-3.5148,-3.4988,-3.4333,-3.3414,-3.3487,-3.3255,-3.291,-3.3054,-3.288,-3.2687,-3.3442,-3.3882,-3.4268,-3.5061,-3.554,-3.5859,-3.6065,-3.6315,-3.6572,-3.6833,-3.7004,-3.7149,-3.743,-3.7604,-3.7728,-3.7859,-3.7478,-3.7065,-3.7065,-3.6603,-3.6122,-3.5892,-3.5393,-3.4955,-3.4787,-3.4315,-3.3984,-3.4077,-3.3322,-3.2655,-3.2425,-3.1604,-3.1041,-3.0983,-3.0933,-3.0888,-3.0858,-3.1017,-3.1118,-3.1102,-3.1102,-3.1102,-3.1102,-3.1102,-3.1391,-3.2025,-3.2275,-3.2679,-3.3256,-3.3506,-3.3487,-3.3256,-3.3256,-3.3122,0.0,0.0,-2.8031,-2.9042,-3.1163,-3.3023,-3.3097,-3.4318,-3.551,-3.589,-3.6732,-3.7541,-3.7915,-3.8943,-3.9707,-3.9808,-4.1181,-4.188,-4.0868,-4.0617,-3.993,-3.8321,-3.7422,-3.6919,0.0,-3.8995,-4.0558,-4.1078,-4.0966,-4.1239,-4.2068,-4.2103,-4.1935,-4.1483,-4.089,-4.032,-3.9699,-3.9012,-3.8707,-3.8707,-3.8707,-3.8689,-3.8634,-3.7845,-3.7477,-3.7434,-3.6633,-3.619,-3.6076,-3.5987,-3.5381,-3.4501,-3.5098,-3.472,-3.3947,-3.4659,-3.4306,-3.3494,-3.3635,-3.4253,-3.4996,-3.5291,-3.5606,-3.5933,-3.6135,-3.6381,-3.6634,-3.6858,-3.7004,-3.7149,-3.743,-3.7604,-3.7728,-3.7859,-3.792,-3.7969,-3.7969,-3.795,-3.7695,-3.6914,-3.6793,-3.6566,-3.5796,-3.5745,-3.5819,-3.5827,-3.5147,-3.4316,-3.3477,-3.2538,-3.1966,-3.1954,-3.1907,-3.1833,-3.1777,-3.2466,-3.289,-3.2833,-3.2814,-3.2814,-3.2814,-3.2814,-3.2833,-3.2852,-3.368,-3.4141,-3.416,-3.5007,-3.4988,-3.416,-3.416,-3.3699,0.0,0.0,-3.0571,-3.2029,-3.4209,-3.5901,-3.5365,-3.608,-3.6728,-3.6411,-3.6317,-3.6268,-3.6007,-3.6978,-3.7856,-3.7921,-3.9319,-4.0231,-3.9767,-3.9661,-3.9064,-3.744,-3.7442,0.0,0.0,0.0,0.0,-3.9899,-4.0275,-4.0822,-4.1596,-4.1805,-4.1665,-4.1193,-4.1193,-4.069,-3.9622,-3.9429,-3.914,-3.8707,-3.8707,-3.8707,-3.8689,-3.8414,-3.8303,-3.8285,-3.801,-3.7569,-3.7026,-3.6955,-3.6371,-3.5508,-3.5525,-3.531,-3.4981,-3.5046,-3.5173,-3.5332,-3.5313,-3.5563,-3.6061,-3.6825,-3.7293,-3.7612,-3.7856,-3.805,-3.8248,-3.8499,-3.8658,-3.8818,-3.9083,-3.9299,-3.9463,-3.9596,-3.9238,-3.8854,-3.8854,-3.844,-3.8001,-3.7726,-3.7754,-3.7569,-3.6759,-3.6696,-3.6592,-3.6056,-3.524,-3.4381,-3.3516,-3.3115,-3.2922,-3.2922,-3.2876,-3.28,-3.2733,-3.2938,-3.3048,-3.2967,-3.2967,-3.2954,-3.2891,-3.2891,-3.316,-3.3737,-3.4045,-3.4468,-3.5064,-3.5372,-3.5353,-3.5064,-3.5053,-3.4912,-2.8166,-3.0709,-3.3037,-3.4706,-3.6327,-3.7353,-3.6835,-3.6697,-3.6498,-3.5803,-3.4847,-3.3934,-3.3368,-3.4053,-3.4852,-3.5217,-3.7102,-3.859,-3.8758,-3.9265,-3.8995,-3.7458,-3.7677,0.0,0.0,0.0,0.0,-3.9329,-3.9659,-4.0307,-4.1401,-4.1604,-4.1576,-4.138,-4.1375,-4.1088,-4.0429,-3.9962,-3.9365,-3.8707,-3.8707,-3.8707,-3.8707,-3.8707,-3.8707,-3.8707,-3.8707,-3.8426,-3.7959,-3.7918,-3.7363,-3.6589,-3.663,-3.6431,-3.6103,-3.6141,-3.6451,-3.6809,-3.629,-3.6398,-3.6934,-3.7666,-3.8171,-3.8478,-3.8743,-3.895,-3.912,-3.9354,-3.9496,-3.9717,-3.9962,-4.0177,-4.0323,-4.0457,-4.0104,-3.9754,-3.9754,-3.9389,-3.8942,-3.867,-3.8703,-3.8538,-3.7707,-3.7375,-3.7063,-3.6537,-3.5715,-3.495,-3.4407,-3.405,-3.3863,-3.3862,-3.3793,-3.3732,-3.3658,-3.3896,-3.4012,-3.3967,-3.3932,-3.3909,-3.3877,-3.3853,-3.409,-3.4648,-3.4655,-3.493,-3.5501,-3.5501,-3.5515,-3.5541,-3.5528,-3.5553,-3.0622,-3.3155,-3.5446,-3.7024,-3.7533,-3.7577,-3.7508,-3.6301,-3.4979,-3.4177,-3.2351,-3.0725,0.0,0.0,-3.0972,-3.1962,-3.4659,-3.6976,-3.7859,-3.9284,-3.9716,0.0,0.0,0.0,0.0,0.0,0.0,-3.9476,0.0,-3.9809,-4.1472,-4.1471,-4.1587,-4.2061,-4.1538,-4.1479,-4.1905,-4.044,-3.9401,-3.8836,-3.8781,-3.8762,-3.8762,-3.8762,-3.8744,-3.8707,-3.8707,-3.875,-3.8822,-3.8822,-3.8379,-3.7724,-3.831,-3.8021,-3.7361,-3.7848,-3.7985,-3.7756,-3.6595,-3.6826,-3.7649,-3.7915,-3.8252,-3.8572,-3.8833,-3.9064,-3.9237,-3.9376,-3.9551,-3.9785,-4.0099,-4.0272,-4.0419,-4.0592,-4.0639,-4.0639,-4.0723,-4.0756,-4.0533,-3.9793,-3.9664,-3.9434,-3.8618,-3.783,-3.7292,-3.7301,-3.656,-3.5991,-3.5991,-3.5271,-3.4778,-3.4761,-3.4715,-3.4639,-3.4586,-3.5269,-3.5699,-3.5718,-3.5646,-3.5612,-3.5612,-3.5534,-3.5515,-3.5515,-3.5515,-3.5515,-3.5515,-3.5515,-3.5534,-3.5612,-3.5612,-3.5646,-3.3287,-3.5668,-3.7841,-3.886,-3.9129,-3.8836,-3.7732,-3.6301,-3.449,-3.2078,-3.0266,-2.8818,0.0,0.0,0.0,-3.0823,-3.3131,0.0,-3.7505,-3.8654,0.0,0.0,0.0,-3.9752,-3.9607,-3.921,0.0,0.0,-3.9975,-4.0127,-4.1248,-4.1363,-4.156,-4.1866,-4.2014,-4.198,-4.176,-4.0492,-4.0052,-4.0487,-3.9882,-3.9588,-3.9588,-3.9588,-3.9276,-3.8707,-3.875,-3.8822,-3.8862,-3.896,-3.8887,-3.8739,-3.8839,-3.8674,-3.8377,-3.831,-3.8238,-3.8138,-3.7853,-3.7805,-3.7915,-3.8052,-3.8382,-3.8743,-3.8921,-3.9101,-3.9324,-3.9502,-3.9693,-4.0046,-4.092,-4.1246,-4.1545,-4.2261,-4.2444,-4.2472,-4.2512,-4.2079,-4.1637,-4.1538,-4.0565,-3.9706,-3.9472,-3.8245,-3.7298,-3.7301,-3.656,-3.5991,-3.5991,-3.5818,-3.5676,-3.5666,-3.5615,-3.5554,-3.5541,-3.5684,-3.5776,-3.5773,-3.5708,-3.5669,-3.5667,-3.5657,-3.5623,-3.5577,-3.557,-3.557,-3.5558,-3.5623,-3.5657,-3.5667,-3.5669,-3.5698,-3.5722,-3.7575,-3.9061,-3.9549,-3.9198,-3.8336,-3.6818,-3.4783,-3.2541,-3.0179,-2.8261,0.0,0.0,0.0,0.0,0.0,0.0,0.0,-3.7292,-3.8669,-3.9765,0.0,-4.087,0.0,-4.0739,-4.0352,-4.0447,0.0,-4.0639,-4.0577,-4.1507,-4.1631,-4.1805,-4.1995,-4.2356,-4.2332,-4.1923,-4.1272,-4.1001,-4.1111,-4.0653,-4.0432,-4.0414,-4.0065,-3.9675,-3.9265,0.0,-3.8939,-3.9045,-3.9183,-3.9245,-3.9272,-3.9245,-3.9137,-3.8989,-3.8766,-3.8664,-3.859,-3.8559,-3.851,-3.8442,-3.8364,-3.8585,-3.8921,-3.9064,-3.9237,-3.9502,-4.0075,-4.0394,-4.0737,-4.1799,-4.2144,-4.2387,-4.2934,-4.3096,-4.3153,-4.3233,-4.2935,-4.2578,-4.2344,-4.1247,-4.0372,-4.0375,-3.8977,-3.7867,-3.7867,-3.6794,-3.5991,-3.5991,-3.5991,-3.6007,-3.6001,-3.5974,-3.5947,-3.5948,-3.5889,-3.5846,-3.5846,-3.5818,-3.5768,-3.5754,-3.5727,-3.5718,-3.5658,-3.5639,-3.5639,-3.5639,-3.5718,-3.5727,-3.5735,-3.5768,-3.5818,-3.7763,-3.8931,-3.965,-3.9669,-3.8491,-3.6904,-3.5266,-3.2559,-2.992,-2.8282,0.0,-2.4975,-2.5125,0.0,-2.6446,-2.8823,0.0,-3.3661,-3.6934,-3.8831,-4.0282,-4.1373,-4.1571,-4.1605,-4.1566,-4.1252,-4.1333,-4.2092,-4.1315,-4.1177,-4.2012,-4.2121,-4.2228,-4.2391,-4.2652,-4.2631,-4.237,-4.2326,-4.2011,-4.1423,-4.1313,-4.1203,-4.1093,-4.0377,-3.9982,-3.9804,0.0,0.0,-3.9264,-3.9376,-3.9502,-3.9551,-3.9551,-3.9477,-3.9324,-3.9192,-3.9101,-3.9045,-3.896,-3.9045,-3.9082,-3.8766,-3.8855,-3.9092,-3.9341,-3.9544,-3.9938,-4.0991,-4.1374,-4.1713,-4.2717,-4.3025,-4.3116,-4.3316,-4.347,-4.3578,-4.364,-4.3656,-4.3471,-4.272,-4.1874,-4.1273,-4.1264,-3.9878,-3.8726,-3.8612,-3.7204,-3.613,-3.601,-3.5991,-3.601,-3.6001,-3.6001,-3.5997,-3.6009,-3.5958,-3.5914,-3.5914,-3.5908,-3.5891,-3.5814,-3.5818,-3.5788,-3.5724,-3.5726,-3.5726,-3.5724,-3.5788,-3.5818,-3.5814,-3.5891,-3.5908,-3.8798,-3.9717,-4.0384,-3.9807,-3.8094,-3.5939,-3.3783,-3.0955,0.0,0.0,0.0,-2.4105,-2.4339,-2.4944,0.0,-2.7926,0.0,0.0,0.0,0.0,-3.9841,0.0,0.0,0.0,0.0,0.0,0.0,0.0,0.0,-4.2311,-4.2246,-4.2292,-4.2516,-4.2882,-4.3032,-4.3178,-4.3261,-4.2635,-4.2561,-4.3075,-4.2415,-4.1754,-4.1111,-4.1011,-4.0296,-3.9095,-3.9147,0.0,-3.9477,-3.9647,-3.9781,-3.9845,-3.9781,-3.967,-3.9526,-3.9401,-3.9298,-3.9245,-3.9298,-3.935,-3.9383,-3.911,-3.9165,-3.9481,-4.0296,-4.0653,-4.1009,-4.198,-4.236,-4.2695,-4.3714,-4.3962,-4.4187,-4.5035,-4.5332,-4.5461,-4.5517,-4.5079,-4.4415,-4.3631,-4.2772,-4.2178,-4.2162,-4.0737,-3.937,-3.871,-3.7731,-3.6813,-3.6088,-3.5991,-3.5991,-3.5991,-3.5991,-3.601,-3.6007,-3.5981,-3.5974,-3.5974,-3.5981,-3.5953,-3.588,-3.5875,-3.5878,-3.5872,-3.5879,-3.5879,-3.5866,-3.5878,-3.5875,-3.588,-3.5953,-3.5981,-3.9069,-3.9922,-4.047,-3.9376,-3.7404,-3.5025,-3.2352,0.0,0.0,0.0,0.0,-2.3964,-2.4572,0.0,0.0,0.0,0.0,0.0,0.0,0.0,0.0,0.0,0.0,0.0,0.0,0.0,0.0,0.0,0.0,0.0,-4.2631,-4.2709,-4.29,-4.3214,-4.3251,-4.3358,-4.3497,-4.269,-4.2488,-4.2873,-4.2066,-4.1479,-4.1093,-4.0717,-4.0228,-3.9629,-3.9351,0.0,-3.967,-3.9826,-3.9954,-4.0015,-4.0015,-3.9933,-3.9804,-3.9693,-3.9647,-3.9599,-3.9599,-3.967,-3.9815,-4.015,-4.0258,-4.0376,-4.0844,-4.1396,-4.2022,-4.2968,-4.3283,-4.3596,-4.4557,-4.488,-4.5062,-4.563,-4.588,-4.6026,-4.6084,-4.5468,-4.4791,-4.4406,-4.329,-4.2401,-4.2405,-4.0945,-3.9676,-3.9273,-3.8512,-3.7653,-3.6794,-3.6677,-3.6501,-3.6049,-3.5991,-3.5991,-3.5991,-3.6007,-3.6007,-3.6007,-3.6001,-3.6192,-3.661,-3.6629,-3.6606,-3.6587,-3.6572,-3.6377,-3.5958,-3.5958,-3.6181,-3.6629,-3.6661,-3.6921,-3.9067,-3.9802,-4.0126,-3.8687,-3.6508,-3.3921,-3.0886,-2.7954,0.0,0.0,-2.3788,-2.4091,-2.5138,0.0,0.0,0.0,0.0,0.0,0.0,0.0,0.0,0.0,0.0,0.0,0.0,0.0,0.0,0.0,0.0,0.0,-4.3013,-4.3123,-4.3251,-4.3429,-4.3246,-4.319,-4.324,-4.2433,-4.2047,-4.2047,-4.1405,-4.102,-4.0818,-4.0302,-4.003,-4.0039,-3.956,0.0,0.0,-3.9996,-4.0077,-4.0137,-4.0176,-4.0157,-4.0017,-3.9975,-3.9954,-3.997,-4.0097,-4.022,-4.0437,-4.1311,-4.1399,-4.1234,-4.1661,-4.2256,-4.2987,-4.3912,-4.4244,-4.4479,-4.5247,-4.5528,-4.5658,-4.5822,-4.5997,-4.6138,-4.6189,-4.5664,-4.5169,-4.5181,-4.3958,-4.2876,-4.2705,-4.1382,-4.0235,-3.9855,-3.9253,-3.8551,-3.7692,-3.7575,-3.7321,-3.6638,-3.6228,-3.5991,-3.5991,-3.6169,-3.6286,-3.6286,-3.6443,-3.6869,-3.7546,-3.7585,-3.7542,-3.7496,-3.7496,-3.7184,-3.6559,-3.6567,-3.6902,-3.7585,-3.7572,-3.7946,-3.8931,-3.9392,-3.9272,-3.7956,-3.5335,-3.2317,-2.9299,0.0,0.0,-2.396,-2.3788,-2.4292,-2.5813,-2.6266,0.0,0.0,0.0,0.0,0.0,0.0,0.0,0.0,0.0,0.0,0.0,0.0,0.0,0.0,0.0,0.0,-4.3359,-4.3359,-4.3411,-4.3497,-4.2782,-4.2415,-4.2415,-4.1625,-4.1222,-4.1222,-4.1148,-4.0726,-3.9992,-4.0148,-3.9861,-3.9303,-3.9564,0.0,0.0,-4.0118,-4.0215,-4.0291,-4.0215,-4.0196,-4.0176,-4.0117,-4.0077,-4.0191,-4.0971,-4.126,-4.1415,-4.2293,-4.2023,-4.1677,-4.32,-4.3719,-4.3952,-4.4829,-4.5163,-4.5323,-4.5531,-4.5648,-4.5761,-4.6017,-4.6122,-4.6193,-4.6196,-4.6131,-4.6086,-4.6086,-4.5318,-4.4451,-4.3709,-4.2783,-4.162,-4.004,-3.9735,-3.939,-3.857,-3.8475,-3.8456,-3.8375,-3.6931,-3.5991,-3.5991,-3.6735,-3.7184,-3.7184,-3.7926,-3.8394,-3.8473,-3.8473,-3.8473,-3.8473,-3.8473,-3.8434,-3.8355,-3.8355,-3.8394,-3.8473,-3.8473,-3.8514,-3.6985,-3.8111,-3.8636,-3.7146,-3.4818,-3.211,-2.9092,0.0,0.0,-2.4046,-2.4528,-2.5397,-2.6073,-2.6683,-2.7178,0.0,0.0,0.0,0.0,0.0,0.0,0.0,0.0,0.0,0.0,0.0,0.0,0.0,0.0,0.0,-4.3463,-4.3463,-4.3243,-4.2782,-4.247,-4.2066,-4.1589,-4.0781,-4.0377,-4.0377,-3.99,-3.9496,-3.9166,-3.9361,-3.936,-3.9272,-3.9526,0.0,0.0,-4.0157,-4.0253,-4.031,-4.0272,-4.0559,-4.0979,-4.094,-4.1284,-4.178,-4.2123,-4.2238,-4.2372,-4.3193,-4.3289,-4.3137,-4.3764,-4.4359,-4.4878,-4.5222,-4.5419,-4.5532,-4.5654,-4.58,-4.5994,-4.6132,-4.6174,-4.6208,-4.6196,-4.6203,-4.6209,-4.6209,-4.5495,-4.4799,-4.4473,-4.329,-4.2164,-4.1471,-4.0918,-4.0278,-3.9419,-3.9328,-3.9136,-3.8651,-3.7985,-3.7555,-3.7555,-3.7887,-3.8082,-3.8082,-3.8414,-3.8824,-3.9292,-3.9312,-3.9312,-3.9312,-3.9312,-3.9078,-3.8593,-3.8593,-3.8843,-3.9312,-3.9312,-3.9605,-3.4968,-3.638,-3.7154,-3.568,-3.3576,-3.1162,0.0,0.0,0.0,-2.4384,-2.5195,-2.6221,-2.6506,-2.7083,-2.7557,0.0,0.0,0.0,0.0,0.0,0.0,0.0,0.0,0.0,0.0,0.0,0.0,0.0,0.0,0.0,0.0,-4.291,-4.2635,-4.2304,-4.1846,-4.1313,-4.0763,-3.9955,-3.9551,-3.9533,-3.8964,-3.8707,-3.8707,-3.8851,-3.9045,-3.9272,0.0,0.0,0.0,-4.0176,-4.0253,-4.031,-4.031,-4.0788,-4.1495,-4.1514,-4.2068,-4.2833,-4.312,-4.3196,-4.3349,-4.4153,-4.446,-4.4499,-4.448,-4.4921,-4.5438,-4.5458,-4.5568,-4.5696,-4.5771,-4.596,-4.6132,-4.6185,-4.6208,-4.6196,-4.6196,-4.6196,-4.6196,-4.6196,-4.5689,-4.5209,-4.4943,-4.3916,-4.3044,-4.2788,-4.2022,-4.1269,-4.0641,-4.034,-3.9976,-3.939,-3.9334,-3.9139,-3.8632,-3.8824,-3.8941,-3.8941,-3.9195,-3.9585,-4.0151,-4.0171,-4.0171,-4.0171,-4.0171,-3.9917,-3.9334,-3.9334,-3.9624,-4.0171,-4.0171,-4.0503,-3.3165,-3.4326,-3.4713,-3.3279,-3.1231,-2.8937,0.0,0.0,0.0,-2.4988,-2.5616,-2.6437,-2.7251,-2.7496,-2.7587,-2.7587,0.0,0.0,0.0,0.0,0.0,0.0,0.0,0.0,0.0,0.0,0.0,0.0,0.0,0.0,0.0,-4.157,-4.1497,-4.2286,-4.0763,-3.9918,-3.99,-3.9111,-3.8707,-3.8707,-3.8707,-3.8707,-3.8707,-3.891,-3.9064,0.0,0.0,0.0,0.0,-4.0138,-4.0253,-4.031,-4.031,-4.0788,-4.1514,-4.157,-4.2106,-4.2929,-4.3867,-4.4192,-4.4327,-4.5113,-4.5438,-4.5513,-4.5549,-4.5531,-4.5513,-4.5586,-4.5742,-4.5898,-4.5986,-4.6095,-4.6193,-4.6196,-4.6196,-4.6196,-4.6196,-4.6196,-4.6196,-4.6196,-4.6196,-4.5903,-4.5046,-4.4884,-4.4585,-4.3727,-4.289,-4.2377,-4.2377,-4.1628,-4.1088,-4.1069,-4.1069,-4.0405,-3.8749,-3.9331,-3.98,-3.98,-4.06,-4.1088,-4.1088,-4.1088,-4.1088,-4.1088,-4.1088,-4.1088,-4.1069,-4.1069,-4.1088,-4.1088,-4.1088,-4.1088,-3.0187,-3.1606,-3.2393,-3.0936,-2.9661,-2.8144,-2.5868,0.0,0.0,-2.5109,-2.6083,-2.7095,-2.74,-2.7526,-2.7647,-2.7783,-2.7957,0.0,0.0,0.0,0.0,0.0,0.0,0.0,0.0,0.0,0.0,0.0,0.0,0.0,0.0,-4.0726,-4.0396,-4.0653,-4.0157,-3.9643,-3.9093,-3.8836,-3.8707,-3.8707,-3.8707,-3.8707,-3.8707,-3.8822,0.0,0.0,0.0,0.0,0.0,-4.0138,-4.0253,-4.0348,-4.0903,-4.1629,-4.247,-4.3082,-4.3886,-4.469,-4.4996,-4.5111,-4.5204,-4.5451,-4.5582,-4.5651,-4.5712,-4.568,-4.5648,-4.5771,-4.5873,-4.5986,-4.6037,-4.6122,-4.6193,-4.6196,-4.6196,-4.6196,-4.6196,-4.6196,-4.6196,-4.6196,-4.6196,-4.6098,-4.5845,-4.5287,-4.48,-4.4527,-4.3797,-4.3071,-4.2485,-4.2151,-4.1752,-4.1166,-4.1108,-4.0893,-4.0346,-4.0542,-4.0698,-4.0698,-4.0952,-4.1108,-4.1108,-4.1108,-4.1108,-4.1108,-4.1108,-4.1108,-4.1108,-4.1108,-4.1108,-4.1108,-4.1099,-4.1101,0.0,-2.8887,-2.9678,-2.8507,-2.7661,0.0,0.0,0.0,0.0,0.0,-2.6078,-2.7122,-2.7444,-2.7635,-2.7754,-2.7888,-2.8032,0.0,0.0,0.0,0.0,0.0,0.0,0.0,0.0,0.0,0.0,0.0,0.0,0.0,0.0,-3.9882,-3.9441,-3.9441,-3.9441,-3.9203,-3.8707,-3.8707,-3.8707,-3.8707,-3.8707,-3.8707,-3.8707,-3.8762,0.0,0.0,0.0,0.0,0.0,-4.0098,-4.0215,-4.0348,-4.0845,-4.1781,-4.2872,-4.3465,-4.4478,-4.5584,-4.5599,-4.5648,-4.5712,-4.5708,-4.5752,-4.5827,-4.5893,-4.5867,-4.5841,-4.5941,-4.6026,-4.6095,-4.6122,-4.6166,-4.6201,-4.6196,-4.6196,-4.6196,-4.6196,-4.6196,-4.6196,-4.6196,-4.6196,-4.6196,-4.6196,-4.5748,-4.5397,-4.5397,-4.4688,-4.3963,-4.3417,-4.2791,-4.2181,-4.1654,-4.1303,-4.1108,-4.1108,-4.1108,-4.1108,-4.1108,-4.1108,-4.1108,-4.1108,-4.1108,-4.1108,-4.1108,-4.1108,-4.1108,-4.1108,-4.1108,-4.1267,-4.1587,-4.1589,-4.1767,0.0,0.0,0.0,0.0,0.0,0.0,0.0,0.0,0.0,0.0,0.0,0.0,0.0,-2.7724,-2.7917,-2.7917,-2.8124,0.0,0.0,0.0,0.0,0.0,0.0,0.0,0.0,0.0,0.0,0.0,0.0,0.0,0.0,-3.9111,-3.8707,-3.8707,-3.8707,-3.8707,-3.8707,-3.8707,-3.8707,-3.8707,-3.8707,-3.8707,-3.8707,-3.8762,0.0,0.0,0.0,0.0,0.0,-4.0057,-4.0176,-4.031,-4.0444,-4.1437,-4.2833,-4.3096,-4.4254,-4.5715,-4.5786,-4.5835,-4.5886,-4.5917,-4.5953,-4.6026,-4.6076,-4.6066,-4.6037,-4.6095,-4.616,-4.6193,-4.6193,-4.6201,-4.6196,-4.6196,-4.6196,-4.6196,-4.6196,-4.6196,-4.6196,-4.6196,-4.6196,-4.6196,-4.6196,-4.6196,-4.6196,-4.6196,-4.5501,-4.4972,-4.4913,-4.3533,-4.2529,-4.2412,-4.1674,-4.1166,-4.1108,-4.1108,-4.1108,-4.1108,-4.1108,-4.1127,-4.1186,-4.1186,-4.1225,-4.1283,-4.1283,-4.1283,-4.1283,-4.1283,-4.1702,-4.2493,-4.2483,-4.2932,-2.3181,0.0,-2.5232,-2.4528,-2.4201,0.0,0.0,0.0,0.0,0.0,0.0,0.0,0.0,0.0,0.0,0.0,0.0,0.0,0.0,0.0,0.0,0.0,0.0,0.0,0.0,0.0,0.0,0.0,0.0,0.0,0.0,-3.8799,-3.8707,-3.8707,-3.8707,-3.8707,-3.8707,-3.8707,-3.8707,-3.8707,-3.8707,-3.8707,-3.8707,-3.8762,0.0,0.0,0.0,0.0,-3.9911,-4.0036,-4.0176,-4.0444,-4.1705,-4.2489,-4.3042,-4.4401,-4.5291,-4.5781,-4.5786,-4.5835,-4.5917,-4.596,-4.6025,-4.6076,-4.6095,-4.6123,-4.6169,-4.6169,-4.6193,-4.6189,-4.6189,-4.6196,-4.6196,-4.6196,-4.6196,-4.6196,-4.6196,-4.6196,-4.6196,-4.6196,-4.6196,-4.6196,-4.6196,-4.6196,-4.6196,-4.6196,-4.6021,-4.5643,-4.4994,-4.4562,-4.3817,-4.2538,-4.2229,-4.1823,-4.1166,-4.1108,-4.1108,-4.1108,-4.1108,-4.14,-4.2064,-4.2084,-4.2415,-4.3079,-4.3099,-4.3099,-4.3099,-4.3082,-4.3183,-4.3381,-4.3395,-4.3495,-2.2552,-2.3234,-2.3794,-2.3392,-2.3315,-2.3271,0.0,0.0,0.0,0.0,0.0,0.0,0.0,0.0,0.0,0.0,0.0,0.0,0.0,0.0,0.0,0.0,0.0,0.0,0.0,0.0,0.0,0.0,0.0,0.0,0.0,-3.8707,-3.8707,-3.8707,-3.8707,-3.8707,-3.8707,-3.8707,-3.8707,-3.8707,-3.8707,-3.8707,-3.8707,-3.8762,-3.8921,0.0,0.0,0.0,-3.9954,-4.0077,-4.0215,-4.0444,-4.1705,-4.2508,-4.3079,-4.4437,-4.534,-4.5852,-4.5887,-4.5929,-4.5997,-4.6026,-4.6076,-4.6095,-4.6095,-4.6132,-4.6158,-4.6185,-4.6201,-4.6196,-4.6196,-4.6196,-4.6196,-4.6196,-4.6196,-4.6196,-4.6196,-4.6196,-4.6196,-4.6196,-4.6196,-4.6196,-4.6196,-4.6196,-4.6196,-4.6196,-4.6196,-4.6027,-4.5559,-4.5142,-4.4548,-4.3636,-4.3212,-4.2807,-4.2331,-4.2291,-4.2119,-4.1713,-4.1693,-4.2084,-4.2962,-4.3001,-4.3216,-4.3684,-4.3704,-4.371,-4.3696,-4.3702,-4.3917,-4.4304,-4.4301,-4.4516,-2.2605,-2.2685,-2.2773,-2.285,-2.2884,-2.3074,0.0,0.0,0.0,0.0,0.0,0.0,0.0,0.0,0.0,0.0,0.0,0.0,0.0,0.0,0.0,0.0,0.0,0.0,0.0,0.0,0.0,0.0,0.0,0.0,0.0,-3.8707,-3.8707,-3.8707,-3.8707,-3.8707,-3.8707,-3.8707,-3.8707,-3.8707,-3.8707,-3.8707,-3.8707,-3.8792,-3.8979,0.0,0.0,0.0,-3.9996,-4.0138,-4.0215,-4.0368,-4.1323,-4.2164,-4.3022,-4.409,-4.5098,-4.5906,-4.5968,-4.6046,-4.6075,-4.6075,-4.6075,-4.6075,-4.6075,-4.6084,-4.6093,-4.6169,-4.6193,-4.6196,-4.6196,-4.6196,-4.6196,-4.6196,-4.6196,-4.6196,-4.6196,-4.6196,-4.6196,-4.6196,-4.6196,-4.6196,-4.6196,-4.6196,-4.6196,-4.6196,-4.619,-4.6203,-4.6203,-4.5565,-4.505,-4.4913,-4.4289,-4.3826,-4.3704,-4.3704,-4.3435,-4.2842,-4.2669,-4.2982,-4.386,-4.4036,-4.4094,-4.4094,-4.4094,-4.4103,-4.4098,-4.4101,-4.4472,-4.5193,-4.5191,-4.5597,-2.2816,-2.2868,-2.3024,-2.364,-2.3813,-2.4004,0.0,0.0,0.0,0.0,0.0,0.0,0.0,0.0,0.0,0.0,0.0,0.0,0.0,0.0,0.0,0.0,0.0,0.0,0.0,0.0,0.0,0.0,0.0,0.0,0.0,-3.8707,-3.8707,-3.8707,-3.8707,-3.8707,-3.8707,-3.8707,-3.8707,-3.8707,-3.8707,-3.8707,-3.8707,-3.8881,-3.9064,0.0,0.0,-3.9804,-3.9996,-4.0138,-4.0196,-4.0368,-4.1972,-4.268,-4.3043,-4.4762,-4.5568,-4.5827,-4.5968,-4.6003,-4.6014,-4.5953,-4.5941,-4.5941,-4.6014,-4.6016,-4.6037,-4.6105,-4.616,-4.6193,-4.6196,-4.6196,-4.6196,-4.6196,-4.6196,-4.6196,-4.6196,-4.6196,-4.6196,-4.6196,-4.6196,-4.6196,-4.6196,-4.6196,-4.6196,-4.6196,-4.6203,-4.6203,-4.6203,-4.6086,-4.5722,-4.4974,-4.4799,-4.4434,-4.3768,-4.3695,-4.3953,-4.4567,-4.3915,-4.3899,-4.4758,-4.5519,-4.589,-4.589,-4.589,-4.5905,-4.5898,-4.5898,-4.5975,-4.6097,-4.6093,-4.6171,-2.285,-2.2893,-2.3197,-2.4408,-2.4363,-2.4381,0.0,0.0,0.0,0.0,0.0,0.0,0.0,0.0,0.0,0.0,0.0,0.0,0.0,0.0,0.0,0.0,0.0,0.0,0.0,0.0,0.0,0.0,0.0,0.0,0.0,0.0,-3.7845,-3.7422,-3.7404,-3.7404,-3.7404,-3.7826,-3.8267,-3.8707,-3.8707,-3.8719,-3.875,-3.8939,-3.912,-3.9324,0.0,-3.9848,-3.9996,-4.0138,-4.0176,-4.0271,-4.1549,-4.2354,-4.3025,-4.4951,-4.5746,-4.586,-4.5905,-4.5949,-4.5949,-4.5917,-4.5905,-4.5917,-4.5949,-4.5972,-4.6005,-4.6026,-4.6095,-4.6158,-4.6193,-4.6201,-4.6208,-4.6196,-4.6196,-4.6196,-4.6196,-4.6196,-4.6196,-4.6196,-4.6196,-4.6196,-4.6196,-4.6196,-4.6196,-4.6196,-4.6196,-4.6196,-4.6196,-4.6196,-4.6047,-4.5644,-4.5605,-4.5456,-4.5084,-4.5045,-4.5036,-4.4992,-4.5067,-4.5285,-4.5695,-4.6085,-4.63,-4.63,-4.6293,-4.6305,-4.6307,-4.63,-4.6309,-4.63,-4.6256,-4.6261,-2.2944,-2.297,-2.3319,-2.4935,0.0,0.0,0.0,0.0,0.0,0.0,0.0,0.0,0.0,0.0,0.0,0.0,0.0,0.0,0.0,0.0,0.0,0.0,0.0,0.0,0.0,0.0,0.0,0.0,0.0,0.0,0.0,0.0,-3.6927,-3.6321,-3.6303,-3.6303,-3.6303,-3.689,-3.7606,-3.8414,-3.8615,-3.875,-3.8822,-3.8979,-3.9183,-3.9452,-3.9693,-3.9911,-4.0017,-4.0118,-4.0251,-4.0477,-4.1335,-4.239,-4.3599,-4.5117,-4.5776,-4.5874,-4.5893,-4.5893,-4.5893,-4.5893,-4.588,-4.5893,-4.5893,-4.5937,-4.598,-4.5975,-4.6017,-4.6095,-4.6149,-4.6185,-4.6193,-4.6208,-4.6196,-4.6196,-4.6196,-4.6196,-4.6196,-4.6196,-4.6196,-4.6196,-4.6196,-4.6196,-4.6196,-4.6196,-4.6196,-4.6196,-4.6196,-4.6196,-4.6196,-4.6196,-4.6196,-4.6203,-4.6196,-4.6203,-4.5942,-4.5319,-4.5917,-4.6296,-4.6296,-4.63,-4.6303,-4.6306,-4.6305,-4.6308,-4.6303,-4.6273,-4.6279,-4.6273,-4.6214,-4.623,-2.3144,-2.3126,-2.347,-2.5068,0.0,0.0,0.0,0.0,0.0,0.0,0.0,0.0,0.0,0.0,0.0,0.0,0.0,0.0,0.0,0.0,0.0,0.0,0.0,0.0,0.0,0.0,0.0,0.0,0.0,0.0,0.0,0.0,0.0,-3.6303,-3.6303,-3.6303,-3.6303,-3.6358,-3.678,-3.7588,-3.834,-3.878,-3.891,-3.912,-3.9324,-3.9599,-3.9804,-3.9973,-4.0077,-4.0098,-4.0532,-4.1309,-4.217,-4.3614,-4.5247,-4.5577,-4.5742,-4.5814,-4.5874,-4.5906,-4.5893,-4.5827,-4.5814,-4.5814,-4.5874,-4.5906,-4.5919,-4.5905,-4.596,-4.6025,-4.6084,-4.6149,-4.6205,-4.6212,-4.6208,-4.6196,-4.6196,-4.6196,-4.6196,-4.6196,-4.6196,-4.6196,-4.6196,-4.6196,-4.6196,-4.6196,-4.6196,-4.6196,-4.6196,-4.6196,-4.6196,-4.6196,-4.6196,-4.6196,-4.6203,-4.6196,-4.6183,-4.6131,-4.6236,-4.6303,-4.6303,-4.6296,-4.6306,-4.63,-4.6308,-4.6301,-4.6295,-4.624,-4.6215,-4.6215,-4.6195,-4.6203,-2.3144,-2.3193,-2.3562,-2.5147,0.0,0.0,0.0,0.0,0.0,0.0,0.0,0.0,0.0,0.0,0.0,0.0,0.0,0.0,0.0,0.0,0.0,0.0,0.0,0.0,0.0,0.0,0.0,0.0,0.0,0.0,0.0,0.0,0.0,-3.4798,-3.4852,-3.4879,-3.4879,-3.5413,-3.5837,-3.615,-3.74,-3.8343,-3.895,-3.9183,-3.9401,-3.967,-3.9826,-3.9954,-4.0074,-4.0606,-4.1003,-4.1377,-4.2838,-4.3903,-4.469,-4.5387,-4.5712,-4.5814,-4.5827,-4.5847,-4.5827,-4.5814,-4.58,-4.5814,-4.5827,-4.586,-4.5906,-4.5899,-4.5925,-4.5941,-4.6017,-4.6085,-4.6152,-4.6185,-4.6193,-4.6201,-4.6196,-4.6196,-4.6196,-4.6196,-4.6196,-4.6196,-4.6196,-4.6196,-4.6196,-4.6196,-4.6196,-4.6196,-4.6196,-4.6196,-4.6196,-4.6196,-4.6196,-4.6196,-4.6196,-4.6203,-4.619,-4.6203,-4.625,-4.6303,-4.6299,-4.6303,-4.6303,-4.6308,-4.6303,-4.6284,-4.6245,-4.6215,-4.6209,-4.6209,-4.6196,-4.619,-2.3168,-2.3417,-2.3936,0.0,0.0,0.0,0.0,0.0,0.0,0.0,0.0,0.0,0.0,0.0,0.0,0.0,0.0,0.0,0.0,0.0,0.0,0.0,0.0,0.0,0.0,0.0,0.0,0.0,0.0,0.0,0.0,0.0,0.0,0.0,-3.3998,-3.4049,-3.4074,-3.4685,-3.511,-3.5388,-3.648,-3.7608,-3.8729,-3.9186,-3.9551,-3.9804,-3.987,-3.9975,-4.0093,-4.0924,-4.1567,-4.2151,-4.3697,-4.4381,-4.4557,-4.5315,-4.5677,-4.5805,-4.58,-4.58,-4.58,-4.58,-4.58,-4.58,-4.58,-4.5827,-4.586,-4.586,-4.5887,-4.5905,-4.5972,-4.6016,-4.6095,-4.616,-4.6177,-4.6193,-4.6208,-4.6196,-4.6196,-4.6196,-4.6196,-4.6196,-4.6196,-4.6196,-4.6196,-4.6196,-4.6196,-4.6196,-4.6196,-4.6196,-4.6196,-4.6196,-4.6203,-4.6209,-4.6209,-4.6209,-4.6196,-4.6203,-4.626,-4.6296,-4.6308,-4.6297,-4.6308,-4.63,-4.6287,-4.626,-4.6209,-4.6196,-4.6196,-4.6196,-4.6196,-4.6196,-2.3241,-2.3903,0.0,0.0,0.0,0.0,0.0,0.0,0.0,0.0,0.0,0.0,0.0,0.0,0.0,0.0,0.0,0.0,0.0,0.0,0.0,0.0,0.0,0.0,0.0,0.0,0.0,0.0,0.0,0.0,0.0,0.0,0.0,0.0,-3.4074,-3.4148,-3.4197,-3.4269,-3.4703,-3.5498,-3.5642,-3.655,-3.8128,-3.9132,-3.9739,-3.9996,-3.9996,-4.0036,-4.0153,-4.0903,-4.2204,-4.3801,-4.4801,-4.5237,-4.5303,-4.5528,-4.568,-4.5795,-4.5786,-4.58,-4.58,-4.58,-4.58,-4.58,-4.58,-4.58,-4.58,-4.58,-4.5847,-4.5893,-4.5893,-4.5949,-4.6026,-4.6076,-4.6152,-4.6205,-4.6205,-4.6201,-4.6196,-4.6196,-4.6196,-4.6196,-4.6196,-4.6196,-4.6196,-4.6196,-4.6196,-4.6196,-4.6196,-4.6196,-4.6196,-4.6196,-4.6196,-4.6203,-4.6203,-4.6209,-4.6189,-4.6189,-4.6257,-4.6295,-4.6293,-4.6307,-4.6307,-4.6293,-4.6236,-4.6209,-4.6203,-4.6209,-4.6196,-4.6196,-4.6201,-4.6205,-2.336,-2.4046,0.0,0.0,0.0,0.0,0.0,0.0,0.0,0.0,0.0,0.0,0.0,0.0,0.0,0.0,0.0,0.0,0.0,0.0,0.0,0.0,0.0,0.0,0.0,0.0,0.0,0.0,0.0,0.0,0.0,0.0,0.0,0.0,-3.4316,-3.4409,-3.4473,-3.4539,-3.4692,-3.4955,-3.5647,-3.6453,-3.7347,-3.8422,-3.8975,-3.918,-3.9749,-4.0036,-4.0191,-4.151,-4.2697,-4.3801,-4.4801,-4.5237,-4.5303,-4.5528,-4.568,-4.5795,-4.5786,-4.58,-4.58,-4.58,-4.58,-4.58,-4.58,-4.58,-4.58,-4.58,-4.5814,-4.5847,-4.5893,-4.5899,-4.5949,-4.6016,-4.6076,-4.6132,-4.6185,-4.6193,-4.6201,-4.6196,-4.6196,-4.6203,-4.6196,-4.6196,-4.6203,-4.6195,-4.6195,-4.6195,-4.6195,-4.6195,-4.6189,-4.6203,-4.6203,-4.6195,-4.6201,-4.621,-4.6228,-4.6273,-4.6282,-4.6303,-4.63,-4.6308,-4.6297,-4.6308,-4.6279,-4.625,-4.6201,-4.6195,-4.6195,-4.6195,-4.6209,-4.6203,-2.3476,0.0,0.0,0.0,0.0,0.0,0.0,0.0,0.0,0.0,0.0,0.0,0.0,0.0,0.0,0.0,0.0,0.0,0.0,0.0,0.0,0.0,0.0,0.0,0.0,0.0,0.0,0.0,0.0,0.0,0.0,0.0,0.0,0.0,-3.4495,-3.4604,-3.4689,-3.4771,-3.483,-3.483,-3.5418,-3.5872,-3.63,-3.7936,-3.8741,-3.8879,-3.9696,-4.0226,-4.0604,-4.1544,-4.264,-4.3782,-4.4421,-4.4953,-4.5303,-4.5528,-4.568,-4.5795,-4.5786,-4.58,-4.58,-4.58,-4.58,-4.58,-4.58,-4.58,-4.58,-4.58,-4.5814,-4.5847,-4.5893,-4.5919,-4.5956,-4.5994,-4.6056,-4.6114,-4.6158,-4.6181,-4.6196,-4.6196,-4.6196,-4.6196,-4.6203,-4.6189,-4.6195,-4.6206,-4.6206,-4.6206,-4.6206,-4.6206,-4.6192,-4.6201,-4.623,-4.6238,-4.6241,-4.6239,-4.6267,-4.6308,-4.6308,-4.6307,-4.6308,-4.6301,-4.6306,-4.6299,-4.6303,-4.6279,-4.6206,-4.6206,-4.6206,-4.6206,-4.6206,-4.6201,0.0,0.0,0.0,0.0,0.0,0.0,0.0,0.0,0.0,0.0,0.0,0.0,0.0,0.0,0.0,0.0,0.0,0.0,0.0,0.0,0.0,0.0,0.0,0.0,0.0,0.0,0.0,0.0,0.0,0.0,0.0,0.0,0.0,-3.4427,-3.4623,-3.4751,-3.4831,-3.4945,-3.502,0.0,-3.5075,-3.511,-3.5188,-3.7528,-3.869,-3.8937,-3.9756,-4.0452,-4.1105,-4.1181,-4.2109,-4.3497,-4.3792,-4.4416,-4.5207,-4.5509,-4.5665,-4.5781,-4.5786,-4.58,-4.58,-4.58,-4.58,-4.58,-4.58,-4.58,-4.58,-4.58,-4.5847,-4.5893,-4.5906,-4.5956,-4.6003,-4.6003,-4.6065,-4.6095,-4.6119,-4.6157,-4.6209,-4.6206,-4.6201,-4.6201,-4.6201,-4.6211,-4.6216,-4.6216,-4.6216,-4.6216,-4.6216,-4.6216,-4.621,-4.6217,-4.6265,-4.6307,-4.6308,-4.6308,-4.6307,-4.6305,-4.6293,-4.63,-4.63,-4.63,-4.6296,-4.6308,-4.6308,-4.626,-4.6211,-4.6211,-4.6211,-4.6211,-4.6211,-4.6211,0.0,0.0,0.0,0.0,0.0,0.0,0.0,0.0,0.0,0.0,0.0,0.0,0.0,0.0,0.0,0.0,0.0,0.0,0.0,0.0,0.0,0.0,0.0,0.0,0.0,0.0,0.0,0.0,0.0,0.0,0.0,0.0,0.0,-3.4623,-3.4771,-3.4908,-3.502,-3.5129,-3.5147,0.0,-3.5179,-3.5179,-3.5221,-3.6384,-3.7604,-3.888,-3.9736,-4.0129,-4.0211,-4.0934,-4.1408,-4.1863,-4.333,-4.4069,-4.4402,-4.5263,-4.5651,-4.5731,-4.5786,-4.58,-4.58,-4.58,-4.58,-4.58,-4.58,-4.58,-4.58,-4.58,-4.5847,-4.5906,-4.5893,-4.5941,-4.6007,-4.6066,-4.6084,-4.6113,-4.6169,-4.6181,-4.6196,-4.6201,-4.6191,-4.6212,-4.6278,-4.628,-4.6282,-4.6286,-4.6286,-4.6286,-4.6286,-4.6286,-4.6287,-4.6288,-4.6289,-4.6306,-4.6295,-4.6293,-4.629,-4.6309,-4.6303,-4.63,-4.63,-4.63,-4.63,-4.6296,-4.6296,-4.6296,-4.6273,-4.6273,-4.6273,-4.6273,-4.6273,-4.6288,0.0,0.0,0.0,0.0,0.0,0.0,0.0,0.0,0.0,0.0,0.0,0.0,0.0,0.0,0.0,0.0,0.0,0.0,0.0,0.0,0.0,0.0,0.0,0.0,0.0,0.0,0.0,0.0,0.0,0.0,0.0,-3.4197,-3.4409,-3.4687,-3.485,-3.502,-3.5147,-3.5179,-3.5196,-3.5196,-3.5193,-3.5196,-3.5238,-3.6423,-3.7643,-3.8859,-3.9696,-3.9975,-3.9927,-4.0404,-4.0821,-4.1332,-4.2715,-4.3569,-4.4133,-4.5169,-4.5618,-4.5715,-4.5786,-4.58,-4.58,-4.58,-4.58,-4.58,-4.58,-4.58,-4.5814,-4.5847,-4.5906,-4.5956,-4.5983,-4.6016,-4.6056,-4.6138,-4.6158,-4.6149,-4.6189,-4.624,-4.6253,-4.6251,-4.6241,-4.6267,-4.6289,-4.6307,-4.6305,-4.6303,-4.6301,-4.6301,-4.6301,-4.6301,-4.6301,-4.6301,-4.63,-4.6293,-4.63,-4.63,-4.63,-4.63,-4.63,-4.63,-4.63,-4.63,-4.63,-4.63,-4.63,-4.63,-4.63,-4.63,-4.63,-4.63,-4.6729,-4.6921,0.0,0.0,0.0,0.0,0.0,0.0,0.0,0.0,0.0,0.0,0.0,0.0,0.0,0.0,0.0,0.0,0.0,0.0,0.0,0.0,0.0,0.0,0.0,0.0,0.0,0.0,0.0,0.0,0.0,0.0,-3.3998,-3.4197,-3.4409,-3.4687,-3.4908,-3.5075,-3.52,-3.5212,-3.5209,-3.5209,-3.5193,-3.5179,-3.5221,-3.6691,-3.7813,-3.8629,-3.9597,-3.9954,-3.9889,-3.9889,-4.0306,-4.1067,-4.1949,-4.2897,-4.3903,-4.4901,-4.5449,-4.568,-4.5771,-4.58,-4.58,-4.58,-4.58,-4.58,-4.58,-4.58,-4.5814,-4.5893,-4.5944,-4.6033,-4.6075,-4.6105,-4.6122,-4.6203,-4.6222,-4.6227,-4.6216,-4.6257,-4.6306,-4.6308,-4.6307,-4.6307,-4.6305,-4.6293,-4.63,-4.63,-4.63,-4.63,-4.63,-4.6436,-4.6515,-4.6515,-4.6651,-4.6729,-4.6729,-4.6729,-4.6729,-4.6729,-4.6729,-4.6729,-4.6729,-4.6729,-4.6729,-4.6729,-4.6456,-4.6378,-4.6515,-4.6515,-4.6593,-4.6749,-4.7471,-4.7803,0.0,0.0,0.0,0.0,0.0,0.0,0.0,0.0,0.0,0.0,0.0,0.0,0.0,0.0,0.0,0.0,0.0,0.0,0.0,0.0,0.0,0.0,0.0,0.0,0.0,0.0,0.0,0.0,0.0,0.0,-3.3998,-3.4197,-3.4409,-3.4687,-3.4908,-3.5075,-3.52,-3.5212,-3.5209,-3.5209,-3.5145,-3.511,-3.5131,-3.5989,-3.6862,-3.7755,-3.9313,-3.9954,-3.9889,-3.9889,-3.9965,-4.0176,-4.1095,-4.2039,-4.3002,-4.4001,-4.4897,-4.5629,-4.5765,-4.5791,-4.58,-4.58,-4.58,-4.58,-4.58,-4.58,-4.5814,-4.5893,-4.5944,-4.6022,-4.6074,-4.6132,-4.6203,-4.6264,-4.6292,-4.6299,-4.6294,-4.6294,-4.63,-4.6297,-4.6306,-4.6306,-4.6306,-4.6303,-4.63,-4.63,-4.63,-4.63,-4.63,-4.6963,-4.7432,-4.7432,-4.8057,-4.8466,-4.8466,-4.8466,-4.8466,-4.8466,-4.8466,-4.8466,-4.8466,-4.8466,-4.8466,-4.8466,-4.7042,-4.6671,-4.7432,-4.7432,-4.7783,-4.8466,-4.8584,-4.8642,0.0,0.0,0.0,0.0,0.0,0.0,0.0,0.0,0.0,0.0,0.0,0.0,0.0,0.0,0.0,0.0,0.0,0.0,0.0,0.0,0.0,0.0,0.0,0.0,0.0,0.0,0.0,0.0,0.0,-3.3868,-3.3947,-3.4173,-3.4404,-3.4645,-3.4888,-3.5075,-3.52,-3.5212,-3.5209,-3.5209,-3.5145,-3.5092,-3.5131,-3.5875,-3.6406,-3.6862,-3.8531,-3.925,-3.9267,-3.9721,-3.9889,-4.0006,-4.0881,-4.1844,-4.283,-4.379,-4.4746,-4.5613,-4.5765,-4.5791,-4.58,-4.58,-4.58,-4.58,-4.58,-4.58,-4.5814,-4.5867,-4.5953,-4.6017,-4.6124,-4.6215,-4.6255,-4.6296,-4.63,-4.6296,-4.6294,-4.6306,-4.6308,-4.629,-4.63,-4.63,-4.63,-4.63,-4.63,-4.63,-4.63,-4.6475,-4.6963,-4.7354,-4.7764,-4.8213,-4.8584,-4.8798,-4.8798,-4.8798,-4.8798,-4.8798,-4.8798,-4.8798,-4.8798,-4.8798,-4.8798,-4.8798,-4.8076,-4.7881,-4.8271,-4.8271,-4.8447,-4.8818,-4.9306,-4.954,0.0,0.0,0.0,0.0,0.0,0.0,0.0,0.0,0.0,0.0,0.0,0.0,0.0,0.0,0.0,0.0,0.0,0.0,0.0,0.0,0.0,0.0,0.0,0.0,0.0,0.0,0.0,0.0,0.0,-3.3842,-3.3921,-3.4148,-3.4363,-3.4539,-3.481,-3.502,-3.5147,-3.5176,-3.5209,-3.5209,-3.5145,-3.5092,-3.5131,-3.5647,-3.5874,-3.595,-3.7637,-3.851,-3.8757,-3.9342,-3.9721,-3.9946,-4.0631,-4.148,-4.2465,-4.3426,-4.4402,-4.5327,-4.5673,-4.5791,-4.58,-4.58,-4.58,-4.58,-4.58,-4.58,-4.5794,-4.5873,-4.5956,-4.6027,-4.6177,-4.6254,-4.6303,-4.6293,-4.6293,-4.6293,-4.6293,-4.6306,-4.6307,-4.6293,-4.6303,-4.63,-4.63,-4.63,-4.6378,-4.6593,-4.6632,-4.6944,-4.7803,-4.8096,-4.8466,-4.9072,-4.9325,-4.9462,-4.9462,-4.9462,-4.9462,-4.9462,-4.9462,-4.9462,-4.9462,-4.9462,-4.9462,-4.9462,-4.9462,-4.9345,-4.913,-4.913,-4.9247,-4.9481,-5.0126,-5.0438,0.0,0.0,0.0,0.0,0.0,0.0,0.0,0.0,0.0,0.0,0.0,0.0,0.0,0.0,0.0,0.0,0.0,0.0,0.0,0.0,0.0,0.0,0.0,0.0,0.0,0.0,0.0,0.0,0.0,-3.3921,-3.3998,-3.4124,-3.4269,-3.4404,-3.4666,-3.4869,-3.5001,-3.5143,-3.5209,-3.5209,-3.5145,-3.5092,-3.5111,-3.5002,-3.4965,-3.5059,-3.6727,-3.794,-3.8719,-3.8757,-3.921,-3.9889,-3.9946,-4.0564,-4.1585,-4.2526,-4.3502,-4.4506,-4.5395,-4.5742,-4.58,-4.58,-4.58,-4.58,-4.58,-4.58,-4.5794,-4.5873,-4.5956,-4.6036,-4.6162,-4.6245,-4.6309,-4.6307,-4.6308,-4.6308,-4.6308,-4.6307,-4.6301,-4.6301,-4.6293,-4.63,-4.63,-4.63,-4.6573,-4.7412,-4.753,-4.7822,-4.8623,-4.9462,-4.9989,-5.0028,-5.077,-5.1258,-5.1258,-5.1258,-5.1258,-5.1258,-5.1258,-5.1258,-5.1258,-5.1258,-5.1258,-5.1258,-5.1258,-5.0867,-5.0028,-5.0028,-5.0457,-5.1277,-5.1316,-5.1336,0.0,0.0,0.0,0.0,0.0,0.0,0.0,0.0,0.0,0.0,0.0,0.0,0.0,0.0,0.0,0.0,0.0,0.0,0.0,0.0,0.0,0.0,0.0,0.0,0.0,0.0,0.0,0.0,0.0,0.0,-3.4124,-3.4245,-3.4386,-3.4517,-3.471,-3.4908,-3.5129,-3.5196,-3.5193,-3.5198,-3.5127,-3.5075,-3.502,-3.4945,-3.4908,-3.4927,-3.5533,-3.6576,-3.7902,-3.8472,-3.9172,-3.9889,-3.9889,-4.0485,-4.1466,-4.2429,-4.3426,-4.4376,-4.5359,-4.5742,-4.58,-4.58,-4.58,-4.58,-4.58,-4.58,-4.5794,-4.5873,-4.5966,-4.6093,-4.6189,-4.626,-4.63,-4.6308,-4.6308,-4.6308,-4.6308,-4.6303,-4.6309,-4.6309,-4.6752,-4.7139,-4.7139,-4.7139,-4.7412,-4.8252,-4.7939,-4.8096,-4.9462,-4.9911,-5.0321,-5.0867,-5.1219,-5.1394,-5.1394,-5.1394,-5.1394,-5.1394,-5.1394,-5.1394,-5.1394,-5.1394,-5.1394,-5.1394,-5.1394,-5.1258,-5.0926,-5.0926,-5.1082,-5.1394,-5.1394,-5.1394,0.0,0.0,0.0,0.0,0.0,0.0,0.0,0.0,0.0,0.0,0.0,0.0,0.0,0.0,0.0,0.0,0.0,0.0,0.0,0.0,0.0,0.0,0.0,0.0,0.0,0.0,0.0,0.0,0.0,0.0,-3.4221,-3.4316,-3.445,-3.4602,-3.4752,-3.4945,-3.5164,-3.5196,-3.5212,-3.52,-3.5129,-3.5075,-3.5001,-3.4927,-3.4908,-3.4927,-3.5211,-3.6121,-3.7428,-3.8016,-3.8906,-3.9889,-3.9889,-4.0274,-4.0986,-4.197,-4.2948,-4.3918,-4.4903,-4.5514,-4.5805,-4.58,-4.58,-4.58,-4.58,-4.58,-4.5794,-4.5873,-4.5997,-4.613,-4.6189,-4.6249,-4.6307,-4.6308,-4.6308,-4.6308,-4.6308,-4.6303,-4.6306,-4.6303,-4.7002,-4.7608,-4.7608,-4.7822,-4.8271,-4.9111,-4.8779,-4.8954,-5.036,-5.0535,-5.077,-5.1336,-5.1394,-5.1394,-5.1394,-5.1394,-5.1394,-5.1394,-5.1394,-5.1394,-5.1394,-5.1394,-5.1394,-5.1394,-5.1394,-5.1394,-5.1394,-5.1394,-5.1394,-5.1394,-5.1394,-5.1394,0.0,0.0,0.0,0.0,0.0,0.0,0.0,0.0,0.0,0.0,0.0,0.0,0.0,0.0,0.0,0.0,0.0,0.0,0.0,0.0,0.0,0.0,0.0,0.0,0.0,0.0,0.0,0.0,0.0,-3.4221,-3.4293,-3.4293,-3.4386,-3.4602,-3.4811,-3.4964,-3.5092,-3.516,-3.5196,-3.52,-3.5129,-3.5075,-3.5001,-3.4927,-3.4908,-3.4946,-3.5817,-3.6651,-3.739,-3.7428,-3.8414,-3.9889,-3.9889,-3.9933,-4.0112,-4.1053,-4.203,-4.304,-4.4061,-4.5005,-4.5795,-4.58,-4.58,-4.58,-4.58,-4.58,-4.5794,-4.5873,-4.5997,-4.613,-4.6189,-4.6245,-4.6308,-4.6308,-4.6308,-4.6308,-4.6308,-4.6326,-4.6339,-4.6342,-4.7042,-4.7647,-4.7666,-4.833,-4.913,-5.0008,-5.0126,-5.0418,-5.1297,-5.1394,-5.1394,-5.1394,-5.1394,-5.1394,-5.1394,-5.1394,-5.1394,-5.1394,-5.1394,-5.1394,-5.1394,-5.1394,-5.1394,-5.1394,-5.1394,-5.1394,-5.1394,-5.1394,-5.1394,-5.1394,-5.1394,-5.1394,-2.4932,0.0,0.0,0.0,0.0,0.0,0.0,0.0,0.0,0.0,0.0,0.0,0.0,0.0,0.0,0.0,0.0,0.0,0.0,0.0,0.0,0.0,0.0,0.0,0.0,0.0,0.0,0.0,-3.4197,-3.4293,-3.4363,-3.4473,-3.4561,-3.4666,-3.4831,-3.4964,-3.5092,-3.5164,-3.5198,-3.52,-3.5129,-3.5075,-3.5001,-3.4927,-3.4908,-3.4946,-3.5817,-3.6651,-3.7447,-3.8073,-3.8963,-3.9889,-3.9889,-3.9911,-4.0049,-4.1033,-4.2011,-4.2984,-4.4025,-4.5005,-4.5795,-4.58,-4.58,-4.58,-4.58,-4.58,-4.5827,-4.5937,-4.6037,-4.6127,-4.623,-4.6289,-4.6297,-4.6308,-4.6308,-4.6308,-4.6308,-4.6795,-4.7237,-4.724,-4.79,-4.8662,-4.9306,-4.9599,-5.0048,-5.0906,-5.0496,-5.0418,-5.1297,-5.1394,-5.1394,-5.1394,-5.1394,-5.1402,-5.1391,-5.1394,-5.1394,-5.1394,-5.1394,-5.1394,-5.1394,-5.1394,-5.1394,-5.1394,-5.1394,-5.1394,-5.1394,-5.1402,-5.1394,-5.1394,-5.1394,-5.1394,0.0,0.0,0.0,0.0,0.0,0.0,0.0,-2.9344,0.0,0.0,0.0,0.0,0.0,0.0,0.0,0.0,0.0,0.0,0.0,0.0,0.0,0.0,0.0,0.0,0.0,0.0,0.0,-3.4049,-3.4148,-3.4221,-3.4269,-3.4386,-3.4517,-3.4561,-3.4751,-3.4908,-3.502,-3.5147,-3.5183,-3.5147,-3.5129,-3.5075,-3.5001,-3.4927,-3.5097,-3.5495,-3.6329,-3.7163,-3.7997,-3.885,-3.9475,-3.9889,-3.9889,-3.9889,-3.9968,-4.063,-4.1437,-4.2412,-4.3492,-4.4453,-4.5321,-4.567,-4.58,-4.58,-4.58,-4.58,-4.5827,-4.5937,-4.6047,-4.6176,-4.627,-4.6308,-4.63,-4.6303,-4.6307,-4.6308,-4.6308,-4.6972,-4.7592,-4.7595,-4.8545,-4.9501,-5.0008,-5.0399,-5.0813,-5.1327,-5.0975,-5.0822,-5.1327,-5.1405,-5.1405,-5.1405,-5.1398,-5.1398,-5.1408,-5.14,-5.1403,-5.1403,-5.1403,-5.1403,-5.1403,-5.1403,-5.1402,-5.1398,-5.1398,-5.1398,-5.1398,-5.1391,-5.1405,-5.1405,-5.1405,-5.1402,0.0,0.0,0.0,0.0,0.0,0.0,-2.9386,-2.9407,-2.9386,0.0,0.0,0.0,0.0,0.0,0.0,0.0,0.0,0.0,0.0,0.0,0.0,0.0,0.0,0.0,0.0,-3.3842,-3.3921,-3.3972,-3.4049,-3.4099,-3.4099,-3.4221,-3.4316,-3.4404,-3.4645,-3.481,-3.4908,-3.5075,-3.5147,-3.5092,-3.5092,-3.5057,-3.5001,-3.4927,-3.5382,-3.6234,-3.7049,-3.7883,-3.8755,-3.957,-3.9889,-3.9889,-3.9889,-3.9889,-3.9911,-4.0057,-4.0691,-4.1648,-4.2727,-4.3709,-4.4635,-4.5515,-4.58,-4.58,-4.58,-4.58,-4.5827,-4.5886,-4.6047,-4.6222,-4.6273,-4.6307,-4.6308,-4.6293,-4.6301,-4.6308,-4.6308,-4.7051,-4.7733,-4.7737,-4.902,-5.0129,-5.0227,-5.0891,-5.1402,-5.1394,-5.1398,-5.14,-5.14,-5.14,-5.14,-5.14,-5.1391,-5.1402,-5.1402,-5.1402,-5.1406,-5.1406,-5.1406,-5.1406,-5.1406,-5.1406,-5.1406,-5.14,-5.14,-5.14,-5.14,-5.14,-5.14,-5.14,-5.14,-5.1394,0.0,0.0,0.0,0.0,0.0,0.0,-2.9386,-2.9407,-2.9386,0.0,0.0,0.0,0.0,0.0,0.0,0.0,0.0,0.0,0.0,0.0,0.0,0.0,0.0,0.0,0.0,-3.3842,-3.3895,-3.3921,-3.3972,-3.4023,-3.4023,-3.4099,-3.4197,-3.4316,-3.4473,-3.4628,-3.4831,-3.4908,-3.5001,-3.5092,-3.5057,-3.502,-3.5001,-3.4927,-3.5382,-3.6234,-3.7049,-3.7883,-3.8755,-3.957,-3.9889,-3.9889,-3.9889,-3.9889,-3.9911,-4.0057,-4.0691,-4.1648,-4.2727,-4.3709,-4.4635,-4.5515,-4.58,-4.58,-4.58,-4.58,-4.5841,-4.5947,-4.6099,-4.622,-4.6276,-4.6307,-4.6308,-4.6307,-4.6301,-4.6297,-4.6308,-4.7539,-4.8652,-4.8651,-4.9429,-5.0322,-5.1025,-5.1288,-5.1394,-5.1398,-5.14,-5.1406,-5.1406,-5.1406,-5.1406,-5.1406,-5.1405,-5.1405,-5.1405,-5.1406,-5.1406,-5.1406,-5.1406,-5.1406,-5.1406,-5.1406,-5.1406,-5.1406,-5.1406,-5.1406,-5.1406,-5.1406,-5.1406,-5.1406,-5.1406,-5.1404,0.0,0.0,0.0,-2.924,0.0,0.0,0.0,-2.9407,-2.9386,0.0,0.0,0.0,0.0,0.0,0.0,0.0,0.0,0.0,0.0,0.0,0.0,0.0,0.0,0.0,0.0,-3.3868,-3.3895,-3.3895,-3.4281,-3.4502,-3.4502,-3.4961,-3.5103,-3.4804,-3.4955,-3.4952,-3.4751,-3.485,-3.4945,-3.5057,-3.502,-3.5001,-3.502,-3.5382,-3.6007,-3.6841,-3.7675,-3.8509,-3.9323,-3.974,-3.9889,-3.9889,-3.9889,-3.9889,-3.9911,-3.9996,-4.0385,-4.1055,-4.2556,-4.3404,-4.4056,-4.538,-4.58,-4.58,-4.58,-4.5808,-4.5861,-4.5977,-4.6091,-4.6209,-4.6234,-4.6262,-4.6308,-4.6308,-4.6307,-4.6305,-4.6308,-4.7676,-4.8906,-4.8906,-4.9902,-5.0896,-5.1326,-5.1402,-5.1398,-5.1398,-5.1405,-5.1406,-5.1406,-5.1406,-5.1406,-5.1406,-5.1406,-5.1406,-5.1406,-5.1406,-5.1406,-5.1406,-5.1406,-5.1406,-5.1406,-5.1406,-5.1406,-5.1406,-5.1406,-5.1406,-5.1406,-5.1406,-5.1406,-5.1406,-5.1406,-5.1406,0.0,0.0,0.0,0.0,0.0,-2.9344,0.0,0.0,0.0,-2.9407,0.0,0.0,0.0,0.0,0.0,0.0,0.0,0.0,0.0,0.0,0.0,0.0,0.0,0.0,0.0,-3.3895,-3.3895,-3.3895,-3.444,-3.4825,-3.499,-3.5735,-3.5947,-3.5528,-3.5541,-3.5366,-3.491,-3.4886,-3.4908,-3.4983,-3.4983,-3.5059,-3.5249,-3.5894,-3.6727,-3.7675,-3.8376,-3.9153,-3.9889,-3.9889,-3.9889,-3.9889,-3.9889,-3.9889,-3.9911,-3.9975,-4.008,-4.0463,-4.2331,-4.3063,-4.3477,-4.5244,-4.5814,-4.5827,-4.5827,-4.5867,-4.5929,-4.5997,-4.6113,-4.6209,-4.6201,-4.6254,-4.6308,-4.6307,-4.6308,-4.6347,-4.6503,-4.7793,-4.8945,-4.9121,-5.0371,-5.1406,-5.1406,-5.1406,-5.1406,-5.1406,-5.1406,-5.1406,-5.1406,-5.1406,-5.1406,-5.1406,-5.1406,-5.1406,-5.1406,-5.1406,-5.1406,-5.1406,-5.1406,-5.1406,-5.1406,-5.1406,-5.1406,-5.1406,-5.1406,-5.1406,-5.1406,-5.1406,-5.1406,-5.1406,-5.1406,-5.1406,0.0,0.0,0.0,0.0,-2.9386,0.0,0.0,0.0,-2.9407,-2.9407,0.0,0.0,0.0,0.0,0.0,0.0,0.0,0.0,0.0,0.0,0.0,0.0,0.0,0.0,0.0,0.0,-3.3895,-3.3895,-3.3934,-3.4266,-3.4954,-3.511,-3.5515,-3.6343,-3.5755,-3.5509,-3.5672,-3.5105,-3.4849,-3.4908,-3.4908,-3.5325,-3.6083,-3.6159,-3.7049,-3.8567,-3.8662,-3.9153,-3.9889,-3.9889,-3.9889,-3.9889,-3.9889,-3.9889,-3.9911,-3.9975,-4.0078,-4.0463,-4.2276,-4.2992,-4.3408,-4.5211,-4.5854,-4.5893,-4.5893,-4.5949,-4.6003,-4.6056,-4.6149,-4.6209,-4.6201,-4.6254,-4.6308,-4.6293,-4.6297,-4.6518,-4.7297,-4.8201,-4.9121,-4.9902,-5.0781,-5.1406,-5.1406,-5.1406,-5.1406,-5.1406,-5.1406,-5.1406,-5.1406,-5.1406,-5.1406,-5.1406,-5.1406,-5.1406,-5.1406,-5.1406,-5.1406,-5.1406,-5.1406,-5.1406,-5.1406,-5.1406,-5.1406,-5.1406,-5.1406,-5.1406,-5.1406,-5.1406,-5.1406,-5.1406,-5.1406,-5.1406,0.0,0.0,0.0,0.0,0.0,0.0,-3.0801,0.0,-3.0801,0.0,0.0,0.0,0.0,0.0,0.0,0.0,0.0,0.0,0.0,0.0,0.0,0.0,0.0,0.0,0.0,0.0,0.0,0.0,0.0,-3.4651,-3.4972,-3.5936,-3.6452,-3.6509,-3.671,-3.6752,-3.6554,-3.6352,-3.6288,-3.6348,-3.6387,-3.6577,-3.6898,-3.7409,-3.8016,-3.8738,-3.9191,-3.9589,-3.9889,-3.9889,-3.9889,-3.9889,-3.9889,-3.9889,-3.9911,-3.9933,-4.0057,-4.0387,-4.1685,-4.259,-4.3458,-4.5266,-4.5893,-4.5905,-4.5905,-4.5949,-4.6014,-4.6085,-4.6149,-4.6209,-4.6201,-4.6254,-4.6307,-4.6309,-4.6306,-4.6407,-4.6778,-4.7935,-4.9014,-4.9372,-5.0507,-5.1406,-5.1406,-5.1406,-5.1406,-5.1406,-5.1406,-5.1406,-5.1406,-5.1406,-5.1406,-5.1406,-5.1406,-5.1406,-5.1406,-5.1406,-5.1406,-5.1406,-5.1406,-5.1406,-5.1406,-5.1406,-5.1406,-5.1406,-5.1406,-5.1406,-5.1406,-5.1406,-5.1405,-5.1396,-5.1405,-5.1405,-3.057,0.0,0.0,0.0,0.0,0.0,0.0,0.0,0.0,0.0,0.0,0.0,0.0,0.0,0.0,0.0,0.0,0.0,0.0,0.0,0.0,0.0,0.0,0.0,0.0,0.0,0.0,-3.3921,-3.4393,-3.4807,-3.5046,-3.6395,-3.7059,-3.6805,-3.7507,-3.7739,-3.7413,-3.7335,-3.733,-3.743,-3.7489,-3.7603,-3.7811,-3.8438,-3.8835,-3.9079,-3.9667,-3.9911,-3.9889,-3.9889,-3.9889,-3.9889,-3.9889,-3.9889,-3.9889,-3.9889,-3.9996,-4.0291,-4.1227,-4.2456,-4.3844,-4.5408,-4.5941,-4.5953,-4.5964,-4.5994,-4.6046,-4.6105,-4.6158,-4.6209,-4.6201,-4.6251,-4.6308,-4.6297,-4.6306,-4.6378,-4.6593,-4.7647,-4.8607,-4.8853,-5.0072,-5.1073,-5.1074,-5.125,-5.1406,-5.1406,-5.1406,-5.1406,-5.1406,-5.1406,-5.1406,-5.1406,-5.1406,-5.1406,-5.1406,-5.1406,-5.1406,-5.1406,-5.1406,-5.1406,-5.1406,-5.1406,-5.1406,-5.1406,-5.1406,-5.1406,-5.1404,-5.1404,-5.1398,-5.1402,-5.14,-5.1398,0.0,0.0,0.0,-3.1573,0.0,0.0,0.0,0.0,-3.1782,0.0,0.0,0.0,0.0,0.0,0.0,0.0,0.0,0.0,0.0,0.0,0.0,0.0,0.0,0.0,0.0,0.0,0.0,-3.3998,-3.3957,-3.43,-3.5165,-3.5909,-3.6699,-3.754,-3.7776,-3.7992,-3.8159,-3.7596,-3.737,-3.7508,-3.7547,-3.8004,-3.8746,-3.8765,-3.9221,-3.9958,-3.9996,-3.9954,-3.9889,-3.9889,-3.9889,-3.9889,-3.9889,-3.9889,-3.9889,-3.9889,-3.9954,-4.0131,-4.117,-4.2838,-4.4705,-4.5692,-4.6037,-4.6076,-4.6084,-4.6093,-4.6122,-4.6177,-4.6201,-4.6209,-4.6206,-4.6241,-4.6301,-4.6307,-4.6295,-4.6534,-4.7373,-4.7608,-4.7884,-4.874,-4.9618,-5.0234,-5.0234,-5.0879,-5.1406,-5.1406,-5.1406,-5.1406,-5.1406,-5.1406,-5.1406,-5.1406,-5.1406,-5.1406,-5.1406,-5.1406,-5.1406,-5.1406,-5.1406,-5.1406,-5.1406,-5.1406,-5.1406,-5.1406,-5.1406,-5.1403,-5.1394,-5.1394,-5.1405,-5.1398,-5.1405,-5.1405,0.0,0.0,-3.292,-3.3084,0.0,0.0,0.0,0.0,0.0,0.0,0.0,0.0,0.0,0.0,0.0,0.0,0.0,0.0,0.0,0.0,0.0,0.0,0.0,0.0,0.0,0.0,0.0,-3.3998,-3.3972,-3.4102,0.0,-3.5644,-3.6499,-3.6803,-3.7988,-3.8738,-3.8983,-3.8949,-3.9018,-3.9161,-3.928,-3.9433,-3.966,-3.966,-3.9811,-4.0057,-4.0057,-4.0036,-3.9954,-3.9954,-3.9933,-3.9889,-3.9889,-3.9889,-3.9889,-3.9889,-3.9933,-4.0248,-4.1967,-4.3443,-4.4763,-4.5744,-4.6085,-4.6104,-4.6093,-4.6093,-4.6102,-4.6185,-4.6201,-4.6203,-4.6196,-4.6245,-4.6297,-4.6306,-4.6307,-4.6371,-4.6674,-4.7198,-4.7686,-4.7978,-4.9169,-5.0133,-5.0131,-5.0839,-5.1406,-5.1406,-5.1406,-5.1406,-5.1406,-5.1406,-5.1406,-5.1406,-5.1406,-5.1406,-5.1406,-5.1406,-5.1406,-5.1406,-5.1406,-5.1406,-5.1406,-5.1406,-5.1406,-5.1406,-5.14,-5.1408,-5.1394,-5.1394,-5.1398,-5.1405,-5.1398,-5.1398,-3.2625,-3.312,0.0,-3.3753,-3.3868,0.0,-3.4049,0.0,0.0,0.0,0.0,0.0,0.0,0.0,0.0,0.0,0.0,0.0,0.0,-3.3476,0.0,0.0,0.0,0.0,0.0,0.0,-3.3684,-3.4037,-3.4074,-3.4074,0.0,0.0,-3.6057,-3.637,-3.7812,-3.885,-3.935,-3.9647,-3.987,-4.0036,-4.0176,-4.0196,-4.0157,-4.0157,-4.0157,-4.0137,-4.0137,-4.0098,-4.0036,-4.0036,-4.0015,-3.9933,-3.9933,-3.9911,-3.9889,-3.9889,-4.0165,-4.0824,-4.2804,-4.3989,-4.4769,-4.5774,-4.6123,-4.6149,-4.6138,-4.6138,-4.6146,-4.6193,-4.6208,-4.6203,-4.6203,-4.622,-4.6277,-4.6295,-4.6307,-4.6307,-4.6295,-4.6733,-4.7237,-4.7549,-4.8701,-4.9739,-5.0044,-5.0817,-5.1406,-5.1406,-5.1406,-5.1406,-5.1406,-5.1406,-5.1406,-5.1406,-5.1406,-5.1406,-5.1406,-5.1406,-5.1406,-5.1406,-5.1406,-5.1406,-5.1406,-5.1404,-5.1402,-5.1402,-5.1391,-5.1402,-5.1394,-5.1394,-5.1394,-5.1394,-5.1394,-5.1394]}]]